<?xml version="1.0" encoding="UTF-8" standalone="no" ?>
<gpx xmlns="http://www.topografix.com/GPX/1/1" xmlns:xsi="http://www.w3.org/2001/XMLSchema-instance" xsi:schemaLocation="http://www.topografix.com/GPX/1/1 http://www.topografix.com/GPX/1/1/gpx.xsd" version="1.1" creator="VisuGPX - https://www.visugpx.com">
  <metadata>
    <name>VTT Amandinoise 51 km - 10-2008</name>
    <desc><![CDATA[Belle rando, très boueuse à cette période!!!

mais un régal: terrils, singles, étangs, forêt etc.

à faire sans modération!

séb]]></desc>
  </metadata>
  <trk>
    <name><![CDATA[VTT Amandinoise 51 km - 10-2008_1]]></name>
    <cmt><![CDATA[sal temps!]]></cmt>
    <trkseg>
      <trkpt lat="50.43043" lon="3.44148">
        <ele>20.8056640625</ele>
        <time>2008-10-05T06:46:19Z</time>
      </trkpt>
      <trkpt lat="50.43045" lon="3.44147">
        <ele>20.8056640625</ele>
        <time>2008-10-05T06:46:20Z</time>
      </trkpt>
      <trkpt lat="50.43061" lon="3.44142">
        <ele>20.324951171875</ele>
        <time>2008-10-05T06:46:26Z</time>
      </trkpt>
      <trkpt lat="50.43083" lon="3.44131">
        <ele>20.324951171875</ele>
        <time>2008-10-05T06:46:33Z</time>
      </trkpt>
      <trkpt lat="50.43106" lon="3.44121">
        <ele>20.324951171875</ele>
        <time>2008-10-05T06:46:40Z</time>
      </trkpt>
      <trkpt lat="50.43132" lon="3.44107">
        <ele>20.324951171875</ele>
        <time>2008-10-05T06:46:48Z</time>
      </trkpt>
      <trkpt lat="50.43148" lon="3.44093">
        <ele>20.8056640625</ele>
        <time>2008-10-05T06:46:53Z</time>
      </trkpt>
      <trkpt lat="50.43173" lon="3.44078">
        <ele>20.8056640625</ele>
        <time>2008-10-05T06:46:59Z</time>
      </trkpt>
      <trkpt lat="50.43189" lon="3.44081">
        <ele>20.8056640625</ele>
        <time>2008-10-05T06:47:03Z</time>
      </trkpt>
      <trkpt lat="50.43194" lon="3.44097">
        <ele>19.844360351562</ele>
        <time>2008-10-05T06:47:06Z</time>
      </trkpt>
      <trkpt lat="50.43203" lon="3.44153">
        <ele>19.36376953125</ele>
        <time>2008-10-05T06:47:15Z</time>
      </trkpt>
      <trkpt lat="50.43212" lon="3.44206">
        <ele>18.883056640625</ele>
        <time>2008-10-05T06:47:23Z</time>
      </trkpt>
      <trkpt lat="50.43219" lon="3.44259">
        <ele>18.40234375</ele>
        <time>2008-10-05T06:47:31Z</time>
      </trkpt>
      <trkpt lat="50.43219" lon="3.44272">
        <ele>18.40234375</ele>
        <time>2008-10-05T06:47:33Z</time>
      </trkpt>
      <trkpt lat="50.43215" lon="3.44306">
        <ele>17.921752929688</ele>
        <time>2008-10-05T06:47:38Z</time>
      </trkpt>
      <trkpt lat="50.4321" lon="3.44324">
        <ele>17.921752929688</ele>
        <time>2008-10-05T06:47:41Z</time>
      </trkpt>
      <trkpt lat="50.43192" lon="3.44374">
        <ele>18.40234375</ele>
        <time>2008-10-05T06:47:50Z</time>
      </trkpt>
      <trkpt lat="50.43172" lon="3.44422">
        <ele>18.40234375</ele>
        <time>2008-10-05T06:47:59Z</time>
      </trkpt>
      <trkpt lat="50.43157" lon="3.44456">
        <ele>19.844360351562</ele>
        <time>2008-10-05T06:48:06Z</time>
      </trkpt>
      <trkpt lat="50.4315" lon="3.44477">
        <ele>20.324951171875</ele>
        <time>2008-10-05T06:48:10Z</time>
      </trkpt>
      <trkpt lat="50.43132" lon="3.44519">
        <ele>21.766967773438</ele>
        <time>2008-10-05T06:48:18Z</time>
      </trkpt>
      <trkpt lat="50.43111" lon="3.44563">
        <ele>23.208984375</ele>
        <time>2008-10-05T06:48:27Z</time>
      </trkpt>
      <trkpt lat="50.43105" lon="3.44578">
        <ele>23.208984375</ele>
        <time>2008-10-05T06:48:31Z</time>
      </trkpt>
      <trkpt lat="50.43091" lon="3.44574">
        <ele>24.170288085938</ele>
        <time>2008-10-05T06:48:35Z</time>
      </trkpt>
      <trkpt lat="50.43057" lon="3.44541">
        <ele>24.170288085938</ele>
        <time>2008-10-05T06:48:43Z</time>
      </trkpt>
      <trkpt lat="50.43037" lon="3.44521">
        <ele>25.131713867188</ele>
        <time>2008-10-05T06:48:48Z</time>
      </trkpt>
      <trkpt lat="50.43016" lon="3.44501">
        <ele>25.131713867188</ele>
        <time>2008-10-05T06:48:53Z</time>
      </trkpt>
      <trkpt lat="50.42986" lon="3.44471">
        <ele>24.651000976562</ele>
        <time>2008-10-05T06:49:00Z</time>
      </trkpt>
      <trkpt lat="50.42952" lon="3.44439">
        <ele>24.651000976562</ele>
        <time>2008-10-05T06:49:07Z</time>
      </trkpt>
      <trkpt lat="50.42928" lon="3.44414">
        <ele>25.6123046875</ele>
        <time>2008-10-05T06:49:12Z</time>
      </trkpt>
      <trkpt lat="50.42913" lon="3.44401">
        <ele>25.131713867188</ele>
        <time>2008-10-05T06:49:16Z</time>
      </trkpt>
      <trkpt lat="50.42901" lon="3.44415">
        <ele>25.6123046875</ele>
        <time>2008-10-05T06:49:20Z</time>
      </trkpt>
      <trkpt lat="50.42882" lon="3.44437">
        <ele>26.092895507812</ele>
        <time>2008-10-05T06:49:25Z</time>
      </trkpt>
      <trkpt lat="50.42869" lon="3.44452">
        <ele>27.054321289062</ele>
        <time>2008-10-05T06:49:28Z</time>
      </trkpt>
      <trkpt lat="50.42855" lon="3.44468">
        <ele>27.534912109375</ele>
        <time>2008-10-05T06:49:32Z</time>
      </trkpt>
      <trkpt lat="50.42825" lon="3.44506">
        <ele>35.7060546875</ele>
        <time>2008-10-05T06:49:38Z</time>
      </trkpt>
      <trkpt lat="50.42818" lon="3.44538">
        <ele>40.032104492188</ele>
        <time>2008-10-05T06:49:42Z</time>
      </trkpt>
      <trkpt lat="50.4282" lon="3.4457">
        <ele>41.954711914062</ele>
        <time>2008-10-05T06:49:46Z</time>
      </trkpt>
      <trkpt lat="50.42819" lon="3.44607">
        <ele>44.838623046875</ele>
        <time>2008-10-05T06:49:51Z</time>
      </trkpt>
      <trkpt lat="50.4282" lon="3.44646">
        <ele>44.358032226562</ele>
        <time>2008-10-05T06:49:56Z</time>
      </trkpt>
      <trkpt lat="50.42819" lon="3.44663">
        <ele>43.877319335938</ele>
        <time>2008-10-05T06:49:58Z</time>
      </trkpt>
      <trkpt lat="50.42818" lon="3.44713">
        <ele>41.954711914062</ele>
        <time>2008-10-05T06:50:03Z</time>
      </trkpt>
      <trkpt lat="50.42818" lon="3.4475">
        <ele>40.032104492188</ele>
        <time>2008-10-05T06:50:08Z</time>
      </trkpt>
      <trkpt lat="50.42821" lon="3.44771">
        <ele>40.032104492188</ele>
        <time>2008-10-05T06:50:11Z</time>
      </trkpt>
      <trkpt lat="50.42822" lon="3.44812">
        <ele>40.993408203125</ele>
        <time>2008-10-05T06:50:17Z</time>
      </trkpt>
      <trkpt lat="50.42823" lon="3.44832">
        <ele>43.396606445312</ele>
        <time>2008-10-05T06:50:21Z</time>
      </trkpt>
      <trkpt lat="50.4282" lon="3.44856">
        <ele>49.16455078125</ele>
        <time>2008-10-05T06:50:26Z</time>
      </trkpt>
      <trkpt lat="50.42824" lon="3.44874">
        <ele>48.683959960938</ele>
        <time>2008-10-05T06:50:30Z</time>
      </trkpt>
      <trkpt lat="50.42827" lon="3.44898">
        <ele>47.722534179688</ele>
        <time>2008-10-05T06:50:35Z</time>
      </trkpt>
      <trkpt lat="50.42826" lon="3.44919">
        <ele>49.16455078125</ele>
        <time>2008-10-05T06:50:39Z</time>
      </trkpt>
      <trkpt lat="50.42826" lon="3.44939">
        <ele>47.722534179688</ele>
        <time>2008-10-05T06:50:43Z</time>
      </trkpt>
      <trkpt lat="50.42825" lon="3.44942">
        <ele>47.241821289062</ele>
        <time>2008-10-05T06:50:44Z</time>
      </trkpt>
      <trkpt lat="50.42821" lon="3.44953">
        <ele>47.241821289062</ele>
        <time>2008-10-05T06:50:48Z</time>
      </trkpt>
      <trkpt lat="50.4282" lon="3.44967">
        <ele>45.799926757812</ele>
        <time>2008-10-05T06:50:51Z</time>
      </trkpt>
      <trkpt lat="50.42815" lon="3.44977">
        <ele>41.954711914062</ele>
        <time>2008-10-05T06:50:55Z</time>
      </trkpt>
      <trkpt lat="50.42811" lon="3.44994">
        <ele>35.7060546875</ele>
        <time>2008-10-05T06:51:02Z</time>
      </trkpt>
      <trkpt lat="50.42807" lon="3.45007">
        <ele>34.26416015625</ele>
        <time>2008-10-05T06:51:07Z</time>
      </trkpt>
      <trkpt lat="50.42801" lon="3.45029">
        <ele>34.26416015625</ele>
        <time>2008-10-05T06:51:14Z</time>
      </trkpt>
      <trkpt lat="50.42795" lon="3.45047">
        <ele>33.302856445312</ele>
        <time>2008-10-05T06:51:19Z</time>
      </trkpt>
      <trkpt lat="50.42778" lon="3.45078">
        <ele>38.590087890625</ele>
        <time>2008-10-05T06:51:26Z</time>
      </trkpt>
      <trkpt lat="50.4276" lon="3.45104">
        <ele>41.954711914062</ele>
        <time>2008-10-05T06:51:31Z</time>
      </trkpt>
      <trkpt lat="50.42754" lon="3.45121">
        <ele>43.396606445312</ele>
        <time>2008-10-05T06:51:36Z</time>
      </trkpt>
      <trkpt lat="50.42744" lon="3.45143">
        <ele>45.799926757812</ele>
        <time>2008-10-05T06:51:41Z</time>
      </trkpt>
      <trkpt lat="50.42738" lon="3.45167">
        <ele>46.280639648438</ele>
        <time>2008-10-05T06:51:46Z</time>
      </trkpt>
      <trkpt lat="50.4273" lon="3.45185">
        <ele>45.319213867188</ele>
        <time>2008-10-05T06:51:50Z</time>
      </trkpt>
      <trkpt lat="50.42717" lon="3.45216">
        <ele>43.396606445312</ele>
        <time>2008-10-05T06:51:56Z</time>
      </trkpt>
      <trkpt lat="50.42703" lon="3.4525">
        <ele>41.954711914062</ele>
        <time>2008-10-05T06:52:03Z</time>
      </trkpt>
      <trkpt lat="50.42694" lon="3.45281">
        <ele>41.954711914062</ele>
        <time>2008-10-05T06:52:09Z</time>
      </trkpt>
      <trkpt lat="50.42682" lon="3.45323">
        <ele>42.435424804688</ele>
        <time>2008-10-05T06:52:16Z</time>
      </trkpt>
      <trkpt lat="50.4268" lon="3.45329">
        <ele>42.435424804688</ele>
        <time>2008-10-05T06:52:17Z</time>
      </trkpt>
      <trkpt lat="50.42657" lon="3.45378">
        <ele>41.954711914062</ele>
        <time>2008-10-05T06:52:24Z</time>
      </trkpt>
      <trkpt lat="50.42638" lon="3.45422">
        <ele>40.993408203125</ele>
        <time>2008-10-05T06:52:30Z</time>
      </trkpt>
      <trkpt lat="50.42626" lon="3.45458">
        <ele>41.473999023438</ele>
        <time>2008-10-05T06:52:36Z</time>
      </trkpt>
      <trkpt lat="50.42617" lon="3.45482">
        <ele>40.993408203125</ele>
        <time>2008-10-05T06:52:41Z</time>
      </trkpt>
      <trkpt lat="50.42604" lon="3.45509">
        <ele>40.032104492188</ele>
        <time>2008-10-05T06:52:46Z</time>
      </trkpt>
      <trkpt lat="50.42596" lon="3.45532">
        <ele>39.070678710938</ele>
        <time>2008-10-05T06:52:51Z</time>
      </trkpt>
      <trkpt lat="50.42586" lon="3.45556">
        <ele>40.032104492188</ele>
        <time>2008-10-05T06:52:55Z</time>
      </trkpt>
      <trkpt lat="50.42581" lon="3.45566">
        <ele>40.032104492188</ele>
        <time>2008-10-05T06:52:57Z</time>
      </trkpt>
      <trkpt lat="50.42563" lon="3.4559">
        <ele>39.55126953125</ele>
        <time>2008-10-05T06:53:02Z</time>
      </trkpt>
      <trkpt lat="50.42557" lon="3.45602">
        <ele>39.070678710938</ele>
        <time>2008-10-05T06:53:04Z</time>
      </trkpt>
      <trkpt lat="50.42548" lon="3.45632">
        <ele>38.109375</ele>
        <time>2008-10-05T06:53:10Z</time>
      </trkpt>
      <trkpt lat="50.4254" lon="3.45644">
        <ele>37.628662109375</ele>
        <time>2008-10-05T06:53:14Z</time>
      </trkpt>
      <trkpt lat="50.42536" lon="3.45666">
        <ele>40.032104492188</ele>
        <time>2008-10-05T06:53:19Z</time>
      </trkpt>
      <trkpt lat="50.42522" lon="3.45698">
        <ele>41.954711914062</ele>
        <time>2008-10-05T06:53:26Z</time>
      </trkpt>
      <trkpt lat="50.42512" lon="3.45726">
        <ele>46.280639648438</ele>
        <time>2008-10-05T06:53:33Z</time>
      </trkpt>
      <trkpt lat="50.42505" lon="3.45742">
        <ele>46.76123046875</ele>
        <time>2008-10-05T06:53:38Z</time>
      </trkpt>
      <trkpt lat="50.42494" lon="3.45766">
        <ele>46.76123046875</ele>
        <time>2008-10-05T06:53:44Z</time>
      </trkpt>
      <trkpt lat="50.42485" lon="3.45787">
        <ele>47.241821289062</ele>
        <time>2008-10-05T06:53:50Z</time>
      </trkpt>
      <trkpt lat="50.42476" lon="3.45799">
        <ele>44.838623046875</ele>
        <time>2008-10-05T06:53:54Z</time>
      </trkpt>
      <trkpt lat="50.42468" lon="3.45813">
        <ele>43.877319335938</ele>
        <time>2008-10-05T06:53:58Z</time>
      </trkpt>
      <trkpt lat="50.42462" lon="3.45835">
        <ele>46.76123046875</ele>
        <time>2008-10-05T06:54:04Z</time>
      </trkpt>
      <trkpt lat="50.42458" lon="3.45849">
        <ele>47.241821289062</ele>
        <time>2008-10-05T06:54:09Z</time>
      </trkpt>
      <trkpt lat="50.4246" lon="3.45867">
        <ele>47.241821289062</ele>
        <time>2008-10-05T06:54:15Z</time>
      </trkpt>
      <trkpt lat="50.42482" lon="3.45893">
        <ele>43.396606445312</ele>
        <time>2008-10-05T06:54:22Z</time>
      </trkpt>
      <trkpt lat="50.42486" lon="3.45897">
        <ele>41.473999023438</ele>
        <time>2008-10-05T06:54:23Z</time>
      </trkpt>
      <trkpt lat="50.42508" lon="3.45919">
        <ele>38.109375</ele>
        <time>2008-10-05T06:54:29Z</time>
      </trkpt>
      <trkpt lat="50.42518" lon="3.45932">
        <ele>35.7060546875</ele>
        <time>2008-10-05T06:54:32Z</time>
      </trkpt>
      <trkpt lat="50.42538" lon="3.45956">
        <ele>32.341552734375</ele>
        <time>2008-10-05T06:54:38Z</time>
      </trkpt>
      <trkpt lat="50.42552" lon="3.45973">
        <ele>30.418823242188</ele>
        <time>2008-10-05T06:54:43Z</time>
      </trkpt>
      <trkpt lat="50.42565" lon="3.45983">
        <ele>27.534912109375</ele>
        <time>2008-10-05T06:54:48Z</time>
      </trkpt>
      <trkpt lat="50.42575" lon="3.45996">
        <ele>26.573608398438</ele>
        <time>2008-10-05T06:54:52Z</time>
      </trkpt>
      <trkpt lat="50.42588" lon="3.46006">
        <ele>26.092895507812</ele>
        <time>2008-10-05T06:54:56Z</time>
      </trkpt>
      <trkpt lat="50.426" lon="3.46017">
        <ele>25.6123046875</ele>
        <time>2008-10-05T06:55:00Z</time>
      </trkpt>
      <trkpt lat="50.42606" lon="3.46032">
        <ele>29.45751953125</ele>
        <time>2008-10-05T06:55:04Z</time>
      </trkpt>
      <trkpt lat="50.42604" lon="3.46039">
        <ele>30.899536132812</ele>
        <time>2008-10-05T06:55:05Z</time>
      </trkpt>
      <trkpt lat="50.42601" lon="3.46065">
        <ele>34.744873046875</ele>
        <time>2008-10-05T06:55:08Z</time>
      </trkpt>
      <trkpt lat="50.42593" lon="3.46101">
        <ele>38.590087890625</ele>
        <time>2008-10-05T06:55:12Z</time>
      </trkpt>
      <trkpt lat="50.42582" lon="3.46166">
        <ele>40.993408203125</ele>
        <time>2008-10-05T06:55:19Z</time>
      </trkpt>
      <trkpt lat="50.42575" lon="3.46216">
        <ele>39.070678710938</ele>
        <time>2008-10-05T06:55:25Z</time>
      </trkpt>
      <trkpt lat="50.42572" lon="3.46232">
        <ele>38.590087890625</ele>
        <time>2008-10-05T06:55:27Z</time>
      </trkpt>
      <trkpt lat="50.42561" lon="3.46301">
        <ele>36.186767578125</ele>
        <time>2008-10-05T06:55:35Z</time>
      </trkpt>
      <trkpt lat="50.42548" lon="3.46354">
        <ele>33.302856445312</ele>
        <time>2008-10-05T06:55:41Z</time>
      </trkpt>
      <trkpt lat="50.42546" lon="3.46363">
        <ele>33.302856445312</ele>
        <time>2008-10-05T06:55:42Z</time>
      </trkpt>
      <trkpt lat="50.42535" lon="3.46397">
        <ele>34.744873046875</ele>
        <time>2008-10-05T06:55:46Z</time>
      </trkpt>
      <trkpt lat="50.42519" lon="3.46463">
        <ele>40.993408203125</ele>
        <time>2008-10-05T06:55:53Z</time>
      </trkpt>
      <trkpt lat="50.42507" lon="3.46509">
        <ele>46.280639648438</ele>
        <time>2008-10-05T06:55:58Z</time>
      </trkpt>
      <trkpt lat="50.42494" lon="3.46563">
        <ele>48.683959960938</ele>
        <time>2008-10-05T06:56:04Z</time>
      </trkpt>
      <trkpt lat="50.42492" lon="3.46572">
        <ele>49.645263671875</ele>
        <time>2008-10-05T06:56:05Z</time>
      </trkpt>
      <trkpt lat="50.42487" lon="3.46602">
        <ele>49.645263671875</ele>
        <time>2008-10-05T06:56:08Z</time>
      </trkpt>
      <trkpt lat="50.42485" lon="3.46633">
        <ele>51.087158203125</ele>
        <time>2008-10-05T06:56:11Z</time>
      </trkpt>
      <trkpt lat="50.4247" lon="3.46693">
        <ele>47.722534179688</ele>
        <time>2008-10-05T06:56:17Z</time>
      </trkpt>
      <trkpt lat="50.42456" lon="3.46751">
        <ele>47.722534179688</ele>
        <time>2008-10-05T06:56:23Z</time>
      </trkpt>
      <trkpt lat="50.42439" lon="3.46827">
        <ele>45.319213867188</ele>
        <time>2008-10-05T06:56:31Z</time>
      </trkpt>
      <trkpt lat="50.42424" lon="3.46886">
        <ele>44.358032226562</ele>
        <time>2008-10-05T06:56:38Z</time>
      </trkpt>
      <trkpt lat="50.42422" lon="3.46894">
        <ele>44.358032226562</ele>
        <time>2008-10-05T06:56:39Z</time>
      </trkpt>
      <trkpt lat="50.42413" lon="3.46938">
        <ele>41.954711914062</ele>
        <time>2008-10-05T06:56:46Z</time>
      </trkpt>
      <trkpt lat="50.42406" lon="3.46959">
        <ele>40.032104492188</ele>
        <time>2008-10-05T06:56:51Z</time>
      </trkpt>
      <trkpt lat="50.42402" lon="3.46974">
        <ele>39.55126953125</ele>
        <time>2008-10-05T06:56:55Z</time>
      </trkpt>
      <trkpt lat="50.42402" lon="3.4699">
        <ele>40.032104492188</ele>
        <time>2008-10-05T06:56:59Z</time>
      </trkpt>
      <trkpt lat="50.424" lon="3.47002">
        <ele>40.032104492188</ele>
        <time>2008-10-05T06:57:01Z</time>
      </trkpt>
      <trkpt lat="50.42406" lon="3.47021">
        <ele>37.148071289062</ele>
        <time>2008-10-05T06:57:05Z</time>
      </trkpt>
      <trkpt lat="50.42423" lon="3.47026">
        <ele>32.822265625</ele>
        <time>2008-10-05T06:57:09Z</time>
      </trkpt>
      <trkpt lat="50.42442" lon="3.47024">
        <ele>29.45751953125</ele>
        <time>2008-10-05T06:57:12Z</time>
      </trkpt>
      <trkpt lat="50.42481" lon="3.47024">
        <ele>24.651000976562</ele>
        <time>2008-10-05T06:57:18Z</time>
      </trkpt>
      <trkpt lat="50.42512" lon="3.47025">
        <ele>21.766967773438</ele>
        <time>2008-10-05T06:57:23Z</time>
      </trkpt>
      <trkpt lat="50.42533" lon="3.47036">
        <ele>21.286376953125</ele>
        <time>2008-10-05T06:57:27Z</time>
      </trkpt>
      <trkpt lat="50.42568" lon="3.47064">
        <ele>22.24755859375</ele>
        <time>2008-10-05T06:57:33Z</time>
      </trkpt>
      <trkpt lat="50.4258" lon="3.47065">
        <ele>21.766967773438</ele>
        <time>2008-10-05T06:57:35Z</time>
      </trkpt>
      <trkpt lat="50.4261" lon="3.47073">
        <ele>21.766967773438</ele>
        <time>2008-10-05T06:57:40Z</time>
      </trkpt>
      <trkpt lat="50.42628" lon="3.47099">
        <ele>27.054321289062</ele>
        <time>2008-10-05T06:57:45Z</time>
      </trkpt>
      <trkpt lat="50.42638" lon="3.47134">
        <ele>29.938110351562</ele>
        <time>2008-10-05T06:57:49Z</time>
      </trkpt>
      <trkpt lat="50.42652" lon="3.47152">
        <ele>30.418823242188</ele>
        <time>2008-10-05T06:57:52Z</time>
      </trkpt>
      <trkpt lat="50.42662" lon="3.4716">
        <ele>29.938110351562</ele>
        <time>2008-10-05T06:57:54Z</time>
      </trkpt>
      <trkpt lat="50.42677" lon="3.47166">
        <ele>29.938110351562</ele>
        <time>2008-10-05T06:57:57Z</time>
      </trkpt>
      <trkpt lat="50.42692" lon="3.4716">
        <ele>31.860717773438</ele>
        <time>2008-10-05T06:58:00Z</time>
      </trkpt>
      <trkpt lat="50.42718" lon="3.47148">
        <ele>30.899536132812</ele>
        <time>2008-10-05T06:58:04Z</time>
      </trkpt>
      <trkpt lat="50.4273" lon="3.47138">
        <ele>29.938110351562</ele>
        <time>2008-10-05T06:58:06Z</time>
      </trkpt>
      <trkpt lat="50.42739" lon="3.47125">
        <ele>28.496215820312</ele>
        <time>2008-10-05T06:58:08Z</time>
      </trkpt>
      <trkpt lat="50.42764" lon="3.47104">
        <ele>28.015502929688</ele>
        <time>2008-10-05T06:58:13Z</time>
      </trkpt>
      <trkpt lat="50.42775" lon="3.47104">
        <ele>27.534912109375</ele>
        <time>2008-10-05T06:58:15Z</time>
      </trkpt>
      <trkpt lat="50.42811" lon="3.4712">
        <ele>26.092895507812</ele>
        <time>2008-10-05T06:58:21Z</time>
      </trkpt>
      <trkpt lat="50.42831" lon="3.47127">
        <ele>25.6123046875</ele>
        <time>2008-10-05T06:58:24Z</time>
      </trkpt>
      <trkpt lat="50.42844" lon="3.4713">
        <ele>24.651000976562</ele>
        <time>2008-10-05T06:58:26Z</time>
      </trkpt>
      <trkpt lat="50.42878" lon="3.47143">
        <ele>24.170288085938</ele>
        <time>2008-10-05T06:58:32Z</time>
      </trkpt>
      <trkpt lat="50.42902" lon="3.47146">
        <ele>23.208984375</ele>
        <time>2008-10-05T06:58:36Z</time>
      </trkpt>
      <trkpt lat="50.42913" lon="3.47147">
        <ele>23.208984375</ele>
        <time>2008-10-05T06:58:38Z</time>
      </trkpt>
      <trkpt lat="50.42931" lon="3.47152">
        <ele>24.170288085938</ele>
        <time>2008-10-05T06:58:41Z</time>
      </trkpt>
      <trkpt lat="50.42957" lon="3.47176">
        <ele>24.651000976562</ele>
        <time>2008-10-05T06:58:46Z</time>
      </trkpt>
      <trkpt lat="50.42974" lon="3.47191">
        <ele>26.092895507812</ele>
        <time>2008-10-05T06:58:49Z</time>
      </trkpt>
      <trkpt lat="50.43002" lon="3.47219">
        <ele>26.573608398438</ele>
        <time>2008-10-05T06:58:54Z</time>
      </trkpt>
      <trkpt lat="50.43036" lon="3.47252">
        <ele>27.534912109375</ele>
        <time>2008-10-05T06:59:00Z</time>
      </trkpt>
      <trkpt lat="50.43047" lon="3.47264">
        <ele>27.054321289062</ele>
        <time>2008-10-05T06:59:02Z</time>
      </trkpt>
      <trkpt lat="50.43072" lon="3.47311">
        <ele>29.938110351562</ele>
        <time>2008-10-05T06:59:08Z</time>
      </trkpt>
      <trkpt lat="50.43078" lon="3.47328">
        <ele>30.418823242188</ele>
        <time>2008-10-05T06:59:10Z</time>
      </trkpt>
      <trkpt lat="50.43081" lon="3.47342">
        <ele>31.860717773438</ele>
        <time>2008-10-05T06:59:12Z</time>
      </trkpt>
      <trkpt lat="50.43085" lon="3.47372">
        <ele>35.225463867188</ele>
        <time>2008-10-05T06:59:15Z</time>
      </trkpt>
      <trkpt lat="50.4309" lon="3.47406">
        <ele>34.744873046875</ele>
        <time>2008-10-05T06:59:19Z</time>
      </trkpt>
      <trkpt lat="50.43095" lon="3.47426">
        <ele>37.628662109375</ele>
        <time>2008-10-05T06:59:21Z</time>
      </trkpt>
      <trkpt lat="50.43096" lon="3.47468">
        <ele>40.993408203125</ele>
        <time>2008-10-05T06:59:25Z</time>
      </trkpt>
      <trkpt lat="50.43104" lon="3.47503">
        <ele>42.916015625</ele>
        <time>2008-10-05T06:59:28Z</time>
      </trkpt>
      <trkpt lat="50.43092" lon="3.47542">
        <ele>42.916015625</ele>
        <time>2008-10-05T06:59:32Z</time>
      </trkpt>
      <trkpt lat="50.43074" lon="3.47555">
        <ele>41.954711914062</ele>
        <time>2008-10-05T06:59:34Z</time>
      </trkpt>
      <trkpt lat="50.43061" lon="3.47572">
        <ele>42.435424804688</ele>
        <time>2008-10-05T06:59:36Z</time>
      </trkpt>
      <trkpt lat="50.4304" lon="3.47619">
        <ele>41.473999023438</ele>
        <time>2008-10-05T06:59:41Z</time>
      </trkpt>
      <trkpt lat="50.43038" lon="3.47626">
        <ele>40.512817382812</ele>
        <time>2008-10-05T06:59:42Z</time>
      </trkpt>
      <trkpt lat="50.43021" lon="3.47646">
        <ele>39.55126953125</ele>
        <time>2008-10-05T06:59:47Z</time>
      </trkpt>
      <trkpt lat="50.43017" lon="3.47648">
        <ele>39.070678710938</ele>
        <time>2008-10-05T06:59:48Z</time>
      </trkpt>
      <trkpt lat="50.42996" lon="3.47673">
        <ele>38.109375</ele>
        <time>2008-10-05T06:59:52Z</time>
      </trkpt>
      <trkpt lat="50.42989" lon="3.47713">
        <ele>38.109375</ele>
        <time>2008-10-05T06:59:57Z</time>
      </trkpt>
      <trkpt lat="50.43001" lon="3.47739">
        <ele>34.744873046875</ele>
        <time>2008-10-05T07:00:01Z</time>
      </trkpt>
      <trkpt lat="50.43015" lon="3.4774">
        <ele>30.418823242188</ele>
        <time>2008-10-05T07:00:04Z</time>
      </trkpt>
      <trkpt lat="50.43024" lon="3.47735">
        <ele>28.496215820312</ele>
        <time>2008-10-05T07:00:06Z</time>
      </trkpt>
      <trkpt lat="50.43042" lon="3.47742">
        <ele>27.054321289062</ele>
        <time>2008-10-05T07:00:10Z</time>
      </trkpt>
      <trkpt lat="50.43059" lon="3.47756">
        <ele>26.092895507812</ele>
        <time>2008-10-05T07:00:13Z</time>
      </trkpt>
      <trkpt lat="50.43081" lon="3.47777">
        <ele>26.092895507812</ele>
        <time>2008-10-05T07:00:17Z</time>
      </trkpt>
      <trkpt lat="50.43097" lon="3.47794">
        <ele>26.092895507812</ele>
        <time>2008-10-05T07:00:20Z</time>
      </trkpt>
      <trkpt lat="50.43113" lon="3.47816">
        <ele>27.054321289062</ele>
        <time>2008-10-05T07:00:23Z</time>
      </trkpt>
      <trkpt lat="50.43135" lon="3.47833">
        <ele>27.054321289062</ele>
        <time>2008-10-05T07:00:27Z</time>
      </trkpt>
      <trkpt lat="50.43155" lon="3.47852">
        <ele>28.015502929688</ele>
        <time>2008-10-05T07:00:31Z</time>
      </trkpt>
      <trkpt lat="50.43172" lon="3.47864">
        <ele>28.015502929688</ele>
        <time>2008-10-05T07:00:34Z</time>
      </trkpt>
      <trkpt lat="50.43197" lon="3.47884">
        <ele>25.6123046875</ele>
        <time>2008-10-05T07:00:39Z</time>
      </trkpt>
      <trkpt lat="50.43208" lon="3.47911">
        <ele>25.131713867188</ele>
        <time>2008-10-05T07:00:42Z</time>
      </trkpt>
      <trkpt lat="50.43223" lon="3.47965">
        <ele>31.380126953125</ele>
        <time>2008-10-05T07:00:47Z</time>
      </trkpt>
      <trkpt lat="50.43225" lon="3.47973">
        <ele>31.860717773438</ele>
        <time>2008-10-05T07:00:48Z</time>
      </trkpt>
      <trkpt lat="50.43239" lon="3.4802">
        <ele>34.26416015625</ele>
        <time>2008-10-05T07:00:53Z</time>
      </trkpt>
      <trkpt lat="50.43236" lon="3.48058">
        <ele>29.938110351562</ele>
        <time>2008-10-05T07:00:57Z</time>
      </trkpt>
      <trkpt lat="50.4324" lon="3.48093">
        <ele>30.418823242188</ele>
        <time>2008-10-05T07:01:01Z</time>
      </trkpt>
      <trkpt lat="50.43244" lon="3.48106">
        <ele>30.899536132812</ele>
        <time>2008-10-05T07:01:03Z</time>
      </trkpt>
      <trkpt lat="50.43259" lon="3.48141">
        <ele>27.534912109375</ele>
        <time>2008-10-05T07:01:08Z</time>
      </trkpt>
      <trkpt lat="50.43262" lon="3.48147">
        <ele>27.534912109375</ele>
        <time>2008-10-05T07:01:09Z</time>
      </trkpt>
      <trkpt lat="50.4327" lon="3.48177">
        <ele>26.573608398438</ele>
        <time>2008-10-05T07:01:13Z</time>
      </trkpt>
      <trkpt lat="50.4328" lon="3.48231">
        <ele>25.131713867188</ele>
        <time>2008-10-05T07:01:19Z</time>
      </trkpt>
      <trkpt lat="50.43287" lon="3.48267">
        <ele>25.131713867188</ele>
        <time>2008-10-05T07:01:23Z</time>
      </trkpt>
      <trkpt lat="50.43293" lon="3.48293">
        <ele>26.092895507812</ele>
        <time>2008-10-05T07:01:26Z</time>
      </trkpt>
      <trkpt lat="50.43314" lon="3.4837">
        <ele>28.496215820312</ele>
        <time>2008-10-05T07:01:34Z</time>
      </trkpt>
      <trkpt lat="50.43325" lon="3.48421">
        <ele>29.938110351562</ele>
        <time>2008-10-05T07:01:39Z</time>
      </trkpt>
      <trkpt lat="50.43332" lon="3.48455">
        <ele>29.938110351562</ele>
        <time>2008-10-05T07:01:43Z</time>
      </trkpt>
      <trkpt lat="50.43349" lon="3.48513">
        <ele>28.976928710938</ele>
        <time>2008-10-05T07:01:49Z</time>
      </trkpt>
      <trkpt lat="50.43351" lon="3.48531">
        <ele>28.496215820312</ele>
        <time>2008-10-05T07:01:51Z</time>
      </trkpt>
      <trkpt lat="50.43369" lon="3.486">
        <ele>27.534912109375</ele>
        <time>2008-10-05T07:01:58Z</time>
      </trkpt>
      <trkpt lat="50.43385" lon="3.48669">
        <ele>26.092895507812</ele>
        <time>2008-10-05T07:02:05Z</time>
      </trkpt>
      <trkpt lat="50.43398" lon="3.48719">
        <ele>27.054321289062</ele>
        <time>2008-10-05T07:02:10Z</time>
      </trkpt>
      <trkpt lat="50.43401" lon="3.48729">
        <ele>26.573608398438</ele>
        <time>2008-10-05T07:02:11Z</time>
      </trkpt>
      <trkpt lat="50.43413" lon="3.48768">
        <ele>28.976928710938</ele>
        <time>2008-10-05T07:02:15Z</time>
      </trkpt>
      <trkpt lat="50.43427" lon="3.48824">
        <ele>30.418823242188</ele>
        <time>2008-10-05T07:02:21Z</time>
      </trkpt>
      <trkpt lat="50.43431" lon="3.48842">
        <ele>29.45751953125</ele>
        <time>2008-10-05T07:02:23Z</time>
      </trkpt>
      <trkpt lat="50.43446" lon="3.48898">
        <ele>29.45751953125</ele>
        <time>2008-10-05T07:02:29Z</time>
      </trkpt>
      <trkpt lat="50.43447" lon="3.48906">
        <ele>29.45751953125</ele>
        <time>2008-10-05T07:02:30Z</time>
      </trkpt>
      <trkpt lat="50.43449" lon="3.48924">
        <ele>28.976928710938</ele>
        <time>2008-10-05T07:02:32Z</time>
      </trkpt>
      <trkpt lat="50.43452" lon="3.48943">
        <ele>28.496215820312</ele>
        <time>2008-10-05T07:02:34Z</time>
      </trkpt>
      <trkpt lat="50.4347" lon="3.49027">
        <ele>25.131713867188</ele>
        <time>2008-10-05T07:02:43Z</time>
      </trkpt>
      <trkpt lat="50.43489" lon="3.491">
        <ele>23.208984375</ele>
        <time>2008-10-05T07:02:51Z</time>
      </trkpt>
      <trkpt lat="50.43508" lon="3.49184">
        <ele>21.286376953125</ele>
        <time>2008-10-05T07:03:00Z</time>
      </trkpt>
      <trkpt lat="50.43524" lon="3.49251">
        <ele>20.324951171875</ele>
        <time>2008-10-05T07:03:07Z</time>
      </trkpt>
      <trkpt lat="50.43541" lon="3.49316">
        <ele>22.728271484375</ele>
        <time>2008-10-05T07:03:14Z</time>
      </trkpt>
      <trkpt lat="50.43555" lon="3.49371">
        <ele>24.170288085938</ele>
        <time>2008-10-05T07:03:20Z</time>
      </trkpt>
      <trkpt lat="50.43567" lon="3.49427">
        <ele>25.6123046875</ele>
        <time>2008-10-05T07:03:26Z</time>
      </trkpt>
      <trkpt lat="50.43583" lon="3.49486">
        <ele>26.573608398438</ele>
        <time>2008-10-05T07:03:32Z</time>
      </trkpt>
      <trkpt lat="50.43586" lon="3.49495">
        <ele>27.054321289062</ele>
        <time>2008-10-05T07:03:33Z</time>
      </trkpt>
      <trkpt lat="50.43603" lon="3.49573">
        <ele>28.496215820312</ele>
        <time>2008-10-05T07:03:41Z</time>
      </trkpt>
      <trkpt lat="50.43615" lon="3.49626">
        <ele>28.496215820312</ele>
        <time>2008-10-05T07:03:47Z</time>
      </trkpt>
      <trkpt lat="50.43629" lon="3.49667">
        <ele>31.860717773438</ele>
        <time>2008-10-05T07:03:52Z</time>
      </trkpt>
      <trkpt lat="50.43639" lon="3.49712">
        <ele>30.899536132812</ele>
        <time>2008-10-05T07:03:57Z</time>
      </trkpt>
      <trkpt lat="50.43653" lon="3.49778">
        <ele>31.380126953125</ele>
        <time>2008-10-05T07:04:04Z</time>
      </trkpt>
      <trkpt lat="50.4366" lon="3.49806">
        <ele>32.822265625</ele>
        <time>2008-10-05T07:04:07Z</time>
      </trkpt>
      <trkpt lat="50.43668" lon="3.49843">
        <ele>34.26416015625</ele>
        <time>2008-10-05T07:04:11Z</time>
      </trkpt>
      <trkpt lat="50.43682" lon="3.49898">
        <ele>35.225463867188</ele>
        <time>2008-10-05T07:04:17Z</time>
      </trkpt>
      <trkpt lat="50.43684" lon="3.49907">
        <ele>35.7060546875</ele>
        <time>2008-10-05T07:04:18Z</time>
      </trkpt>
      <trkpt lat="50.43694" lon="3.49959">
        <ele>36.66748046875</ele>
        <time>2008-10-05T07:04:24Z</time>
      </trkpt>
      <trkpt lat="50.43709" lon="3.50023">
        <ele>37.628662109375</ele>
        <time>2008-10-05T07:04:31Z</time>
      </trkpt>
      <trkpt lat="50.43715" lon="3.5005">
        <ele>37.628662109375</ele>
        <time>2008-10-05T07:04:34Z</time>
      </trkpt>
      <trkpt lat="50.43719" lon="3.50069">
        <ele>36.66748046875</ele>
        <time>2008-10-05T07:04:36Z</time>
      </trkpt>
      <trkpt lat="50.43727" lon="3.50106">
        <ele>34.26416015625</ele>
        <time>2008-10-05T07:04:40Z</time>
      </trkpt>
      <trkpt lat="50.43741" lon="3.50163">
        <ele>32.822265625</ele>
        <time>2008-10-05T07:04:46Z</time>
      </trkpt>
      <trkpt lat="50.43747" lon="3.502">
        <ele>30.899536132812</ele>
        <time>2008-10-05T07:04:50Z</time>
      </trkpt>
      <trkpt lat="50.43751" lon="3.50227">
        <ele>30.899536132812</ele>
        <time>2008-10-05T07:04:53Z</time>
      </trkpt>
      <trkpt lat="50.43767" lon="3.50294">
        <ele>28.496215820312</ele>
        <time>2008-10-05T07:05:00Z</time>
      </trkpt>
      <trkpt lat="50.43774" lon="3.50321">
        <ele>28.015502929688</ele>
        <time>2008-10-05T07:05:03Z</time>
      </trkpt>
      <trkpt lat="50.43788" lon="3.50376">
        <ele>28.976928710938</ele>
        <time>2008-10-05T07:05:09Z</time>
      </trkpt>
      <trkpt lat="50.43791" lon="3.50385">
        <ele>29.45751953125</ele>
        <time>2008-10-05T07:05:10Z</time>
      </trkpt>
      <trkpt lat="50.43801" lon="3.50414">
        <ele>29.45751953125</ele>
        <time>2008-10-05T07:05:14Z</time>
      </trkpt>
      <trkpt lat="50.43797" lon="3.5043">
        <ele>29.45751953125</ele>
        <time>2008-10-05T07:05:17Z</time>
      </trkpt>
      <trkpt lat="50.43788" lon="3.50427">
        <ele>29.938110351562</ele>
        <time>2008-10-05T07:05:20Z</time>
      </trkpt>
      <trkpt lat="50.43781" lon="3.50422">
        <ele>29.45751953125</ele>
        <time>2008-10-05T07:05:22Z</time>
      </trkpt>
      <trkpt lat="50.43755" lon="3.5041">
        <ele>28.496215820312</ele>
        <time>2008-10-05T07:05:27Z</time>
      </trkpt>
      <trkpt lat="50.43727" lon="3.50408">
        <ele>29.45751953125</ele>
        <time>2008-10-05T07:05:32Z</time>
      </trkpt>
      <trkpt lat="50.43711" lon="3.50424">
        <ele>30.418823242188</ele>
        <time>2008-10-05T07:05:35Z</time>
      </trkpt>
      <trkpt lat="50.43695" lon="3.50438">
        <ele>31.860717773438</ele>
        <time>2008-10-05T07:05:38Z</time>
      </trkpt>
      <trkpt lat="50.43663" lon="3.50471">
        <ele>32.822265625</ele>
        <time>2008-10-05T07:05:44Z</time>
      </trkpt>
      <trkpt lat="50.43642" lon="3.50509">
        <ele>32.341552734375</ele>
        <time>2008-10-05T07:05:49Z</time>
      </trkpt>
      <trkpt lat="50.43633" lon="3.50535">
        <ele>32.822265625</ele>
        <time>2008-10-05T07:05:52Z</time>
      </trkpt>
      <trkpt lat="50.43623" lon="3.5057">
        <ele>37.148071289062</ele>
        <time>2008-10-05T07:05:56Z</time>
      </trkpt>
      <trkpt lat="50.43605" lon="3.50605">
        <ele>38.590087890625</ele>
        <time>2008-10-05T07:06:01Z</time>
      </trkpt>
      <trkpt lat="50.43608" lon="3.50627">
        <ele>36.66748046875</ele>
        <time>2008-10-05T07:06:04Z</time>
      </trkpt>
      <trkpt lat="50.43623" lon="3.50639">
        <ele>34.26416015625</ele>
        <time>2008-10-05T07:06:07Z</time>
      </trkpt>
      <trkpt lat="50.43637" lon="3.50654">
        <ele>33.302856445312</ele>
        <time>2008-10-05T07:06:10Z</time>
      </trkpt>
      <trkpt lat="50.43652" lon="3.50665">
        <ele>33.302856445312</ele>
        <time>2008-10-05T07:06:13Z</time>
      </trkpt>
      <trkpt lat="50.43663" lon="3.5067">
        <ele>32.822265625</ele>
        <time>2008-10-05T07:06:15Z</time>
      </trkpt>
      <trkpt lat="50.43686" lon="3.5068">
        <ele>30.899536132812</ele>
        <time>2008-10-05T07:06:19Z</time>
      </trkpt>
      <trkpt lat="50.43703" lon="3.50705">
        <ele>30.899536132812</ele>
        <time>2008-10-05T07:06:23Z</time>
      </trkpt>
      <trkpt lat="50.43716" lon="3.50742">
        <ele>30.899536132812</ele>
        <time>2008-10-05T07:06:28Z</time>
      </trkpt>
      <trkpt lat="50.43737" lon="3.50787">
        <ele>30.899536132812</ele>
        <time>2008-10-05T07:06:34Z</time>
      </trkpt>
      <trkpt lat="50.43767" lon="3.5086">
        <ele>35.225463867188</ele>
        <time>2008-10-05T07:06:43Z</time>
      </trkpt>
      <trkpt lat="50.43778" lon="3.50894">
        <ele>36.186767578125</ele>
        <time>2008-10-05T07:06:47Z</time>
      </trkpt>
      <trkpt lat="50.43803" lon="3.50965">
        <ele>33.783447265625</ele>
        <time>2008-10-05T07:06:56Z</time>
      </trkpt>
      <trkpt lat="50.43819" lon="3.51008">
        <ele>32.341552734375</ele>
        <time>2008-10-05T07:07:02Z</time>
      </trkpt>
      <trkpt lat="50.43822" lon="3.51024">
        <ele>31.380126953125</ele>
        <time>2008-10-05T07:07:04Z</time>
      </trkpt>
      <trkpt lat="50.43822" lon="3.51041">
        <ele>31.380126953125</ele>
        <time>2008-10-05T07:07:06Z</time>
      </trkpt>
      <trkpt lat="50.43826" lon="3.51058">
        <ele>31.380126953125</ele>
        <time>2008-10-05T07:07:08Z</time>
      </trkpt>
      <trkpt lat="50.43837" lon="3.511">
        <ele>33.302856445312</ele>
        <time>2008-10-05T07:07:13Z</time>
      </trkpt>
      <trkpt lat="50.43843" lon="3.51125">
        <ele>35.225463867188</ele>
        <time>2008-10-05T07:07:16Z</time>
      </trkpt>
      <trkpt lat="50.43847" lon="3.5114">
        <ele>37.148071289062</ele>
        <time>2008-10-05T07:07:18Z</time>
      </trkpt>
      <trkpt lat="50.43856" lon="3.51172">
        <ele>39.070678710938</ele>
        <time>2008-10-05T07:07:23Z</time>
      </trkpt>
      <trkpt lat="50.43864" lon="3.51206">
        <ele>40.512817382812</ele>
        <time>2008-10-05T07:07:28Z</time>
      </trkpt>
      <trkpt lat="50.43872" lon="3.51234">
        <ele>45.319213867188</ele>
        <time>2008-10-05T07:07:33Z</time>
      </trkpt>
      <trkpt lat="50.43886" lon="3.51271">
        <ele>46.280639648438</ele>
        <time>2008-10-05T07:07:40Z</time>
      </trkpt>
      <trkpt lat="50.43894" lon="3.51287">
        <ele>48.203369140625</ele>
        <time>2008-10-05T07:07:44Z</time>
      </trkpt>
      <trkpt lat="50.43903" lon="3.51309">
        <ele>49.16455078125</ele>
        <time>2008-10-05T07:07:49Z</time>
      </trkpt>
      <trkpt lat="50.43911" lon="3.51344">
        <ele>49.645263671875</ele>
        <time>2008-10-05T07:07:55Z</time>
      </trkpt>
      <trkpt lat="50.43919" lon="3.51373">
        <ele>47.722534179688</ele>
        <time>2008-10-05T07:08:00Z</time>
      </trkpt>
      <trkpt lat="50.43924" lon="3.51397">
        <ele>47.241821289062</ele>
        <time>2008-10-05T07:08:05Z</time>
      </trkpt>
      <trkpt lat="50.43932" lon="3.51429">
        <ele>44.838623046875</ele>
        <time>2008-10-05T07:08:09Z</time>
      </trkpt>
      <trkpt lat="50.4395" lon="3.51468">
        <ele>37.628662109375</ele>
        <time>2008-10-05T07:08:14Z</time>
      </trkpt>
      <trkpt lat="50.43953" lon="3.51475">
        <ele>37.628662109375</ele>
        <time>2008-10-05T07:08:15Z</time>
      </trkpt>
      <trkpt lat="50.43965" lon="3.51495">
        <ele>40.512817382812</ele>
        <time>2008-10-05T07:08:19Z</time>
      </trkpt>
      <trkpt lat="50.43979" lon="3.51536">
        <ele>48.683959960938</ele>
        <time>2008-10-05T07:08:25Z</time>
      </trkpt>
      <trkpt lat="50.43981" lon="3.51543">
        <ele>49.645263671875</ele>
        <time>2008-10-05T07:08:26Z</time>
      </trkpt>
      <trkpt lat="50.4399" lon="3.51583">
        <ele>52.048583984375</ele>
        <time>2008-10-05T07:08:32Z</time>
      </trkpt>
      <trkpt lat="50.43988" lon="3.5161">
        <ele>54.451782226562</ele>
        <time>2008-10-05T07:08:37Z</time>
      </trkpt>
      <trkpt lat="50.43988" lon="3.51637">
        <ele>55.893798828125</ele>
        <time>2008-10-05T07:08:41Z</time>
      </trkpt>
      <trkpt lat="50.43998" lon="3.51678">
        <ele>54.451782226562</ele>
        <time>2008-10-05T07:08:47Z</time>
      </trkpt>
      <trkpt lat="50.44005" lon="3.51708">
        <ele>55.4130859375</ele>
        <time>2008-10-05T07:08:52Z</time>
      </trkpt>
      <trkpt lat="50.44011" lon="3.51728">
        <ele>56.37451171875</ele>
        <time>2008-10-05T07:08:55Z</time>
      </trkpt>
      <trkpt lat="50.4402" lon="3.51753">
        <ele>57.335815429688</ele>
        <time>2008-10-05T07:08:59Z</time>
      </trkpt>
      <trkpt lat="50.44033" lon="3.51788">
        <ele>54.932373046875</ele>
        <time>2008-10-05T07:09:04Z</time>
      </trkpt>
      <trkpt lat="50.44037" lon="3.51803">
        <ele>53.009765625</ele>
        <time>2008-10-05T07:09:06Z</time>
      </trkpt>
      <trkpt lat="50.44044" lon="3.5185">
        <ele>50.1259765625</ele>
        <time>2008-10-05T07:09:12Z</time>
      </trkpt>
      <trkpt lat="50.44046" lon="3.51878">
        <ele>47.722534179688</ele>
        <time>2008-10-05T07:09:16Z</time>
      </trkpt>
      <trkpt lat="50.4405" lon="3.51915">
        <ele>48.683959960938</ele>
        <time>2008-10-05T07:09:21Z</time>
      </trkpt>
      <trkpt lat="50.44051" lon="3.51921">
        <ele>49.16455078125</ele>
        <time>2008-10-05T07:09:22Z</time>
      </trkpt>
      <trkpt lat="50.44059" lon="3.51949">
        <ele>49.645263671875</ele>
        <time>2008-10-05T07:09:26Z</time>
      </trkpt>
      <trkpt lat="50.44069" lon="3.51992">
        <ele>48.683959960938</ele>
        <time>2008-10-05T07:09:32Z</time>
      </trkpt>
      <trkpt lat="50.44073" lon="3.52012">
        <ele>50.606567382812</ele>
        <time>2008-10-05T07:09:35Z</time>
      </trkpt>
      <trkpt lat="50.44081" lon="3.52045">
        <ele>53.490478515625</ele>
        <time>2008-10-05T07:09:40Z</time>
      </trkpt>
      <trkpt lat="50.44089" lon="3.52071">
        <ele>53.490478515625</ele>
        <time>2008-10-05T07:09:44Z</time>
      </trkpt>
      <trkpt lat="50.44104" lon="3.52106">
        <ele>57.816528320312</ele>
        <time>2008-10-05T07:09:50Z</time>
      </trkpt>
      <trkpt lat="50.44106" lon="3.52111">
        <ele>57.816528320312</ele>
        <time>2008-10-05T07:09:51Z</time>
      </trkpt>
      <trkpt lat="50.44117" lon="3.52104">
        <ele>54.932373046875</ele>
        <time>2008-10-05T07:09:55Z</time>
      </trkpt>
      <trkpt lat="50.44126" lon="3.52092">
        <ele>52.048583984375</ele>
        <time>2008-10-05T07:09:57Z</time>
      </trkpt>
      <trkpt lat="50.44152" lon="3.5205">
        <ele>43.396606445312</ele>
        <time>2008-10-05T07:10:02Z</time>
      </trkpt>
      <trkpt lat="50.44187" lon="3.51999">
        <ele>34.744873046875</ele>
        <time>2008-10-05T07:10:07Z</time>
      </trkpt>
      <trkpt lat="50.44193" lon="3.51987">
        <ele>34.26416015625</ele>
        <time>2008-10-05T07:10:08Z</time>
      </trkpt>
      <trkpt lat="50.44208" lon="3.51942">
        <ele>29.938110351562</ele>
        <time>2008-10-05T07:10:12Z</time>
      </trkpt>
      <trkpt lat="50.44218" lon="3.51926">
        <ele>28.015502929688</ele>
        <time>2008-10-05T07:10:14Z</time>
      </trkpt>
      <trkpt lat="50.44231" lon="3.51912">
        <ele>26.573608398438</ele>
        <time>2008-10-05T07:10:16Z</time>
      </trkpt>
      <trkpt lat="50.44257" lon="3.51874">
        <ele>25.6123046875</ele>
        <time>2008-10-05T07:10:21Z</time>
      </trkpt>
      <trkpt lat="50.44267" lon="3.51862">
        <ele>25.6123046875</ele>
        <time>2008-10-05T07:10:23Z</time>
      </trkpt>
      <trkpt lat="50.44284" lon="3.51838">
        <ele>25.131713867188</ele>
        <time>2008-10-05T07:10:27Z</time>
      </trkpt>
      <trkpt lat="50.44293" lon="3.51827">
        <ele>25.131713867188</ele>
        <time>2008-10-05T07:10:29Z</time>
      </trkpt>
      <trkpt lat="50.44317" lon="3.51798">
        <ele>23.689575195312</ele>
        <time>2008-10-05T07:10:34Z</time>
      </trkpt>
      <trkpt lat="50.44321" lon="3.51793">
        <ele>24.170288085938</ele>
        <time>2008-10-05T07:10:35Z</time>
      </trkpt>
      <trkpt lat="50.44346" lon="3.51764">
        <ele>24.170288085938</ele>
        <time>2008-10-05T07:10:42Z</time>
      </trkpt>
      <trkpt lat="50.44349" lon="3.5176">
        <ele>24.170288085938</ele>
        <time>2008-10-05T07:10:43Z</time>
      </trkpt>
      <trkpt lat="50.44369" lon="3.51729">
        <ele>23.689575195312</ele>
        <time>2008-10-05T07:10:50Z</time>
      </trkpt>
      <trkpt lat="50.44383" lon="3.51715">
        <ele>25.131713867188</ele>
        <time>2008-10-05T07:10:55Z</time>
      </trkpt>
      <trkpt lat="50.44399" lon="3.51697">
        <ele>24.651000976562</ele>
        <time>2008-10-05T07:11:00Z</time>
      </trkpt>
      <trkpt lat="50.4441" lon="3.51679">
        <ele>25.131713867188</ele>
        <time>2008-10-05T07:11:06Z</time>
      </trkpt>
      <trkpt lat="50.44421" lon="3.51666">
        <ele>25.131713867188</ele>
        <time>2008-10-05T07:11:12Z</time>
      </trkpt>
      <trkpt lat="50.44426" lon="3.51654">
        <ele>24.651000976562</ele>
        <time>2008-10-05T07:11:16Z</time>
      </trkpt>
      <trkpt lat="50.44432" lon="3.51644">
        <ele>25.131713867188</ele>
        <time>2008-10-05T07:11:21Z</time>
      </trkpt>
      <trkpt lat="50.44438" lon="3.51637">
        <ele>27.054321289062</ele>
        <time>2008-10-05T07:11:28Z</time>
      </trkpt>
      <trkpt lat="50.4444" lon="3.5163">
        <ele>26.573608398438</ele>
        <time>2008-10-05T07:11:34Z</time>
      </trkpt>
      <trkpt lat="50.4444" lon="3.51629">
        <ele>26.573608398438</ele>
        <time>2008-10-05T07:11:37Z</time>
      </trkpt>
      <trkpt lat="50.44444" lon="3.51624">
        <ele>27.534912109375</ele>
        <time>2008-10-05T07:11:41Z</time>
      </trkpt>
      <trkpt lat="50.44449" lon="3.51614">
        <ele>26.092895507812</ele>
        <time>2008-10-05T07:11:48Z</time>
      </trkpt>
      <trkpt lat="50.44454" lon="3.51608">
        <ele>25.131713867188</ele>
        <time>2008-10-05T07:11:55Z</time>
      </trkpt>
      <trkpt lat="50.44456" lon="3.51607">
        <ele>25.131713867188</ele>
        <time>2008-10-05T07:11:58Z</time>
      </trkpt>
      <trkpt lat="50.44466" lon="3.51596">
        <ele>26.092895507812</ele>
        <time>2008-10-05T07:12:03Z</time>
      </trkpt>
      <trkpt lat="50.44477" lon="3.51584">
        <ele>28.496215820312</ele>
        <time>2008-10-05T07:12:08Z</time>
      </trkpt>
      <trkpt lat="50.44487" lon="3.51567">
        <ele>27.534912109375</ele>
        <time>2008-10-05T07:12:13Z</time>
      </trkpt>
      <trkpt lat="50.44503" lon="3.51548">
        <ele>28.976928710938</ele>
        <time>2008-10-05T07:12:19Z</time>
      </trkpt>
      <trkpt lat="50.44516" lon="3.51534">
        <ele>28.496215820312</ele>
        <time>2008-10-05T07:12:24Z</time>
      </trkpt>
      <trkpt lat="50.44526" lon="3.51519">
        <ele>26.573608398438</ele>
        <time>2008-10-05T07:12:28Z</time>
      </trkpt>
      <trkpt lat="50.44542" lon="3.51497">
        <ele>26.573608398438</ele>
        <time>2008-10-05T07:12:34Z</time>
      </trkpt>
      <trkpt lat="50.44556" lon="3.51474">
        <ele>24.170288085938</ele>
        <time>2008-10-05T07:12:40Z</time>
      </trkpt>
      <trkpt lat="50.44567" lon="3.51459">
        <ele>23.689575195312</ele>
        <time>2008-10-05T07:12:45Z</time>
      </trkpt>
      <trkpt lat="50.44577" lon="3.51442">
        <ele>25.6123046875</ele>
        <time>2008-10-05T07:12:51Z</time>
      </trkpt>
      <trkpt lat="50.44591" lon="3.51423">
        <ele>26.573608398438</ele>
        <time>2008-10-05T07:12:59Z</time>
      </trkpt>
      <trkpt lat="50.446" lon="3.5141">
        <ele>26.092895507812</ele>
        <time>2008-10-05T07:13:04Z</time>
      </trkpt>
      <trkpt lat="50.44616" lon="3.51387">
        <ele>25.131713867188</ele>
        <time>2008-10-05T07:13:11Z</time>
      </trkpt>
      <trkpt lat="50.44635" lon="3.51363">
        <ele>25.131713867188</ele>
        <time>2008-10-05T07:13:18Z</time>
      </trkpt>
      <trkpt lat="50.44651" lon="3.5134">
        <ele>27.054321289062</ele>
        <time>2008-10-05T07:13:25Z</time>
      </trkpt>
      <trkpt lat="50.44666" lon="3.51323">
        <ele>29.938110351562</ele>
        <time>2008-10-05T07:13:31Z</time>
      </trkpt>
      <trkpt lat="50.44678" lon="3.51307">
        <ele>31.860717773438</ele>
        <time>2008-10-05T07:13:37Z</time>
      </trkpt>
      <trkpt lat="50.44691" lon="3.51287">
        <ele>29.45751953125</ele>
        <time>2008-10-05T07:13:43Z</time>
      </trkpt>
      <trkpt lat="50.44704" lon="3.51268">
        <ele>24.651000976562</ele>
        <time>2008-10-05T07:13:49Z</time>
      </trkpt>
      <trkpt lat="50.44717" lon="3.51251">
        <ele>22.728271484375</ele>
        <time>2008-10-05T07:13:55Z</time>
      </trkpt>
      <trkpt lat="50.44725" lon="3.51236">
        <ele>20.8056640625</ele>
        <time>2008-10-05T07:14:00Z</time>
      </trkpt>
      <trkpt lat="50.44738" lon="3.51218">
        <ele>20.8056640625</ele>
        <time>2008-10-05T07:14:07Z</time>
      </trkpt>
      <trkpt lat="50.44753" lon="3.51197">
        <ele>17.921752929688</ele>
        <time>2008-10-05T07:14:14Z</time>
      </trkpt>
      <trkpt lat="50.44759" lon="3.51186">
        <ele>19.36376953125</ele>
        <time>2008-10-05T07:14:19Z</time>
      </trkpt>
      <trkpt lat="50.44768" lon="3.51176">
        <ele>22.728271484375</ele>
        <time>2008-10-05T07:14:24Z</time>
      </trkpt>
      <trkpt lat="50.44778" lon="3.51163">
        <ele>24.170288085938</ele>
        <time>2008-10-05T07:14:30Z</time>
      </trkpt>
      <trkpt lat="50.44784" lon="3.51155">
        <ele>24.651000976562</ele>
        <time>2008-10-05T07:14:35Z</time>
      </trkpt>
      <trkpt lat="50.44791" lon="3.51146">
        <ele>25.6123046875</ele>
        <time>2008-10-05T07:14:40Z</time>
      </trkpt>
      <trkpt lat="50.44793" lon="3.51142">
        <ele>27.054321289062</ele>
        <time>2008-10-05T07:14:43Z</time>
      </trkpt>
      <trkpt lat="50.44792" lon="3.51141">
        <ele>28.015502929688</ele>
        <time>2008-10-05T07:14:47Z</time>
      </trkpt>
      <trkpt lat="50.44802" lon="3.5113">
        <ele>29.45751953125</ele>
        <time>2008-10-05T07:14:51Z</time>
      </trkpt>
      <trkpt lat="50.44812" lon="3.5112">
        <ele>32.341552734375</ele>
        <time>2008-10-05T07:14:56Z</time>
      </trkpt>
      <trkpt lat="50.44818" lon="3.51106">
        <ele>31.860717773438</ele>
        <time>2008-10-05T07:15:01Z</time>
      </trkpt>
      <trkpt lat="50.44833" lon="3.51085">
        <ele>35.7060546875</ele>
        <time>2008-10-05T07:15:09Z</time>
      </trkpt>
      <trkpt lat="50.44834" lon="3.51082">
        <ele>35.225463867188</ele>
        <time>2008-10-05T07:15:10Z</time>
      </trkpt>
      <trkpt lat="50.44843" lon="3.51071">
        <ele>36.66748046875</ele>
        <time>2008-10-05T07:15:16Z</time>
      </trkpt>
      <trkpt lat="50.4485" lon="3.51064">
        <ele>37.148071289062</ele>
        <time>2008-10-05T07:15:20Z</time>
      </trkpt>
      <trkpt lat="50.44862" lon="3.51051">
        <ele>38.590087890625</ele>
        <time>2008-10-05T07:15:25Z</time>
      </trkpt>
      <trkpt lat="50.44871" lon="3.51039">
        <ele>38.590087890625</ele>
        <time>2008-10-05T07:15:31Z</time>
      </trkpt>
      <trkpt lat="50.44878" lon="3.51029">
        <ele>40.512817382812</ele>
        <time>2008-10-05T07:15:37Z</time>
      </trkpt>
      <trkpt lat="50.44888" lon="3.5102">
        <ele>41.473999023438</ele>
        <time>2008-10-05T07:15:41Z</time>
      </trkpt>
      <trkpt lat="50.44895" lon="3.51018">
        <ele>40.512817382812</ele>
        <time>2008-10-05T07:15:44Z</time>
      </trkpt>
      <trkpt lat="50.44906" lon="3.51029">
        <ele>36.66748046875</ele>
        <time>2008-10-05T07:15:51Z</time>
      </trkpt>
      <trkpt lat="50.44919" lon="3.51046">
        <ele>34.26416015625</ele>
        <time>2008-10-05T07:15:57Z</time>
      </trkpt>
      <trkpt lat="50.44934" lon="3.51064">
        <ele>33.302856445312</ele>
        <time>2008-10-05T07:16:04Z</time>
      </trkpt>
      <trkpt lat="50.44956" lon="3.51088">
        <ele>29.938110351562</ele>
        <time>2008-10-05T07:16:13Z</time>
      </trkpt>
      <trkpt lat="50.44976" lon="3.51111">
        <ele>28.015502929688</ele>
        <time>2008-10-05T07:16:20Z</time>
      </trkpt>
      <trkpt lat="50.45001" lon="3.51143">
        <ele>27.054321289062</ele>
        <time>2008-10-05T07:16:30Z</time>
      </trkpt>
      <trkpt lat="50.45028" lon="3.51175">
        <ele>26.092895507812</ele>
        <time>2008-10-05T07:16:39Z</time>
      </trkpt>
      <trkpt lat="50.45053" lon="3.51206">
        <ele>25.131713867188</ele>
        <time>2008-10-05T07:16:48Z</time>
      </trkpt>
      <trkpt lat="50.45076" lon="3.51233">
        <ele>24.170288085938</ele>
        <time>2008-10-05T07:16:56Z</time>
      </trkpt>
      <trkpt lat="50.45103" lon="3.51264">
        <ele>24.170288085938</ele>
        <time>2008-10-05T07:17:05Z</time>
      </trkpt>
      <trkpt lat="50.45123" lon="3.5129">
        <ele>23.689575195312</ele>
        <time>2008-10-05T07:17:12Z</time>
      </trkpt>
      <trkpt lat="50.45144" lon="3.51314">
        <ele>23.689575195312</ele>
        <time>2008-10-05T07:17:18Z</time>
      </trkpt>
      <trkpt lat="50.45171" lon="3.51346">
        <ele>23.208984375</ele>
        <time>2008-10-05T07:17:26Z</time>
      </trkpt>
      <trkpt lat="50.45204" lon="3.51383">
        <ele>23.208984375</ele>
        <time>2008-10-05T07:17:35Z</time>
      </trkpt>
      <trkpt lat="50.45222" lon="3.51403">
        <ele>23.689575195312</ele>
        <time>2008-10-05T07:17:40Z</time>
      </trkpt>
      <trkpt lat="50.45236" lon="3.51407">
        <ele>24.170288085938</ele>
        <time>2008-10-05T07:17:44Z</time>
      </trkpt>
      <trkpt lat="50.45241" lon="3.51397">
        <ele>24.170288085938</ele>
        <time>2008-10-05T07:17:46Z</time>
      </trkpt>
      <trkpt lat="50.4526" lon="3.51348">
        <ele>23.208984375</ele>
        <time>2008-10-05T07:17:55Z</time>
      </trkpt>
      <trkpt lat="50.4528" lon="3.51297">
        <ele>22.24755859375</ele>
        <time>2008-10-05T07:18:04Z</time>
      </trkpt>
      <trkpt lat="50.45287" lon="3.51279">
        <ele>21.766967773438</ele>
        <time>2008-10-05T07:18:07Z</time>
      </trkpt>
      <trkpt lat="50.45306" lon="3.51236">
        <ele>21.286376953125</ele>
        <time>2008-10-05T07:18:15Z</time>
      </trkpt>
      <trkpt lat="50.4532" lon="3.51207">
        <ele>21.286376953125</ele>
        <time>2008-10-05T07:18:21Z</time>
      </trkpt>
      <trkpt lat="50.45339" lon="3.51165">
        <ele>21.766967773438</ele>
        <time>2008-10-05T07:18:29Z</time>
      </trkpt>
      <trkpt lat="50.45356" lon="3.51124">
        <ele>22.24755859375</ele>
        <time>2008-10-05T07:18:37Z</time>
      </trkpt>
      <trkpt lat="50.45359" lon="3.5112">
        <ele>22.24755859375</ele>
        <time>2008-10-05T07:18:38Z</time>
      </trkpt>
      <trkpt lat="50.45374" lon="3.51106">
        <ele>22.24755859375</ele>
        <time>2008-10-05T07:18:43Z</time>
      </trkpt>
      <trkpt lat="50.45389" lon="3.51066">
        <ele>22.24755859375</ele>
        <time>2008-10-05T07:18:51Z</time>
      </trkpt>
      <trkpt lat="50.45411" lon="3.51019">
        <ele>21.766967773438</ele>
        <time>2008-10-05T07:19:00Z</time>
      </trkpt>
      <trkpt lat="50.45427" lon="3.50983">
        <ele>23.208984375</ele>
        <time>2008-10-05T07:19:07Z</time>
      </trkpt>
      <trkpt lat="50.4544" lon="3.50954">
        <ele>23.208984375</ele>
        <time>2008-10-05T07:19:13Z</time>
      </trkpt>
      <trkpt lat="50.45453" lon="3.50925">
        <ele>23.208984375</ele>
        <time>2008-10-05T07:19:19Z</time>
      </trkpt>
      <trkpt lat="50.45467" lon="3.50894">
        <ele>23.208984375</ele>
        <time>2008-10-05T07:19:26Z</time>
      </trkpt>
      <trkpt lat="50.45478" lon="3.50873">
        <ele>23.208984375</ele>
        <time>2008-10-05T07:19:31Z</time>
      </trkpt>
      <trkpt lat="50.4549" lon="3.50877">
        <ele>23.208984375</ele>
        <time>2008-10-05T07:19:35Z</time>
      </trkpt>
      <trkpt lat="50.45496" lon="3.50884">
        <ele>23.208984375</ele>
        <time>2008-10-05T07:19:37Z</time>
      </trkpt>
      <trkpt lat="50.45528" lon="3.5092">
        <ele>23.689575195312</ele>
        <time>2008-10-05T07:19:46Z</time>
      </trkpt>
      <trkpt lat="50.45552" lon="3.50948">
        <ele>24.170288085938</ele>
        <time>2008-10-05T07:19:53Z</time>
      </trkpt>
      <trkpt lat="50.45588" lon="3.50983">
        <ele>26.092895507812</ele>
        <time>2008-10-05T07:20:03Z</time>
      </trkpt>
      <trkpt lat="50.45628" lon="3.51016">
        <ele>28.015502929688</ele>
        <time>2008-10-05T07:20:14Z</time>
      </trkpt>
      <trkpt lat="50.45657" lon="3.51045">
        <ele>29.938110351562</ele>
        <time>2008-10-05T07:20:23Z</time>
      </trkpt>
      <trkpt lat="50.45677" lon="3.51066">
        <ele>32.341552734375</ele>
        <time>2008-10-05T07:20:30Z</time>
      </trkpt>
      <trkpt lat="50.45695" lon="3.51084">
        <ele>34.26416015625</ele>
        <time>2008-10-05T07:20:36Z</time>
      </trkpt>
      <trkpt lat="50.45704" lon="3.51106">
        <ele>34.26416015625</ele>
        <time>2008-10-05T07:20:41Z</time>
      </trkpt>
      <trkpt lat="50.45699" lon="3.51138">
        <ele>33.302856445312</ele>
        <time>2008-10-05T07:20:47Z</time>
      </trkpt>
      <trkpt lat="50.45688" lon="3.51182">
        <ele>30.418823242188</ele>
        <time>2008-10-05T07:20:54Z</time>
      </trkpt>
      <trkpt lat="50.45678" lon="3.51225">
        <ele>28.976928710938</ele>
        <time>2008-10-05T07:21:00Z</time>
      </trkpt>
      <trkpt lat="50.45666" lon="3.51278">
        <ele>28.015502929688</ele>
        <time>2008-10-05T07:21:07Z</time>
      </trkpt>
      <trkpt lat="50.4566" lon="3.51302">
        <ele>27.534912109375</ele>
        <time>2008-10-05T07:21:10Z</time>
      </trkpt>
      <trkpt lat="50.45636" lon="3.51357">
        <ele>27.534912109375</ele>
        <time>2008-10-05T07:21:18Z</time>
      </trkpt>
      <trkpt lat="50.45621" lon="3.51386">
        <ele>27.054321289062</ele>
        <time>2008-10-05T07:21:22Z</time>
      </trkpt>
      <trkpt lat="50.45612" lon="3.51408">
        <ele>27.054321289062</ele>
        <time>2008-10-05T07:21:25Z</time>
      </trkpt>
      <trkpt lat="50.45608" lon="3.51436">
        <ele>27.534912109375</ele>
        <time>2008-10-05T07:21:29Z</time>
      </trkpt>
      <trkpt lat="50.45617" lon="3.51446">
        <ele>28.015502929688</ele>
        <time>2008-10-05T07:21:32Z</time>
      </trkpt>
      <trkpt lat="50.45627" lon="3.51452">
        <ele>28.976928710938</ele>
        <time>2008-10-05T07:21:36Z</time>
      </trkpt>
      <trkpt lat="50.45663" lon="3.51483">
        <ele>31.380126953125</ele>
        <time>2008-10-05T07:21:47Z</time>
      </trkpt>
      <trkpt lat="50.45667" lon="3.51487">
        <ele>31.380126953125</ele>
        <time>2008-10-05T07:21:48Z</time>
      </trkpt>
      <trkpt lat="50.45674" lon="3.51493">
        <ele>32.341552734375</ele>
        <time>2008-10-05T07:21:50Z</time>
      </trkpt>
      <trkpt lat="50.45682" lon="3.51497">
        <ele>32.822265625</ele>
        <time>2008-10-05T07:21:52Z</time>
      </trkpt>
      <trkpt lat="50.45721" lon="3.51527">
        <ele>34.744873046875</ele>
        <time>2008-10-05T07:22:02Z</time>
      </trkpt>
      <trkpt lat="50.45746" lon="3.51551">
        <ele>35.7060546875</ele>
        <time>2008-10-05T07:22:09Z</time>
      </trkpt>
      <trkpt lat="50.45775" lon="3.5158">
        <ele>36.186767578125</ele>
        <time>2008-10-05T07:22:17Z</time>
      </trkpt>
      <trkpt lat="50.45783" lon="3.51587">
        <ele>36.186767578125</ele>
        <time>2008-10-05T07:22:19Z</time>
      </trkpt>
      <trkpt lat="50.45803" lon="3.51589">
        <ele>36.186767578125</ele>
        <time>2008-10-05T07:22:24Z</time>
      </trkpt>
      <trkpt lat="50.4581" lon="3.51582">
        <ele>36.186767578125</ele>
        <time>2008-10-05T07:22:26Z</time>
      </trkpt>
      <trkpt lat="50.45834" lon="3.51559">
        <ele>35.7060546875</ele>
        <time>2008-10-05T07:22:32Z</time>
      </trkpt>
      <trkpt lat="50.45864" lon="3.51541">
        <ele>35.225463867188</ele>
        <time>2008-10-05T07:22:39Z</time>
      </trkpt>
      <trkpt lat="50.45876" lon="3.51523">
        <ele>35.225463867188</ele>
        <time>2008-10-05T07:22:43Z</time>
      </trkpt>
      <trkpt lat="50.45879" lon="3.51504">
        <ele>35.225463867188</ele>
        <time>2008-10-05T07:22:46Z</time>
      </trkpt>
      <trkpt lat="50.45885" lon="3.51466">
        <ele>35.7060546875</ele>
        <time>2008-10-05T07:22:52Z</time>
      </trkpt>
      <trkpt lat="50.459" lon="3.5141">
        <ele>35.225463867188</ele>
        <time>2008-10-05T07:23:01Z</time>
      </trkpt>
      <trkpt lat="50.4591" lon="3.51379">
        <ele>35.225463867188</ele>
        <time>2008-10-05T07:23:07Z</time>
      </trkpt>
      <trkpt lat="50.45918" lon="3.5135">
        <ele>35.225463867188</ele>
        <time>2008-10-05T07:23:12Z</time>
      </trkpt>
      <trkpt lat="50.45938" lon="3.51292">
        <ele>34.26416015625</ele>
        <time>2008-10-05T07:23:22Z</time>
      </trkpt>
      <trkpt lat="50.45954" lon="3.51251">
        <ele>33.783447265625</ele>
        <time>2008-10-05T07:23:29Z</time>
      </trkpt>
      <trkpt lat="50.45971" lon="3.51202">
        <ele>33.302856445312</ele>
        <time>2008-10-05T07:23:37Z</time>
      </trkpt>
      <trkpt lat="50.45993" lon="3.5113">
        <ele>32.822265625</ele>
        <time>2008-10-05T07:23:48Z</time>
      </trkpt>
      <trkpt lat="50.4601" lon="3.51069">
        <ele>32.822265625</ele>
        <time>2008-10-05T07:23:57Z</time>
      </trkpt>
      <trkpt lat="50.46024" lon="3.51017">
        <ele>33.783447265625</ele>
        <time>2008-10-05T07:24:05Z</time>
      </trkpt>
      <trkpt lat="50.46029" lon="3.51005">
        <ele>33.783447265625</ele>
        <time>2008-10-05T07:24:07Z</time>
      </trkpt>
      <trkpt lat="50.46032" lon="3.50993">
        <ele>33.783447265625</ele>
        <time>2008-10-05T07:24:09Z</time>
      </trkpt>
      <trkpt lat="50.46044" lon="3.50962">
        <ele>34.26416015625</ele>
        <time>2008-10-05T07:24:15Z</time>
      </trkpt>
      <trkpt lat="50.4605" lon="3.50968">
        <ele>33.783447265625</ele>
        <time>2008-10-05T07:24:19Z</time>
      </trkpt>
      <trkpt lat="50.46051" lon="3.50973">
        <ele>33.302856445312</ele>
        <time>2008-10-05T07:24:20Z</time>
      </trkpt>
      <trkpt lat="50.46057" lon="3.51031">
        <ele>32.341552734375</ele>
        <time>2008-10-05T07:24:29Z</time>
      </trkpt>
      <trkpt lat="50.46064" lon="3.51087">
        <ele>31.380126953125</ele>
        <time>2008-10-05T07:24:37Z</time>
      </trkpt>
      <trkpt lat="50.46074" lon="3.51149">
        <ele>30.899536132812</ele>
        <time>2008-10-05T07:24:46Z</time>
      </trkpt>
      <trkpt lat="50.46077" lon="3.51162">
        <ele>30.899536132812</ele>
        <time>2008-10-05T07:24:48Z</time>
      </trkpt>
      <trkpt lat="50.46097" lon="3.51207">
        <ele>31.380126953125</ele>
        <time>2008-10-05T07:24:56Z</time>
      </trkpt>
      <trkpt lat="50.46115" lon="3.51241">
        <ele>31.380126953125</ele>
        <time>2008-10-05T07:25:03Z</time>
      </trkpt>
      <trkpt lat="50.4613" lon="3.51248">
        <ele>30.899536132812</ele>
        <time>2008-10-05T07:25:07Z</time>
      </trkpt>
      <trkpt lat="50.46148" lon="3.51222">
        <ele>30.899536132812</ele>
        <time>2008-10-05T07:25:13Z</time>
      </trkpt>
      <trkpt lat="50.46172" lon="3.51185">
        <ele>30.418823242188</ele>
        <time>2008-10-05T07:25:20Z</time>
      </trkpt>
      <trkpt lat="50.46189" lon="3.51156">
        <ele>29.938110351562</ele>
        <time>2008-10-05T07:25:25Z</time>
      </trkpt>
      <trkpt lat="50.46193" lon="3.5115">
        <ele>29.938110351562</ele>
        <time>2008-10-05T07:25:26Z</time>
      </trkpt>
      <trkpt lat="50.4622" lon="3.51108">
        <ele>29.938110351562</ele>
        <time>2008-10-05T07:25:34Z</time>
      </trkpt>
      <trkpt lat="50.46245" lon="3.51068">
        <ele>29.938110351562</ele>
        <time>2008-10-05T07:25:43Z</time>
      </trkpt>
      <trkpt lat="50.46269" lon="3.51031">
        <ele>30.418823242188</ele>
        <time>2008-10-05T07:25:51Z</time>
      </trkpt>
      <trkpt lat="50.46294" lon="3.5099">
        <ele>30.899536132812</ele>
        <time>2008-10-05T07:26:00Z</time>
      </trkpt>
      <trkpt lat="50.46313" lon="3.50952">
        <ele>30.418823242188</ele>
        <time>2008-10-05T07:26:07Z</time>
      </trkpt>
      <trkpt lat="50.46336" lon="3.50905">
        <ele>29.45751953125</ele>
        <time>2008-10-05T07:26:14Z</time>
      </trkpt>
      <trkpt lat="50.46368" lon="3.50863">
        <ele>28.496215820312</ele>
        <time>2008-10-05T07:26:21Z</time>
      </trkpt>
      <trkpt lat="50.46393" lon="3.50838">
        <ele>27.054321289062</ele>
        <time>2008-10-05T07:26:26Z</time>
      </trkpt>
      <trkpt lat="50.46428" lon="3.50809">
        <ele>25.6123046875</ele>
        <time>2008-10-05T07:26:33Z</time>
      </trkpt>
      <trkpt lat="50.46447" lon="3.50793">
        <ele>25.6123046875</ele>
        <time>2008-10-05T07:26:37Z</time>
      </trkpt>
      <trkpt lat="50.46472" lon="3.50778">
        <ele>25.131713867188</ele>
        <time>2008-10-05T07:26:42Z</time>
      </trkpt>
      <trkpt lat="50.46486" lon="3.50765">
        <ele>24.651000976562</ele>
        <time>2008-10-05T07:26:45Z</time>
      </trkpt>
      <trkpt lat="50.46513" lon="3.5073">
        <ele>24.651000976562</ele>
        <time>2008-10-05T07:26:52Z</time>
      </trkpt>
      <trkpt lat="50.46546" lon="3.5069">
        <ele>24.651000976562</ele>
        <time>2008-10-05T07:27:00Z</time>
      </trkpt>
      <trkpt lat="50.46575" lon="3.50654">
        <ele>25.131713867188</ele>
        <time>2008-10-05T07:27:08Z</time>
      </trkpt>
      <trkpt lat="50.46605" lon="3.50616">
        <ele>25.6123046875</ele>
        <time>2008-10-05T07:27:17Z</time>
      </trkpt>
      <trkpt lat="50.46623" lon="3.50594">
        <ele>25.6123046875</ele>
        <time>2008-10-05T07:27:23Z</time>
      </trkpt>
      <trkpt lat="50.46651" lon="3.5056">
        <ele>26.573608398438</ele>
        <time>2008-10-05T07:27:32Z</time>
      </trkpt>
      <trkpt lat="50.46679" lon="3.50525">
        <ele>28.015502929688</ele>
        <time>2008-10-05T07:27:41Z</time>
      </trkpt>
      <trkpt lat="50.46706" lon="3.50495">
        <ele>28.976928710938</ele>
        <time>2008-10-05T07:27:49Z</time>
      </trkpt>
      <trkpt lat="50.4673" lon="3.50465">
        <ele>29.45751953125</ele>
        <time>2008-10-05T07:27:57Z</time>
      </trkpt>
      <trkpt lat="50.46748" lon="3.50441">
        <ele>29.938110351562</ele>
        <time>2008-10-05T07:28:03Z</time>
      </trkpt>
      <trkpt lat="50.46769" lon="3.50403">
        <ele>29.45751953125</ele>
        <time>2008-10-05T07:28:11Z</time>
      </trkpt>
      <trkpt lat="50.46786" lon="3.5037">
        <ele>28.976928710938</ele>
        <time>2008-10-05T07:28:18Z</time>
      </trkpt>
      <trkpt lat="50.46794" lon="3.50353">
        <ele>27.534912109375</ele>
        <time>2008-10-05T07:28:22Z</time>
      </trkpt>
      <trkpt lat="50.46821" lon="3.50358">
        <ele>27.054321289062</ele>
        <time>2008-10-05T07:28:28Z</time>
      </trkpt>
      <trkpt lat="50.46838" lon="3.50363">
        <ele>26.573608398438</ele>
        <time>2008-10-05T07:28:31Z</time>
      </trkpt>
      <trkpt lat="50.46871" lon="3.50393">
        <ele>25.6123046875</ele>
        <time>2008-10-05T07:28:37Z</time>
      </trkpt>
      <trkpt lat="50.46911" lon="3.50442">
        <ele>25.131713867188</ele>
        <time>2008-10-05T07:28:44Z</time>
      </trkpt>
      <trkpt lat="50.46948" lon="3.50489">
        <ele>23.689575195312</ele>
        <time>2008-10-05T07:28:51Z</time>
      </trkpt>
      <trkpt lat="50.46969" lon="3.50518">
        <ele>22.728271484375</ele>
        <time>2008-10-05T07:28:57Z</time>
      </trkpt>
      <trkpt lat="50.46972" lon="3.50527">
        <ele>22.728271484375</ele>
        <time>2008-10-05T07:29:01Z</time>
      </trkpt>
      <trkpt lat="50.46971" lon="3.50536">
        <ele>22.24755859375</ele>
        <time>2008-10-05T07:29:03Z</time>
      </trkpt>
      <trkpt lat="50.46959" lon="3.50566">
        <ele>21.286376953125</ele>
        <time>2008-10-05T07:29:08Z</time>
      </trkpt>
      <trkpt lat="50.46955" lon="3.50572">
        <ele>20.8056640625</ele>
        <time>2008-10-05T07:29:09Z</time>
      </trkpt>
      <trkpt lat="50.46914" lon="3.5062">
        <ele>19.844360351562</ele>
        <time>2008-10-05T07:29:18Z</time>
      </trkpt>
      <trkpt lat="50.46872" lon="3.50664">
        <ele>19.36376953125</ele>
        <time>2008-10-05T07:29:27Z</time>
      </trkpt>
      <trkpt lat="50.46846" lon="3.50694">
        <ele>18.883056640625</ele>
        <time>2008-10-05T07:29:33Z</time>
      </trkpt>
      <trkpt lat="50.46838" lon="3.50704">
        <ele>18.883056640625</ele>
        <time>2008-10-05T07:29:35Z</time>
      </trkpt>
      <trkpt lat="50.46831" lon="3.50734">
        <ele>19.36376953125</ele>
        <time>2008-10-05T07:29:39Z</time>
      </trkpt>
      <trkpt lat="50.4684" lon="3.50755">
        <ele>19.36376953125</ele>
        <time>2008-10-05T07:29:42Z</time>
      </trkpt>
      <trkpt lat="50.46844" lon="3.50771">
        <ele>18.883056640625</ele>
        <time>2008-10-05T07:29:44Z</time>
      </trkpt>
      <trkpt lat="50.46849" lon="3.50788">
        <ele>18.883056640625</ele>
        <time>2008-10-05T07:29:46Z</time>
      </trkpt>
      <trkpt lat="50.46853" lon="3.50825">
        <ele>17.921752929688</ele>
        <time>2008-10-05T07:29:50Z</time>
      </trkpt>
      <trkpt lat="50.46852" lon="3.50855">
        <ele>17.441162109375</ele>
        <time>2008-10-05T07:29:53Z</time>
      </trkpt>
      <trkpt lat="50.46862" lon="3.50902">
        <ele>17.921752929688</ele>
        <time>2008-10-05T07:29:58Z</time>
      </trkpt>
      <trkpt lat="50.46866" lon="3.50909">
        <ele>17.921752929688</ele>
        <time>2008-10-05T07:29:59Z</time>
      </trkpt>
      <trkpt lat="50.46908" lon="3.50973">
        <ele>19.36376953125</ele>
        <time>2008-10-05T07:30:08Z</time>
      </trkpt>
      <trkpt lat="50.46954" lon="3.51036">
        <ele>20.324951171875</ele>
        <time>2008-10-05T07:30:17Z</time>
      </trkpt>
      <trkpt lat="50.46996" lon="3.51088">
        <ele>21.286376953125</ele>
        <time>2008-10-05T07:30:25Z</time>
      </trkpt>
      <trkpt lat="50.47002" lon="3.51093">
        <ele>21.286376953125</ele>
        <time>2008-10-05T07:30:26Z</time>
      </trkpt>
      <trkpt lat="50.47025" lon="3.51106">
        <ele>20.8056640625</ele>
        <time>2008-10-05T07:30:30Z</time>
      </trkpt>
      <trkpt lat="50.47043" lon="3.51096">
        <ele>20.8056640625</ele>
        <time>2008-10-05T07:30:33Z</time>
      </trkpt>
      <trkpt lat="50.47066" lon="3.5109">
        <ele>20.324951171875</ele>
        <time>2008-10-05T07:30:37Z</time>
      </trkpt>
      <trkpt lat="50.47094" lon="3.51101">
        <ele>20.324951171875</ele>
        <time>2008-10-05T07:30:42Z</time>
      </trkpt>
      <trkpt lat="50.47107" lon="3.5112">
        <ele>20.8056640625</ele>
        <time>2008-10-05T07:30:46Z</time>
      </trkpt>
      <trkpt lat="50.47106" lon="3.5114">
        <ele>19.844360351562</ele>
        <time>2008-10-05T07:30:49Z</time>
      </trkpt>
      <trkpt lat="50.471" lon="3.51167">
        <ele>19.844360351562</ele>
        <time>2008-10-05T07:30:53Z</time>
      </trkpt>
      <trkpt lat="50.47083" lon="3.51208">
        <ele>20.324951171875</ele>
        <time>2008-10-05T07:30:59Z</time>
      </trkpt>
      <trkpt lat="50.47059" lon="3.51261">
        <ele>19.844360351562</ele>
        <time>2008-10-05T07:31:07Z</time>
      </trkpt>
      <trkpt lat="50.47046" lon="3.51293">
        <ele>19.844360351562</ele>
        <time>2008-10-05T07:31:12Z</time>
      </trkpt>
      <trkpt lat="50.47026" lon="3.51355">
        <ele>18.883056640625</ele>
        <time>2008-10-05T07:31:21Z</time>
      </trkpt>
      <trkpt lat="50.47025" lon="3.51363">
        <ele>18.40234375</ele>
        <time>2008-10-05T07:31:22Z</time>
      </trkpt>
      <trkpt lat="50.47023" lon="3.51387">
        <ele>18.40234375</ele>
        <time>2008-10-05T07:31:25Z</time>
      </trkpt>
      <trkpt lat="50.47033" lon="3.51434">
        <ele>17.441162109375</ele>
        <time>2008-10-05T07:31:31Z</time>
      </trkpt>
      <trkpt lat="50.4704" lon="3.51456">
        <ele>17.441162109375</ele>
        <time>2008-10-05T07:31:34Z</time>
      </trkpt>
      <trkpt lat="50.47044" lon="3.51495">
        <ele>17.921752929688</ele>
        <time>2008-10-05T07:31:39Z</time>
      </trkpt>
      <trkpt lat="50.47042" lon="3.51502">
        <ele>18.40234375</ele>
        <time>2008-10-05T07:31:40Z</time>
      </trkpt>
      <trkpt lat="50.47023" lon="3.51568">
        <ele>17.921752929688</ele>
        <time>2008-10-05T07:31:50Z</time>
      </trkpt>
      <trkpt lat="50.47007" lon="3.51609">
        <ele>18.883056640625</ele>
        <time>2008-10-05T07:31:57Z</time>
      </trkpt>
      <trkpt lat="50.46988" lon="3.51657">
        <ele>18.883056640625</ele>
        <time>2008-10-05T07:32:05Z</time>
      </trkpt>
      <trkpt lat="50.46968" lon="3.51696">
        <ele>19.844360351562</ele>
        <time>2008-10-05T07:32:12Z</time>
      </trkpt>
      <trkpt lat="50.46946" lon="3.51739">
        <ele>20.8056640625</ele>
        <time>2008-10-05T07:32:20Z</time>
      </trkpt>
      <trkpt lat="50.46943" lon="3.51745">
        <ele>20.324951171875</ele>
        <time>2008-10-05T07:32:21Z</time>
      </trkpt>
      <trkpt lat="50.46938" lon="3.51786">
        <ele>18.40234375</ele>
        <time>2008-10-05T07:32:27Z</time>
      </trkpt>
      <trkpt lat="50.46936" lon="3.51825">
        <ele>17.921752929688</ele>
        <time>2008-10-05T07:32:33Z</time>
      </trkpt>
      <trkpt lat="50.46946" lon="3.51873">
        <ele>17.921752929688</ele>
        <time>2008-10-05T07:32:41Z</time>
      </trkpt>
      <trkpt lat="50.46957" lon="3.51908">
        <ele>16.96044921875</ele>
        <time>2008-10-05T07:32:47Z</time>
      </trkpt>
      <trkpt lat="50.46974" lon="3.51946">
        <ele>16.96044921875</ele>
        <time>2008-10-05T07:32:54Z</time>
      </trkpt>
      <trkpt lat="50.46986" lon="3.51969">
        <ele>17.921752929688</ele>
        <time>2008-10-05T07:32:59Z</time>
      </trkpt>
      <trkpt lat="50.46987" lon="3.51973">
        <ele>17.921752929688</ele>
        <time>2008-10-05T07:33:00Z</time>
      </trkpt>
      <trkpt lat="50.46978" lon="3.52005">
        <ele>18.40234375</ele>
        <time>2008-10-05T07:33:05Z</time>
      </trkpt>
      <trkpt lat="50.46953" lon="3.52064">
        <ele>18.40234375</ele>
        <time>2008-10-05T07:33:13Z</time>
      </trkpt>
      <trkpt lat="50.46922" lon="3.52128">
        <ele>18.40234375</ele>
        <time>2008-10-05T07:33:22Z</time>
      </trkpt>
      <trkpt lat="50.46904" lon="3.52144">
        <ele>19.844360351562</ele>
        <time>2008-10-05T07:33:26Z</time>
      </trkpt>
      <trkpt lat="50.46889" lon="3.52141">
        <ele>20.8056640625</ele>
        <time>2008-10-05T07:33:29Z</time>
      </trkpt>
      <trkpt lat="50.46874" lon="3.52136">
        <ele>21.766967773438</ele>
        <time>2008-10-05T07:33:33Z</time>
      </trkpt>
      <trkpt lat="50.4687" lon="3.52147">
        <ele>22.728271484375</ele>
        <time>2008-10-05T07:33:37Z</time>
      </trkpt>
      <trkpt lat="50.46874" lon="3.52155">
        <ele>23.689575195312</ele>
        <time>2008-10-05T07:33:39Z</time>
      </trkpt>
      <trkpt lat="50.46904" lon="3.52189">
        <ele>25.131713867188</ele>
        <time>2008-10-05T07:33:47Z</time>
      </trkpt>
      <trkpt lat="50.46926" lon="3.52213">
        <ele>26.573608398438</ele>
        <time>2008-10-05T07:33:53Z</time>
      </trkpt>
      <trkpt lat="50.46945" lon="3.52235">
        <ele>26.092895507812</ele>
        <time>2008-10-05T07:33:58Z</time>
      </trkpt>
      <trkpt lat="50.46954" lon="3.52243">
        <ele>25.6123046875</ele>
        <time>2008-10-05T07:34:00Z</time>
      </trkpt>
      <trkpt lat="50.46985" lon="3.52278">
        <ele>24.170288085938</ele>
        <time>2008-10-05T07:34:07Z</time>
      </trkpt>
      <trkpt lat="50.46989" lon="3.52282">
        <ele>24.170288085938</ele>
        <time>2008-10-05T07:34:08Z</time>
      </trkpt>
      <trkpt lat="50.47023" lon="3.5232">
        <ele>22.728271484375</ele>
        <time>2008-10-05T07:34:16Z</time>
      </trkpt>
      <trkpt lat="50.4704" lon="3.52338">
        <ele>22.728271484375</ele>
        <time>2008-10-05T07:34:20Z</time>
      </trkpt>
      <trkpt lat="50.47042" lon="3.52354">
        <ele>23.689575195312</ele>
        <time>2008-10-05T07:34:23Z</time>
      </trkpt>
      <trkpt lat="50.47033" lon="3.52363">
        <ele>23.689575195312</ele>
        <time>2008-10-05T07:34:26Z</time>
      </trkpt>
      <trkpt lat="50.47025" lon="3.52358">
        <ele>24.170288085938</ele>
        <time>2008-10-05T07:34:28Z</time>
      </trkpt>
      <trkpt lat="50.46986" lon="3.52321">
        <ele>24.170288085938</ele>
        <time>2008-10-05T07:34:37Z</time>
      </trkpt>
      <trkpt lat="50.46972" lon="3.52303">
        <ele>24.170288085938</ele>
        <time>2008-10-05T07:34:41Z</time>
      </trkpt>
      <trkpt lat="50.46954" lon="3.52279">
        <ele>23.208984375</ele>
        <time>2008-10-05T07:34:47Z</time>
      </trkpt>
      <trkpt lat="50.46944" lon="3.52269">
        <ele>23.689575195312</ele>
        <time>2008-10-05T07:34:52Z</time>
      </trkpt>
      <trkpt lat="50.46687" lon="3.529">
        <ele>18.883056640625</ele>
        <time>2008-10-05T07:43:28Z</time>
      </trkpt>
      <trkpt lat="50.46688" lon="3.52926">
        <ele>18.40234375</ele>
        <time>2008-10-05T07:43:31Z</time>
      </trkpt>
      <trkpt lat="50.46688" lon="3.52934">
        <ele>17.921752929688</ele>
        <time>2008-10-05T07:43:32Z</time>
      </trkpt>
      <trkpt lat="50.46687" lon="3.52977">
        <ele>15.9990234375</ele>
        <time>2008-10-05T07:43:38Z</time>
      </trkpt>
      <trkpt lat="50.46688" lon="3.53002">
        <ele>14.076416015625</ele>
        <time>2008-10-05T07:43:42Z</time>
      </trkpt>
      <trkpt lat="50.46704" lon="3.53024">
        <ele>13.595825195312</ele>
        <time>2008-10-05T07:43:47Z</time>
      </trkpt>
      <trkpt lat="50.46714" lon="3.53032">
        <ele>12.634399414062</ele>
        <time>2008-10-05T07:43:51Z</time>
      </trkpt>
      <trkpt lat="50.46734" lon="3.5302">
        <ele>13.115112304688</ele>
        <time>2008-10-05T07:43:56Z</time>
      </trkpt>
      <trkpt lat="50.46749" lon="3.53026">
        <ele>12.634399414062</ele>
        <time>2008-10-05T07:43:59Z</time>
      </trkpt>
      <trkpt lat="50.46757" lon="3.53034">
        <ele>12.634399414062</ele>
        <time>2008-10-05T07:44:01Z</time>
      </trkpt>
      <trkpt lat="50.46768" lon="3.53056">
        <ele>13.115112304688</ele>
        <time>2008-10-05T07:44:05Z</time>
      </trkpt>
      <trkpt lat="50.46767" lon="3.53062">
        <ele>13.115112304688</ele>
        <time>2008-10-05T07:44:06Z</time>
      </trkpt>
      <trkpt lat="50.46753" lon="3.53125">
        <ele>14.076416015625</ele>
        <time>2008-10-05T07:44:16Z</time>
      </trkpt>
      <trkpt lat="50.4674" lon="3.53164">
        <ele>15.9990234375</ele>
        <time>2008-10-05T07:44:23Z</time>
      </trkpt>
      <trkpt lat="50.4673" lon="3.53193">
        <ele>16.479736328125</ele>
        <time>2008-10-05T07:44:28Z</time>
      </trkpt>
      <trkpt lat="50.46718" lon="3.53227">
        <ele>17.921752929688</ele>
        <time>2008-10-05T07:44:34Z</time>
      </trkpt>
      <trkpt lat="50.46708" lon="3.53256">
        <ele>20.324951171875</ele>
        <time>2008-10-05T07:44:39Z</time>
      </trkpt>
      <trkpt lat="50.46695" lon="3.53279">
        <ele>18.883056640625</ele>
        <time>2008-10-05T07:44:43Z</time>
      </trkpt>
      <trkpt lat="50.4669" lon="3.53297">
        <ele>18.883056640625</ele>
        <time>2008-10-05T07:44:46Z</time>
      </trkpt>
      <trkpt lat="50.46676" lon="3.53328">
        <ele>18.883056640625</ele>
        <time>2008-10-05T07:44:51Z</time>
      </trkpt>
      <trkpt lat="50.46667" lon="3.53354">
        <ele>19.36376953125</ele>
        <time>2008-10-05T07:44:56Z</time>
      </trkpt>
      <trkpt lat="50.4665" lon="3.53403">
        <ele>15.9990234375</ele>
        <time>2008-10-05T07:45:04Z</time>
      </trkpt>
      <trkpt lat="50.46638" lon="3.53433">
        <ele>15.9990234375</ele>
        <time>2008-10-05T07:45:09Z</time>
      </trkpt>
      <trkpt lat="50.46629" lon="3.53459">
        <ele>14.557006835938</ele>
        <time>2008-10-05T07:45:14Z</time>
      </trkpt>
      <trkpt lat="50.46616" lon="3.53493">
        <ele>13.595825195312</ele>
        <time>2008-10-05T07:45:20Z</time>
      </trkpt>
      <trkpt lat="50.46602" lon="3.53533">
        <ele>15.518432617188</ele>
        <time>2008-10-05T07:45:27Z</time>
      </trkpt>
      <trkpt lat="50.46597" lon="3.53545">
        <ele>13.595825195312</ele>
        <time>2008-10-05T07:45:29Z</time>
      </trkpt>
      <trkpt lat="50.46592" lon="3.53556">
        <ele>13.595825195312</ele>
        <time>2008-10-05T07:45:31Z</time>
      </trkpt>
      <trkpt lat="50.46578" lon="3.53593">
        <ele>13.595825195312</ele>
        <time>2008-10-05T07:45:37Z</time>
      </trkpt>
      <trkpt lat="50.46563" lon="3.53631">
        <ele>14.557006835938</ele>
        <time>2008-10-05T07:45:43Z</time>
      </trkpt>
      <trkpt lat="50.46554" lon="3.53656">
        <ele>13.115112304688</ele>
        <time>2008-10-05T07:45:47Z</time>
      </trkpt>
      <trkpt lat="50.46542" lon="3.53679">
        <ele>9.7506103515625</ele>
        <time>2008-10-05T07:45:51Z</time>
      </trkpt>
      <trkpt lat="50.46531" lon="3.53709">
        <ele>7.827880859375</ele>
        <time>2008-10-05T07:45:56Z</time>
      </trkpt>
      <trkpt lat="50.46519" lon="3.53738">
        <ele>6.866455078125</ele>
        <time>2008-10-05T07:46:01Z</time>
      </trkpt>
      <trkpt lat="50.46511" lon="3.53763">
        <ele>8.30859375</ele>
        <time>2008-10-05T07:46:06Z</time>
      </trkpt>
      <trkpt lat="50.46499" lon="3.53797">
        <ele>8.7891845703125</ele>
        <time>2008-10-05T07:46:12Z</time>
      </trkpt>
      <trkpt lat="50.46495" lon="3.53809">
        <ele>8.7891845703125</ele>
        <time>2008-10-05T07:46:14Z</time>
      </trkpt>
      <trkpt lat="50.46487" lon="3.53824">
        <ele>9.2698974609375</ele>
        <time>2008-10-05T07:46:18Z</time>
      </trkpt>
      <trkpt lat="50.4648" lon="3.53817">
        <ele>10.711791992188</ele>
        <time>2008-10-05T07:46:21Z</time>
      </trkpt>
      <trkpt lat="50.4648" lon="3.53805">
        <ele>11.192504882812</ele>
        <time>2008-10-05T07:46:24Z</time>
      </trkpt>
      <trkpt lat="50.46481" lon="3.53801">
        <ele>11.192504882812</ele>
        <time>2008-10-05T07:46:25Z</time>
      </trkpt>
      <trkpt lat="50.46483" lon="3.53773">
        <ele>14.557006835938</ele>
        <time>2008-10-05T07:46:30Z</time>
      </trkpt>
      <trkpt lat="50.46474" lon="3.53752">
        <ele>17.921752929688</ele>
        <time>2008-10-05T07:46:34Z</time>
      </trkpt>
      <trkpt lat="50.46455" lon="3.53712">
        <ele>17.921752929688</ele>
        <time>2008-10-05T07:46:40Z</time>
      </trkpt>
      <trkpt lat="50.46446" lon="3.53704">
        <ele>18.40234375</ele>
        <time>2008-10-05T07:46:43Z</time>
      </trkpt>
      <trkpt lat="50.4643" lon="3.53689">
        <ele>20.324951171875</ele>
        <time>2008-10-05T07:46:48Z</time>
      </trkpt>
      <trkpt lat="50.46419" lon="3.5367">
        <ele>24.170288085938</ele>
        <time>2008-10-05T07:46:52Z</time>
      </trkpt>
      <trkpt lat="50.46402" lon="3.53647">
        <ele>23.208984375</ele>
        <time>2008-10-05T07:46:57Z</time>
      </trkpt>
      <trkpt lat="50.46379" lon="3.53609">
        <ele>16.96044921875</ele>
        <time>2008-10-05T07:47:03Z</time>
      </trkpt>
      <trkpt lat="50.46365" lon="3.53598">
        <ele>17.921752929688</ele>
        <time>2008-10-05T07:47:07Z</time>
      </trkpt>
      <trkpt lat="50.46361" lon="3.53597">
        <ele>18.40234375</ele>
        <time>2008-10-05T07:47:08Z</time>
      </trkpt>
      <trkpt lat="50.46339" lon="3.53608">
        <ele>17.441162109375</ele>
        <time>2008-10-05T07:47:13Z</time>
      </trkpt>
      <trkpt lat="50.46333" lon="3.53615">
        <ele>16.96044921875</ele>
        <time>2008-10-05T07:47:15Z</time>
      </trkpt>
      <trkpt lat="50.46325" lon="3.53621">
        <ele>16.96044921875</ele>
        <time>2008-10-05T07:47:19Z</time>
      </trkpt>
      <trkpt lat="50.4632" lon="3.53626">
        <ele>17.921752929688</ele>
        <time>2008-10-05T07:47:23Z</time>
      </trkpt>
      <trkpt lat="50.46307" lon="3.5364">
        <ele>18.883056640625</ele>
        <time>2008-10-05T07:47:27Z</time>
      </trkpt>
      <trkpt lat="50.46281" lon="3.53669">
        <ele>18.883056640625</ele>
        <time>2008-10-05T07:47:34Z</time>
      </trkpt>
      <trkpt lat="50.46252" lon="3.53703">
        <ele>17.441162109375</ele>
        <time>2008-10-05T07:47:41Z</time>
      </trkpt>
      <trkpt lat="50.46225" lon="3.53748">
        <ele>15.9990234375</ele>
        <time>2008-10-05T07:47:49Z</time>
      </trkpt>
      <trkpt lat="50.46205" lon="3.53783">
        <ele>15.518432617188</ele>
        <time>2008-10-05T07:47:54Z</time>
      </trkpt>
      <trkpt lat="50.46189" lon="3.53809">
        <ele>15.037719726562</ele>
        <time>2008-10-05T07:47:59Z</time>
      </trkpt>
      <trkpt lat="50.46179" lon="3.53825">
        <ele>14.557006835938</ele>
        <time>2008-10-05T07:48:02Z</time>
      </trkpt>
      <trkpt lat="50.46149" lon="3.53867">
        <ele>15.037719726562</ele>
        <time>2008-10-05T07:48:10Z</time>
      </trkpt>
      <trkpt lat="50.46138" lon="3.53883">
        <ele>15.037719726562</ele>
        <time>2008-10-05T07:48:13Z</time>
      </trkpt>
      <trkpt lat="50.46118" lon="3.5391">
        <ele>15.037719726562</ele>
        <time>2008-10-05T07:48:18Z</time>
      </trkpt>
      <trkpt lat="50.46109" lon="3.53919">
        <ele>15.037719726562</ele>
        <time>2008-10-05T07:48:20Z</time>
      </trkpt>
      <trkpt lat="50.46092" lon="3.53934">
        <ele>15.9990234375</ele>
        <time>2008-10-05T07:48:24Z</time>
      </trkpt>
      <trkpt lat="50.46083" lon="3.53949">
        <ele>16.479736328125</ele>
        <time>2008-10-05T07:48:27Z</time>
      </trkpt>
      <trkpt lat="50.46077" lon="3.53959">
        <ele>17.921752929688</ele>
        <time>2008-10-05T07:48:29Z</time>
      </trkpt>
      <trkpt lat="50.46057" lon="3.54001">
        <ele>18.883056640625</ele>
        <time>2008-10-05T07:48:36Z</time>
      </trkpt>
      <trkpt lat="50.46036" lon="3.54044">
        <ele>18.883056640625</ele>
        <time>2008-10-05T07:48:42Z</time>
      </trkpt>
      <trkpt lat="50.46017" lon="3.54084">
        <ele>16.479736328125</ele>
        <time>2008-10-05T07:48:47Z</time>
      </trkpt>
      <trkpt lat="50.46002" lon="3.54119">
        <ele>16.479736328125</ele>
        <time>2008-10-05T07:48:52Z</time>
      </trkpt>
      <trkpt lat="50.45992" lon="3.54142">
        <ele>15.9990234375</ele>
        <time>2008-10-05T07:48:56Z</time>
      </trkpt>
      <trkpt lat="50.45971" lon="3.54187">
        <ele>15.037719726562</ele>
        <time>2008-10-05T07:49:02Z</time>
      </trkpt>
      <trkpt lat="50.45967" lon="3.54194">
        <ele>15.037719726562</ele>
        <time>2008-10-05T07:49:03Z</time>
      </trkpt>
      <trkpt lat="50.45948" lon="3.5424">
        <ele>16.479736328125</ele>
        <time>2008-10-05T07:49:09Z</time>
      </trkpt>
      <trkpt lat="50.45938" lon="3.54261">
        <ele>17.441162109375</ele>
        <time>2008-10-05T07:49:12Z</time>
      </trkpt>
      <trkpt lat="50.45918" lon="3.54315">
        <ele>15.9990234375</ele>
        <time>2008-10-05T07:49:19Z</time>
      </trkpt>
      <trkpt lat="50.4591" lon="3.54345">
        <ele>16.479736328125</ele>
        <time>2008-10-05T07:49:23Z</time>
      </trkpt>
      <trkpt lat="50.459" lon="3.54381">
        <ele>16.479736328125</ele>
        <time>2008-10-05T07:49:28Z</time>
      </trkpt>
      <trkpt lat="50.4589" lon="3.54429">
        <ele>17.921752929688</ele>
        <time>2008-10-05T07:49:34Z</time>
      </trkpt>
      <trkpt lat="50.45881" lon="3.54471">
        <ele>16.96044921875</ele>
        <time>2008-10-05T07:49:39Z</time>
      </trkpt>
      <trkpt lat="50.45862" lon="3.5454">
        <ele>13.595825195312</ele>
        <time>2008-10-05T07:49:47Z</time>
      </trkpt>
      <trkpt lat="50.4586" lon="3.54548">
        <ele>13.115112304688</ele>
        <time>2008-10-05T07:49:48Z</time>
      </trkpt>
      <trkpt lat="50.45852" lon="3.54579">
        <ele>9.2698974609375</ele>
        <time>2008-10-05T07:49:52Z</time>
      </trkpt>
      <trkpt lat="50.45853" lon="3.54609">
        <ele>6.3858642578125</ele>
        <time>2008-10-05T07:49:56Z</time>
      </trkpt>
      <trkpt lat="50.45851" lon="3.54654">
        <ele>3.982666015625</ele>
        <time>2008-10-05T07:50:01Z</time>
      </trkpt>
      <trkpt lat="50.45846" lon="3.54695">
        <ele>3.021240234375</ele>
        <time>2008-10-05T07:50:06Z</time>
      </trkpt>
      <trkpt lat="50.45839" lon="3.54719">
        <ele>3.021240234375</ele>
        <time>2008-10-05T07:50:10Z</time>
      </trkpt>
      <trkpt lat="50.45835" lon="3.54733">
        <ele>4.4632568359375</ele>
        <time>2008-10-05T07:50:12Z</time>
      </trkpt>
      <trkpt lat="50.45822" lon="3.54769">
        <ele>3.982666015625</ele>
        <time>2008-10-05T07:50:17Z</time>
      </trkpt>
      <trkpt lat="50.45809" lon="3.54816">
        <ele>5.424560546875</ele>
        <time>2008-10-05T07:50:23Z</time>
      </trkpt>
      <trkpt lat="50.45797" lon="3.54861">
        <ele>10.711791992188</ele>
        <time>2008-10-05T07:50:29Z</time>
      </trkpt>
      <trkpt lat="50.45786" lon="3.54903">
        <ele>10.711791992188</ele>
        <time>2008-10-05T07:50:35Z</time>
      </trkpt>
      <trkpt lat="50.45773" lon="3.54942">
        <ele>9.2698974609375</ele>
        <time>2008-10-05T07:50:41Z</time>
      </trkpt>
      <trkpt lat="50.45768" lon="3.54964">
        <ele>6.866455078125</ele>
        <time>2008-10-05T07:50:44Z</time>
      </trkpt>
      <trkpt lat="50.45771" lon="3.55021">
        <ele>10.231201171875</ele>
        <time>2008-10-05T07:50:51Z</time>
      </trkpt>
      <trkpt lat="50.4577" lon="3.55079">
        <ele>10.231201171875</ele>
        <time>2008-10-05T07:50:59Z</time>
      </trkpt>
      <trkpt lat="50.4577" lon="3.55086">
        <ele>10.231201171875</ele>
        <time>2008-10-05T07:51:00Z</time>
      </trkpt>
      <trkpt lat="50.45766" lon="3.55112">
        <ele>9.7506103515625</ele>
        <time>2008-10-05T07:51:04Z</time>
      </trkpt>
      <trkpt lat="50.45757" lon="3.55182">
        <ele>7.827880859375</ele>
        <time>2008-10-05T07:51:14Z</time>
      </trkpt>
      <trkpt lat="50.45752" lon="3.55203">
        <ele>7.34716796875</ele>
        <time>2008-10-05T07:51:17Z</time>
      </trkpt>
      <trkpt lat="50.45743" lon="3.55241">
        <ele>5.9052734375</ele>
        <time>2008-10-05T07:51:23Z</time>
      </trkpt>
      <trkpt lat="50.45739" lon="3.55265">
        <ele>7.827880859375</ele>
        <time>2008-10-05T07:51:27Z</time>
      </trkpt>
      <trkpt lat="50.45736" lon="3.55306">
        <ele>9.2698974609375</ele>
        <time>2008-10-05T07:51:33Z</time>
      </trkpt>
      <trkpt lat="50.45732" lon="3.55326">
        <ele>10.231201171875</ele>
        <time>2008-10-05T07:51:36Z</time>
      </trkpt>
      <trkpt lat="50.45731" lon="3.55349">
        <ele>12.15380859375</ele>
        <time>2008-10-05T07:51:39Z</time>
      </trkpt>
      <trkpt lat="50.45731" lon="3.55376">
        <ele>11.673217773438</ele>
        <time>2008-10-05T07:51:42Z</time>
      </trkpt>
      <trkpt lat="50.45732" lon="3.55418">
        <ele>11.192504882812</ele>
        <time>2008-10-05T07:51:47Z</time>
      </trkpt>
      <trkpt lat="50.45731" lon="3.55435">
        <ele>10.231201171875</ele>
        <time>2008-10-05T07:51:49Z</time>
      </trkpt>
      <trkpt lat="50.45729" lon="3.55448">
        <ele>11.673217773438</ele>
        <time>2008-10-05T07:51:51Z</time>
      </trkpt>
      <trkpt lat="50.45728" lon="3.55489">
        <ele>9.7506103515625</ele>
        <time>2008-10-05T07:51:56Z</time>
      </trkpt>
      <trkpt lat="50.45728" lon="3.55498">
        <ele>8.30859375</ele>
        <time>2008-10-05T07:51:57Z</time>
      </trkpt>
      <trkpt lat="50.45727" lon="3.55531">
        <ele>7.34716796875</ele>
        <time>2008-10-05T07:52:01Z</time>
      </trkpt>
      <trkpt lat="50.45723" lon="3.55594">
        <ele>7.827880859375</ele>
        <time>2008-10-05T07:52:09Z</time>
      </trkpt>
      <trkpt lat="50.45718" lon="3.55654">
        <ele>8.7891845703125</ele>
        <time>2008-10-05T07:52:17Z</time>
      </trkpt>
      <trkpt lat="50.45712" lon="3.55712">
        <ele>9.2698974609375</ele>
        <time>2008-10-05T07:52:25Z</time>
      </trkpt>
      <trkpt lat="50.45704" lon="3.55757">
        <ele>8.30859375</ele>
        <time>2008-10-05T07:52:31Z</time>
      </trkpt>
      <trkpt lat="50.45696" lon="3.55805">
        <ele>8.7891845703125</ele>
        <time>2008-10-05T07:52:38Z</time>
      </trkpt>
      <trkpt lat="50.45689" lon="3.55837">
        <ele>10.231201171875</ele>
        <time>2008-10-05T07:52:43Z</time>
      </trkpt>
      <trkpt lat="50.45678" lon="3.55871">
        <ele>13.115112304688</ele>
        <time>2008-10-05T07:52:49Z</time>
      </trkpt>
      <trkpt lat="50.45672" lon="3.55893">
        <ele>13.595825195312</ele>
        <time>2008-10-05T07:52:53Z</time>
      </trkpt>
      <trkpt lat="50.45664" lon="3.55927">
        <ele>13.595825195312</ele>
        <time>2008-10-05T07:52:58Z</time>
      </trkpt>
      <trkpt lat="50.45654" lon="3.55963">
        <ele>13.595825195312</ele>
        <time>2008-10-05T07:53:04Z</time>
      </trkpt>
      <trkpt lat="50.45653" lon="3.55968">
        <ele>13.115112304688</ele>
        <time>2008-10-05T07:53:05Z</time>
      </trkpt>
      <trkpt lat="50.45642" lon="3.56006">
        <ele>10.711791992188</ele>
        <time>2008-10-05T07:53:11Z</time>
      </trkpt>
      <trkpt lat="50.45625" lon="3.56056">
        <ele>5.9052734375</ele>
        <time>2008-10-05T07:53:18Z</time>
      </trkpt>
      <trkpt lat="50.45616" lon="3.56099">
        <ele>6.3858642578125</ele>
        <time>2008-10-05T07:53:24Z</time>
      </trkpt>
      <trkpt lat="50.45615" lon="3.5612">
        <ele>8.30859375</ele>
        <time>2008-10-05T07:53:27Z</time>
      </trkpt>
      <trkpt lat="50.4562" lon="3.56157">
        <ele>8.30859375</ele>
        <time>2008-10-05T07:53:33Z</time>
      </trkpt>
      <trkpt lat="50.45631" lon="3.56187">
        <ele>8.7891845703125</ele>
        <time>2008-10-05T07:53:38Z</time>
      </trkpt>
      <trkpt lat="50.45637" lon="3.56199">
        <ele>8.7891845703125</ele>
        <time>2008-10-05T07:53:40Z</time>
      </trkpt>
      <trkpt lat="50.45651" lon="3.56198">
        <ele>9.7506103515625</ele>
        <time>2008-10-05T07:53:44Z</time>
      </trkpt>
      <trkpt lat="50.45656" lon="3.56186">
        <ele>9.7506103515625</ele>
        <time>2008-10-05T07:53:46Z</time>
      </trkpt>
      <trkpt lat="50.4567" lon="3.56129">
        <ele>10.711791992188</ele>
        <time>2008-10-05T07:53:54Z</time>
      </trkpt>
      <trkpt lat="50.45681" lon="3.56083">
        <ele>10.711791992188</ele>
        <time>2008-10-05T07:54:00Z</time>
      </trkpt>
      <trkpt lat="50.45697" lon="3.56021">
        <ele>12.634399414062</ele>
        <time>2008-10-05T07:54:08Z</time>
      </trkpt>
      <trkpt lat="50.45706" lon="3.55981">
        <ele>14.076416015625</ele>
        <time>2008-10-05T07:54:13Z</time>
      </trkpt>
      <trkpt lat="50.4571" lon="3.55966">
        <ele>14.557006835938</ele>
        <time>2008-10-05T07:54:15Z</time>
      </trkpt>
      <trkpt lat="50.45723" lon="3.5592">
        <ele>15.9990234375</ele>
        <time>2008-10-05T07:54:21Z</time>
      </trkpt>
      <trkpt lat="50.45735" lon="3.55872">
        <ele>15.9990234375</ele>
        <time>2008-10-05T07:54:27Z</time>
      </trkpt>
      <trkpt lat="50.45742" lon="3.55841">
        <ele>16.479736328125</ele>
        <time>2008-10-05T07:54:31Z</time>
      </trkpt>
      <trkpt lat="50.45753" lon="3.55802">
        <ele>16.479736328125</ele>
        <time>2008-10-05T07:54:36Z</time>
      </trkpt>
      <trkpt lat="50.45771" lon="3.55746">
        <ele>16.96044921875</ele>
        <time>2008-10-05T07:54:44Z</time>
      </trkpt>
      <trkpt lat="50.45786" lon="3.55703">
        <ele>18.40234375</ele>
        <time>2008-10-05T07:54:50Z</time>
      </trkpt>
      <trkpt lat="50.45802" lon="3.5566">
        <ele>17.921752929688</ele>
        <time>2008-10-05T07:54:56Z</time>
      </trkpt>
      <trkpt lat="50.45818" lon="3.55617">
        <ele>16.96044921875</ele>
        <time>2008-10-05T07:55:02Z</time>
      </trkpt>
      <trkpt lat="50.45841" lon="3.55556">
        <ele>16.96044921875</ele>
        <time>2008-10-05T07:55:10Z</time>
      </trkpt>
      <trkpt lat="50.45844" lon="3.55549">
        <ele>16.96044921875</ele>
        <time>2008-10-05T07:55:11Z</time>
      </trkpt>
      <trkpt lat="50.45863" lon="3.55497">
        <ele>17.441162109375</ele>
        <time>2008-10-05T07:55:18Z</time>
      </trkpt>
      <trkpt lat="50.45876" lon="3.5546">
        <ele>17.441162109375</ele>
        <time>2008-10-05T07:55:23Z</time>
      </trkpt>
      <trkpt lat="50.45896" lon="3.55408">
        <ele>16.96044921875</ele>
        <time>2008-10-05T07:55:30Z</time>
      </trkpt>
      <trkpt lat="50.45918" lon="3.55349">
        <ele>17.441162109375</ele>
        <time>2008-10-05T07:55:38Z</time>
      </trkpt>
      <trkpt lat="50.45943" lon="3.55283">
        <ele>17.921752929688</ele>
        <time>2008-10-05T07:55:47Z</time>
      </trkpt>
      <trkpt lat="50.45961" lon="3.55234">
        <ele>17.921752929688</ele>
        <time>2008-10-05T07:55:54Z</time>
      </trkpt>
      <trkpt lat="50.45984" lon="3.55176">
        <ele>17.921752929688</ele>
        <time>2008-10-05T07:56:02Z</time>
      </trkpt>
      <trkpt lat="50.46008" lon="3.55115">
        <ele>18.40234375</ele>
        <time>2008-10-05T07:56:10Z</time>
      </trkpt>
      <trkpt lat="50.46016" lon="3.55093">
        <ele>18.40234375</ele>
        <time>2008-10-05T07:56:13Z</time>
      </trkpt>
      <trkpt lat="50.46029" lon="3.5506">
        <ele>17.921752929688</ele>
        <time>2008-10-05T07:56:18Z</time>
      </trkpt>
      <trkpt lat="50.46039" lon="3.55034">
        <ele>19.36376953125</ele>
        <time>2008-10-05T07:56:23Z</time>
      </trkpt>
      <trkpt lat="50.46047" lon="3.5504">
        <ele>19.844360351562</ele>
        <time>2008-10-05T07:56:26Z</time>
      </trkpt>
      <trkpt lat="50.46059" lon="3.55053">
        <ele>19.844360351562</ele>
        <time>2008-10-05T07:56:30Z</time>
      </trkpt>
      <trkpt lat="50.46054" lon="3.55074">
        <ele>18.40234375</ele>
        <time>2008-10-05T07:56:34Z</time>
      </trkpt>
      <trkpt lat="50.46033" lon="3.55124">
        <ele>16.96044921875</ele>
        <time>2008-10-05T07:56:41Z</time>
      </trkpt>
      <trkpt lat="50.46017" lon="3.55166">
        <ele>15.9990234375</ele>
        <time>2008-10-05T07:56:47Z</time>
      </trkpt>
      <trkpt lat="50.46" lon="3.55209">
        <ele>15.037719726562</ele>
        <time>2008-10-05T07:56:53Z</time>
      </trkpt>
      <trkpt lat="50.45975" lon="3.55275">
        <ele>15.037719726562</ele>
        <time>2008-10-05T07:57:02Z</time>
      </trkpt>
      <trkpt lat="50.45952" lon="3.55338">
        <ele>15.037719726562</ele>
        <time>2008-10-05T07:57:11Z</time>
      </trkpt>
      <trkpt lat="50.45934" lon="3.55388">
        <ele>15.037719726562</ele>
        <time>2008-10-05T07:57:18Z</time>
      </trkpt>
      <trkpt lat="50.45908" lon="3.55455">
        <ele>15.9990234375</ele>
        <time>2008-10-05T07:57:27Z</time>
      </trkpt>
      <trkpt lat="50.45889" lon="3.5551">
        <ele>15.518432617188</ele>
        <time>2008-10-05T07:57:34Z</time>
      </trkpt>
      <trkpt lat="50.45869" lon="3.55558">
        <ele>15.9990234375</ele>
        <time>2008-10-05T07:57:41Z</time>
      </trkpt>
      <trkpt lat="50.45844" lon="3.55624">
        <ele>15.9990234375</ele>
        <time>2008-10-05T07:57:50Z</time>
      </trkpt>
      <trkpt lat="50.45829" lon="3.55666">
        <ele>16.96044921875</ele>
        <time>2008-10-05T07:57:56Z</time>
      </trkpt>
      <trkpt lat="50.45822" lon="3.55686">
        <ele>17.921752929688</ele>
        <time>2008-10-05T07:57:59Z</time>
      </trkpt>
      <trkpt lat="50.458" lon="3.5574">
        <ele>18.40234375</ele>
        <time>2008-10-05T07:58:07Z</time>
      </trkpt>
      <trkpt lat="50.45794" lon="3.55756">
        <ele>18.883056640625</ele>
        <time>2008-10-05T07:58:10Z</time>
      </trkpt>
      <trkpt lat="50.45789" lon="3.55768">
        <ele>19.36376953125</ele>
        <time>2008-10-05T07:58:12Z</time>
      </trkpt>
      <trkpt lat="50.45772" lon="3.55816">
        <ele>20.324951171875</ele>
        <time>2008-10-05T07:58:19Z</time>
      </trkpt>
      <trkpt lat="50.45759" lon="3.55861">
        <ele>19.844360351562</ele>
        <time>2008-10-05T07:58:25Z</time>
      </trkpt>
      <trkpt lat="50.45755" lon="3.55875">
        <ele>20.324951171875</ele>
        <time>2008-10-05T07:58:27Z</time>
      </trkpt>
      <trkpt lat="50.4574" lon="3.55934">
        <ele>20.324951171875</ele>
        <time>2008-10-05T07:58:35Z</time>
      </trkpt>
      <trkpt lat="50.45727" lon="3.55985">
        <ele>21.766967773438</ele>
        <time>2008-10-05T07:58:42Z</time>
      </trkpt>
      <trkpt lat="50.45714" lon="3.56034">
        <ele>21.286376953125</ele>
        <time>2008-10-05T07:58:48Z</time>
      </trkpt>
      <trkpt lat="50.457" lon="3.56099">
        <ele>20.324951171875</ele>
        <time>2008-10-05T07:58:56Z</time>
      </trkpt>
      <trkpt lat="50.45687" lon="3.56149">
        <ele>19.844360351562</ele>
        <time>2008-10-05T07:59:02Z</time>
      </trkpt>
      <trkpt lat="50.45675" lon="3.56209">
        <ele>20.324951171875</ele>
        <time>2008-10-05T07:59:10Z</time>
      </trkpt>
      <trkpt lat="50.45673" lon="3.56217">
        <ele>20.324951171875</ele>
        <time>2008-10-05T07:59:11Z</time>
      </trkpt>
      <trkpt lat="50.45659" lon="3.56271">
        <ele>18.883056640625</ele>
        <time>2008-10-05T07:59:18Z</time>
      </trkpt>
      <trkpt lat="50.45646" lon="3.56329">
        <ele>18.40234375</ele>
        <time>2008-10-05T07:59:26Z</time>
      </trkpt>
      <trkpt lat="50.45642" lon="3.56342">
        <ele>17.921752929688</ele>
        <time>2008-10-05T07:59:28Z</time>
      </trkpt>
      <trkpt lat="50.45631" lon="3.56393">
        <ele>17.441162109375</ele>
        <time>2008-10-05T07:59:35Z</time>
      </trkpt>
      <trkpt lat="50.45622" lon="3.56428">
        <ele>17.441162109375</ele>
        <time>2008-10-05T07:59:39Z</time>
      </trkpt>
      <trkpt lat="50.4561" lon="3.5648">
        <ele>16.96044921875</ele>
        <time>2008-10-05T07:59:45Z</time>
      </trkpt>
      <trkpt lat="50.45595" lon="3.56541">
        <ele>16.96044921875</ele>
        <time>2008-10-05T07:59:53Z</time>
      </trkpt>
      <trkpt lat="50.45592" lon="3.56557">
        <ele>16.96044921875</ele>
        <time>2008-10-05T07:59:55Z</time>
      </trkpt>
      <trkpt lat="50.45581" lon="3.56598">
        <ele>16.96044921875</ele>
        <time>2008-10-05T08:00:00Z</time>
      </trkpt>
      <trkpt lat="50.45568" lon="3.56652">
        <ele>15.9990234375</ele>
        <time>2008-10-05T08:00:07Z</time>
      </trkpt>
      <trkpt lat="50.45567" lon="3.56659">
        <ele>15.9990234375</ele>
        <time>2008-10-05T08:00:08Z</time>
      </trkpt>
      <trkpt lat="50.45564" lon="3.56672">
        <ele>15.518432617188</ele>
        <time>2008-10-05T08:00:10Z</time>
      </trkpt>
      <trkpt lat="50.45561" lon="3.56684">
        <ele>15.9990234375</ele>
        <time>2008-10-05T08:00:12Z</time>
      </trkpt>
      <trkpt lat="50.45554" lon="3.56714">
        <ele>16.96044921875</ele>
        <time>2008-10-05T08:00:18Z</time>
      </trkpt>
      <trkpt lat="50.45553" lon="3.56716">
        <ele>17.441162109375</ele>
        <time>2008-10-05T08:00:19Z</time>
      </trkpt>
      <trkpt lat="50.45545" lon="3.56709">
        <ele>17.441162109375</ele>
        <time>2008-10-05T08:00:23Z</time>
      </trkpt>
      <trkpt lat="50.45519" lon="3.56687">
        <ele>15.518432617188</ele>
        <time>2008-10-05T08:00:31Z</time>
      </trkpt>
      <trkpt lat="50.45505" lon="3.56676">
        <ele>15.518432617188</ele>
        <time>2008-10-05T08:00:35Z</time>
      </trkpt>
      <trkpt lat="50.45494" lon="3.5669">
        <ele>15.037719726562</ele>
        <time>2008-10-05T08:00:39Z</time>
      </trkpt>
      <trkpt lat="50.45491" lon="3.56703">
        <ele>14.557006835938</ele>
        <time>2008-10-05T08:00:41Z</time>
      </trkpt>
      <trkpt lat="50.45481" lon="3.56741">
        <ele>14.557006835938</ele>
        <time>2008-10-05T08:00:46Z</time>
      </trkpt>
      <trkpt lat="50.45461" lon="3.56816">
        <ele>15.9990234375</ele>
        <time>2008-10-05T08:00:55Z</time>
      </trkpt>
      <trkpt lat="50.45446" lon="3.56862">
        <ele>16.479736328125</ele>
        <time>2008-10-05T08:01:01Z</time>
      </trkpt>
      <trkpt lat="50.45419" lon="3.56916">
        <ele>17.921752929688</ele>
        <time>2008-10-05T08:01:09Z</time>
      </trkpt>
      <trkpt lat="50.45396" lon="3.56951">
        <ele>18.883056640625</ele>
        <time>2008-10-05T08:01:15Z</time>
      </trkpt>
      <trkpt lat="50.45376" lon="3.56976">
        <ele>19.36376953125</ele>
        <time>2008-10-05T08:01:20Z</time>
      </trkpt>
      <trkpt lat="50.45358" lon="3.57003">
        <ele>20.324951171875</ele>
        <time>2008-10-05T08:01:26Z</time>
      </trkpt>
      <trkpt lat="50.45348" lon="3.57017">
        <ele>20.8056640625</ele>
        <time>2008-10-05T08:01:30Z</time>
      </trkpt>
      <trkpt lat="50.45336" lon="3.5703">
        <ele>21.286376953125</ele>
        <time>2008-10-05T08:01:34Z</time>
      </trkpt>
      <trkpt lat="50.45329" lon="3.57038">
        <ele>21.766967773438</ele>
        <time>2008-10-05T08:01:36Z</time>
      </trkpt>
      <trkpt lat="50.45318" lon="3.5705">
        <ele>22.728271484375</ele>
        <time>2008-10-05T08:01:39Z</time>
      </trkpt>
      <trkpt lat="50.45294" lon="3.57078">
        <ele>22.728271484375</ele>
        <time>2008-10-05T08:01:45Z</time>
      </trkpt>
      <trkpt lat="50.45276" lon="3.57102">
        <ele>23.689575195312</ele>
        <time>2008-10-05T08:01:50Z</time>
      </trkpt>
      <trkpt lat="50.4526" lon="3.57126">
        <ele>24.170288085938</ele>
        <time>2008-10-05T08:01:54Z</time>
      </trkpt>
      <trkpt lat="50.4524" lon="3.57152">
        <ele>24.651000976562</ele>
        <time>2008-10-05T08:01:59Z</time>
      </trkpt>
      <trkpt lat="50.4521" lon="3.57196">
        <ele>24.651000976562</ele>
        <time>2008-10-05T08:02:07Z</time>
      </trkpt>
      <trkpt lat="50.45177" lon="3.57239">
        <ele>23.208984375</ele>
        <time>2008-10-05T08:02:15Z</time>
      </trkpt>
      <trkpt lat="50.45152" lon="3.57271">
        <ele>21.766967773438</ele>
        <time>2008-10-05T08:02:21Z</time>
      </trkpt>
      <trkpt lat="50.4511" lon="3.57327">
        <ele>19.36376953125</ele>
        <time>2008-10-05T08:02:31Z</time>
      </trkpt>
      <trkpt lat="50.45069" lon="3.57381">
        <ele>20.324951171875</ele>
        <time>2008-10-05T08:02:41Z</time>
      </trkpt>
      <trkpt lat="50.45039" lon="3.57419">
        <ele>19.844360351562</ele>
        <time>2008-10-05T08:02:48Z</time>
      </trkpt>
      <trkpt lat="50.45029" lon="3.57432">
        <ele>19.844360351562</ele>
        <time>2008-10-05T08:02:51Z</time>
      </trkpt>
      <trkpt lat="50.45029" lon="3.57438">
        <ele>19.844360351562</ele>
        <time>2008-10-05T08:02:54Z</time>
      </trkpt>
      <trkpt lat="50.45036" lon="3.5744">
        <ele>20.324951171875</ele>
        <time>2008-10-05T08:02:59Z</time>
      </trkpt>
      <trkpt lat="50.45045" lon="3.5745">
        <ele>20.8056640625</ele>
        <time>2008-10-05T08:03:03Z</time>
      </trkpt>
      <trkpt lat="50.45063" lon="3.5748">
        <ele>19.844360351562</ele>
        <time>2008-10-05T08:03:10Z</time>
      </trkpt>
      <trkpt lat="50.45086" lon="3.57523">
        <ele>18.883056640625</ele>
        <time>2008-10-05T08:03:19Z</time>
      </trkpt>
      <trkpt lat="50.45106" lon="3.5754">
        <ele>18.883056640625</ele>
        <time>2008-10-05T08:03:25Z</time>
      </trkpt>
      <trkpt lat="50.45112" lon="3.57557">
        <ele>20.324951171875</ele>
        <time>2008-10-05T08:03:30Z</time>
      </trkpt>
      <trkpt lat="50.45112" lon="3.5756">
        <ele>20.324951171875</ele>
        <time>2008-10-05T08:03:31Z</time>
      </trkpt>
      <trkpt lat="50.45114" lon="3.57579">
        <ele>21.766967773438</ele>
        <time>2008-10-05T08:03:38Z</time>
      </trkpt>
      <trkpt lat="50.45115" lon="3.57583">
        <ele>22.24755859375</ele>
        <time>2008-10-05T08:03:39Z</time>
      </trkpt>
      <trkpt lat="50.45123" lon="3.57589">
        <ele>23.208984375</ele>
        <time>2008-10-05T08:03:44Z</time>
      </trkpt>
      <trkpt lat="50.45131" lon="3.57594">
        <ele>23.689575195312</ele>
        <time>2008-10-05T08:03:49Z</time>
      </trkpt>
      <trkpt lat="50.45134" lon="3.57595">
        <ele>24.651000976562</ele>
        <time>2008-10-05T08:03:51Z</time>
      </trkpt>
      <trkpt lat="50.45142" lon="3.57598">
        <ele>29.45751953125</ele>
        <time>2008-10-05T08:03:58Z</time>
      </trkpt>
      <trkpt lat="50.45145" lon="3.57598">
        <ele>31.380126953125</ele>
        <time>2008-10-05T08:04:01Z</time>
      </trkpt>
      <trkpt lat="50.45146" lon="3.57599">
        <ele>31.380126953125</ele>
        <time>2008-10-05T08:04:04Z</time>
      </trkpt>
      <trkpt lat="50.45147" lon="3.576">
        <ele>31.860717773438</ele>
        <time>2008-10-05T08:04:05Z</time>
      </trkpt>
      <trkpt lat="50.45153" lon="3.57603">
        <ele>32.822265625</ele>
        <time>2008-10-05T08:04:11Z</time>
      </trkpt>
      <trkpt lat="50.45156" lon="3.57605">
        <ele>33.302856445312</ele>
        <time>2008-10-05T08:04:15Z</time>
      </trkpt>
      <trkpt lat="50.45156" lon="3.57606">
        <ele>32.822265625</ele>
        <time>2008-10-05T08:04:18Z</time>
      </trkpt>
      <trkpt lat="50.45161" lon="3.57608">
        <ele>33.302856445312</ele>
        <time>2008-10-05T08:04:21Z</time>
      </trkpt>
      <trkpt lat="50.4517" lon="3.57618">
        <ele>32.822265625</ele>
        <time>2008-10-05T08:04:26Z</time>
      </trkpt>
      <trkpt lat="50.45176" lon="3.57621">
        <ele>32.341552734375</ele>
        <time>2008-10-05T08:04:31Z</time>
      </trkpt>
      <trkpt lat="50.4518" lon="3.57617">
        <ele>33.302856445312</ele>
        <time>2008-10-05T08:04:37Z</time>
      </trkpt>
      <trkpt lat="50.45182" lon="3.57616">
        <ele>34.744873046875</ele>
        <time>2008-10-05T08:04:46Z</time>
      </trkpt>
      <trkpt lat="50.45182" lon="3.576">
        <ele>32.341552734375</ele>
        <time>2008-10-05T08:04:49Z</time>
      </trkpt>
      <trkpt lat="50.45184" lon="3.57584">
        <ele>28.976928710938</ele>
        <time>2008-10-05T08:04:52Z</time>
      </trkpt>
      <trkpt lat="50.45188" lon="3.57563">
        <ele>27.534912109375</ele>
        <time>2008-10-05T08:04:54Z</time>
      </trkpt>
      <trkpt lat="50.45194" lon="3.57538">
        <ele>27.534912109375</ele>
        <time>2008-10-05T08:04:57Z</time>
      </trkpt>
      <trkpt lat="50.45206" lon="3.57506">
        <ele>27.534912109375</ele>
        <time>2008-10-05T08:05:03Z</time>
      </trkpt>
      <trkpt lat="50.45219" lon="3.57511">
        <ele>27.054321289062</ele>
        <time>2008-10-05T08:05:09Z</time>
      </trkpt>
      <trkpt lat="50.45229" lon="3.57535">
        <ele>27.534912109375</ele>
        <time>2008-10-05T08:05:16Z</time>
      </trkpt>
      <trkpt lat="50.4523" lon="3.57558">
        <ele>28.496215820312</ele>
        <time>2008-10-05T08:05:21Z</time>
      </trkpt>
      <trkpt lat="50.4523" lon="3.57563">
        <ele>28.976928710938</ele>
        <time>2008-10-05T08:05:22Z</time>
      </trkpt>
      <trkpt lat="50.45232" lon="3.57569">
        <ele>30.899536132812</ele>
        <time>2008-10-05T08:05:26Z</time>
      </trkpt>
      <trkpt lat="50.45228" lon="3.57579">
        <ele>33.302856445312</ele>
        <time>2008-10-05T08:05:33Z</time>
      </trkpt>
      <trkpt lat="50.45226" lon="3.57581">
        <ele>33.302856445312</ele>
        <time>2008-10-05T08:05:35Z</time>
      </trkpt>
      <trkpt lat="50.45213" lon="3.57598">
        <ele>34.744873046875</ele>
        <time>2008-10-05T08:05:43Z</time>
      </trkpt>
      <trkpt lat="50.45202" lon="3.57605">
        <ele>35.225463867188</ele>
        <time>2008-10-05T08:05:48Z</time>
      </trkpt>
      <trkpt lat="50.45199" lon="3.5761">
        <ele>36.186767578125</ele>
        <time>2008-10-05T08:05:51Z</time>
      </trkpt>
      <trkpt lat="50.45198" lon="3.57614">
        <ele>37.628662109375</ele>
        <time>2008-10-05T08:05:55Z</time>
      </trkpt>
      <trkpt lat="50.45198" lon="3.57614">
        <ele>37.628662109375</ele>
        <time>2008-10-05T08:05:58Z</time>
      </trkpt>
      <trkpt lat="50.45197" lon="3.57615">
        <ele>38.109375</ele>
        <time>2008-10-05T08:05:59Z</time>
      </trkpt>
      <trkpt lat="50.45197" lon="3.57616">
        <ele>38.590087890625</ele>
        <time>2008-10-05T08:06:02Z</time>
      </trkpt>
      <trkpt lat="50.45196" lon="3.57616">
        <ele>38.590087890625</ele>
        <time>2008-10-05T08:06:03Z</time>
      </trkpt>
      <trkpt lat="50.45195" lon="3.57617">
        <ele>38.109375</ele>
        <time>2008-10-05T08:06:04Z</time>
      </trkpt>
      <trkpt lat="50.45195" lon="3.57618">
        <ele>38.109375</ele>
        <time>2008-10-05T08:06:07Z</time>
      </trkpt>
      <trkpt lat="50.45193" lon="3.57622">
        <ele>38.590087890625</ele>
        <time>2008-10-05T08:06:09Z</time>
      </trkpt>
      <trkpt lat="50.4519" lon="3.57627">
        <ele>38.109375</ele>
        <time>2008-10-05T08:06:12Z</time>
      </trkpt>
      <trkpt lat="50.45187" lon="3.57634">
        <ele>38.109375</ele>
        <time>2008-10-05T08:06:16Z</time>
      </trkpt>
      <trkpt lat="50.45182" lon="3.57636">
        <ele>37.628662109375</ele>
        <time>2008-10-05T08:06:19Z</time>
      </trkpt>
      <trkpt lat="50.45172" lon="3.57652">
        <ele>39.070678710938</ele>
        <time>2008-10-05T08:06:25Z</time>
      </trkpt>
      <trkpt lat="50.45162" lon="3.57664">
        <ele>38.109375</ele>
        <time>2008-10-05T08:06:29Z</time>
      </trkpt>
      <trkpt lat="50.45154" lon="3.57681">
        <ele>36.186767578125</ele>
        <time>2008-10-05T08:06:33Z</time>
      </trkpt>
      <trkpt lat="50.45153" lon="3.57685">
        <ele>35.7060546875</ele>
        <time>2008-10-05T08:06:34Z</time>
      </trkpt>
      <trkpt lat="50.45145" lon="3.57693">
        <ele>35.225463867188</ele>
        <time>2008-10-05T08:06:39Z</time>
      </trkpt>
      <trkpt lat="50.4514" lon="3.57696">
        <ele>36.186767578125</ele>
        <time>2008-10-05T08:06:42Z</time>
      </trkpt>
      <trkpt lat="50.45137" lon="3.57703">
        <ele>35.7060546875</ele>
        <time>2008-10-05T08:06:46Z</time>
      </trkpt>
      <trkpt lat="50.45134" lon="3.57715">
        <ele>36.66748046875</ele>
        <time>2008-10-05T08:06:51Z</time>
      </trkpt>
      <trkpt lat="50.45134" lon="3.57729">
        <ele>37.148071289062</ele>
        <time>2008-10-05T08:06:55Z</time>
      </trkpt>
      <trkpt lat="50.45138" lon="3.57746">
        <ele>35.225463867188</ele>
        <time>2008-10-05T08:07:00Z</time>
      </trkpt>
      <trkpt lat="50.45147" lon="3.57748">
        <ele>34.744873046875</ele>
        <time>2008-10-05T08:07:04Z</time>
      </trkpt>
      <trkpt lat="50.45156" lon="3.57737">
        <ele>34.26416015625</ele>
        <time>2008-10-05T08:07:08Z</time>
      </trkpt>
      <trkpt lat="50.45158" lon="3.57734">
        <ele>33.783447265625</ele>
        <time>2008-10-05T08:07:09Z</time>
      </trkpt>
      <trkpt lat="50.45167" lon="3.5772">
        <ele>35.7060546875</ele>
        <time>2008-10-05T08:07:14Z</time>
      </trkpt>
      <trkpt lat="50.45173" lon="3.57704">
        <ele>36.186767578125</ele>
        <time>2008-10-05T08:07:18Z</time>
      </trkpt>
      <trkpt lat="50.45174" lon="3.57695">
        <ele>35.225463867188</ele>
        <time>2008-10-05T08:07:20Z</time>
      </trkpt>
      <trkpt lat="50.4518" lon="3.57678">
        <ele>34.26416015625</ele>
        <time>2008-10-05T08:07:24Z</time>
      </trkpt>
      <trkpt lat="50.4519" lon="3.57654">
        <ele>36.66748046875</ele>
        <time>2008-10-05T08:07:30Z</time>
      </trkpt>
      <trkpt lat="50.45196" lon="3.57644">
        <ele>35.7060546875</ele>
        <time>2008-10-05T08:07:33Z</time>
      </trkpt>
      <trkpt lat="50.45205" lon="3.57628">
        <ele>33.302856445312</ele>
        <time>2008-10-05T08:07:38Z</time>
      </trkpt>
      <trkpt lat="50.45206" lon="3.57627">
        <ele>32.822265625</ele>
        <time>2008-10-05T08:07:40Z</time>
      </trkpt>
      <trkpt lat="50.45206" lon="3.57626">
        <ele>31.860717773438</ele>
        <time>2008-10-05T08:07:43Z</time>
      </trkpt>
      <trkpt lat="50.45208" lon="3.57622">
        <ele>30.899536132812</ele>
        <time>2008-10-05T08:07:46Z</time>
      </trkpt>
      <trkpt lat="50.45208" lon="3.57622">
        <ele>30.418823242188</ele>
        <time>2008-10-05T08:07:49Z</time>
      </trkpt>
      <trkpt lat="50.45211" lon="3.57617">
        <ele>28.976928710938</ele>
        <time>2008-10-05T08:07:54Z</time>
      </trkpt>
      <trkpt lat="50.45212" lon="3.57617">
        <ele>28.496215820312</ele>
        <time>2008-10-05T08:07:57Z</time>
      </trkpt>
      <trkpt lat="50.45213" lon="3.57617">
        <ele>27.054321289062</ele>
        <time>2008-10-05T08:08:01Z</time>
      </trkpt>
      <trkpt lat="50.45214" lon="3.57617">
        <ele>25.6123046875</ele>
        <time>2008-10-05T08:08:02Z</time>
      </trkpt>
      <trkpt lat="50.45214" lon="3.57618">
        <ele>24.651000976562</ele>
        <time>2008-10-05T08:08:05Z</time>
      </trkpt>
      <trkpt lat="50.45216" lon="3.57618">
        <ele>23.208984375</ele>
        <time>2008-10-05T08:08:08Z</time>
      </trkpt>
      <trkpt lat="50.45217" lon="3.57619">
        <ele>20.324951171875</ele>
        <time>2008-10-05T08:08:14Z</time>
      </trkpt>
      <trkpt lat="50.45221" lon="3.57624">
        <ele>17.921752929688</ele>
        <time>2008-10-05T08:08:20Z</time>
      </trkpt>
      <trkpt lat="50.45222" lon="3.57631">
        <ele>17.441162109375</ele>
        <time>2008-10-05T08:08:25Z</time>
      </trkpt>
      <trkpt lat="50.45223" lon="3.57632">
        <ele>17.921752929688</ele>
        <time>2008-10-05T08:08:28Z</time>
      </trkpt>
      <trkpt lat="50.45222" lon="3.5764">
        <ele>17.921752929688</ele>
        <time>2008-10-05T08:08:32Z</time>
      </trkpt>
      <trkpt lat="50.45222" lon="3.5764">
        <ele>17.921752929688</ele>
        <time>2008-10-05T08:08:35Z</time>
      </trkpt>
      <trkpt lat="50.45216" lon="3.57652">
        <ele>20.324951171875</ele>
        <time>2008-10-05T08:08:39Z</time>
      </trkpt>
      <trkpt lat="50.45207" lon="3.57675">
        <ele>21.286376953125</ele>
        <time>2008-10-05T08:08:44Z</time>
      </trkpt>
      <trkpt lat="50.45194" lon="3.57705">
        <ele>19.844360351562</ele>
        <time>2008-10-05T08:08:50Z</time>
      </trkpt>
      <trkpt lat="50.45183" lon="3.57736">
        <ele>22.728271484375</ele>
        <time>2008-10-05T08:08:55Z</time>
      </trkpt>
      <trkpt lat="50.45169" lon="3.57772">
        <ele>24.651000976562</ele>
        <time>2008-10-05T08:09:00Z</time>
      </trkpt>
      <trkpt lat="50.45154" lon="3.57804">
        <ele>27.054321289062</ele>
        <time>2008-10-05T08:09:06Z</time>
      </trkpt>
      <trkpt lat="50.4514" lon="3.57831">
        <ele>29.938110351562</ele>
        <time>2008-10-05T08:09:11Z</time>
      </trkpt>
      <trkpt lat="50.45122" lon="3.57855">
        <ele>29.938110351562</ele>
        <time>2008-10-05T08:09:17Z</time>
      </trkpt>
      <trkpt lat="50.45116" lon="3.57883">
        <ele>30.899536132812</ele>
        <time>2008-10-05T08:09:22Z</time>
      </trkpt>
      <trkpt lat="50.4511" lon="3.57905">
        <ele>34.26416015625</ele>
        <time>2008-10-05T08:09:27Z</time>
      </trkpt>
      <trkpt lat="50.45095" lon="3.57912">
        <ele>35.225463867188</ele>
        <time>2008-10-05T08:09:33Z</time>
      </trkpt>
      <trkpt lat="50.45089" lon="3.57923">
        <ele>33.302856445312</ele>
        <time>2008-10-05T08:09:36Z</time>
      </trkpt>
      <trkpt lat="50.45086" lon="3.5794">
        <ele>30.418823242188</ele>
        <time>2008-10-05T08:09:38Z</time>
      </trkpt>
      <trkpt lat="50.45078" lon="3.57984">
        <ele>26.573608398438</ele>
        <time>2008-10-05T08:09:42Z</time>
      </trkpt>
      <trkpt lat="50.45063" lon="3.58031">
        <ele>23.208984375</ele>
        <time>2008-10-05T08:09:47Z</time>
      </trkpt>
      <trkpt lat="50.45055" lon="3.58048">
        <ele>22.24755859375</ele>
        <time>2008-10-05T08:09:50Z</time>
      </trkpt>
      <trkpt lat="50.45044" lon="3.58045">
        <ele>20.8056640625</ele>
        <time>2008-10-05T08:09:54Z</time>
      </trkpt>
      <trkpt lat="50.45033" lon="3.58051">
        <ele>19.844360351562</ele>
        <time>2008-10-05T08:09:57Z</time>
      </trkpt>
      <trkpt lat="50.45024" lon="3.58063">
        <ele>16.96044921875</ele>
        <time>2008-10-05T08:10:01Z</time>
      </trkpt>
      <trkpt lat="50.45021" lon="3.58058">
        <ele>16.96044921875</ele>
        <time>2008-10-05T08:10:04Z</time>
      </trkpt>
      <trkpt lat="50.45022" lon="3.58054">
        <ele>16.96044921875</ele>
        <time>2008-10-05T08:10:05Z</time>
      </trkpt>
      <trkpt lat="50.45029" lon="3.5803">
        <ele>15.037719726562</ele>
        <time>2008-10-05T08:10:10Z</time>
      </trkpt>
      <trkpt lat="50.45026" lon="3.58005">
        <ele>17.441162109375</ele>
        <time>2008-10-05T08:10:15Z</time>
      </trkpt>
      <trkpt lat="50.45029" lon="3.57987">
        <ele>16.96044921875</ele>
        <time>2008-10-05T08:10:18Z</time>
      </trkpt>
      <trkpt lat="50.45029" lon="3.57961">
        <ele>18.40234375</ele>
        <time>2008-10-05T08:10:24Z</time>
      </trkpt>
      <trkpt lat="50.45029" lon="3.57959">
        <ele>18.40234375</ele>
        <time>2008-10-05T08:10:25Z</time>
      </trkpt>
      <trkpt lat="50.45023" lon="3.57952">
        <ele>17.921752929688</ele>
        <time>2008-10-05T08:10:29Z</time>
      </trkpt>
      <trkpt lat="50.45015" lon="3.57961">
        <ele>18.40234375</ele>
        <time>2008-10-05T08:10:33Z</time>
      </trkpt>
      <trkpt lat="50.44998" lon="3.57986">
        <ele>19.36376953125</ele>
        <time>2008-10-05T08:10:39Z</time>
      </trkpt>
      <trkpt lat="50.44988" lon="3.58011">
        <ele>19.844360351562</ele>
        <time>2008-10-05T08:10:43Z</time>
      </trkpt>
      <trkpt lat="50.44983" lon="3.58036">
        <ele>18.883056640625</ele>
        <time>2008-10-05T08:10:47Z</time>
      </trkpt>
      <trkpt lat="50.44992" lon="3.58043">
        <ele>17.921752929688</ele>
        <time>2008-10-05T08:10:51Z</time>
      </trkpt>
      <trkpt lat="50.44998" lon="3.58062">
        <ele>15.518432617188</ele>
        <time>2008-10-05T08:10:55Z</time>
      </trkpt>
      <trkpt lat="50.45007" lon="3.58074">
        <ele>14.076416015625</ele>
        <time>2008-10-05T08:10:58Z</time>
      </trkpt>
      <trkpt lat="50.45014" lon="3.58097">
        <ele>13.595825195312</ele>
        <time>2008-10-05T08:11:02Z</time>
      </trkpt>
      <trkpt lat="50.45012" lon="3.5812">
        <ele>12.15380859375</ele>
        <time>2008-10-05T08:11:05Z</time>
      </trkpt>
      <trkpt lat="50.45007" lon="3.58155">
        <ele>13.115112304688</ele>
        <time>2008-10-05T08:11:10Z</time>
      </trkpt>
      <trkpt lat="50.44991" lon="3.58174">
        <ele>10.711791992188</ele>
        <time>2008-10-05T08:11:15Z</time>
      </trkpt>
      <trkpt lat="50.44976" lon="3.58181">
        <ele>11.673217773438</ele>
        <time>2008-10-05T08:11:19Z</time>
      </trkpt>
      <trkpt lat="50.44972" lon="3.58183">
        <ele>12.634399414062</ele>
        <time>2008-10-05T08:11:20Z</time>
      </trkpt>
      <trkpt lat="50.44954" lon="3.58196">
        <ele>13.115112304688</ele>
        <time>2008-10-05T08:11:25Z</time>
      </trkpt>
      <trkpt lat="50.44947" lon="3.58219">
        <ele>14.076416015625</ele>
        <time>2008-10-05T08:11:29Z</time>
      </trkpt>
      <trkpt lat="50.44949" lon="3.58236">
        <ele>15.518432617188</ele>
        <time>2008-10-05T08:11:33Z</time>
      </trkpt>
      <trkpt lat="50.44962" lon="3.58262">
        <ele>13.115112304688</ele>
        <time>2008-10-05T08:11:38Z</time>
      </trkpt>
      <trkpt lat="50.44975" lon="3.58285">
        <ele>12.15380859375</ele>
        <time>2008-10-05T08:11:43Z</time>
      </trkpt>
      <trkpt lat="50.44976" lon="3.58289">
        <ele>13.115112304688</ele>
        <time>2008-10-05T08:11:44Z</time>
      </trkpt>
      <trkpt lat="50.44972" lon="3.5831">
        <ele>15.518432617188</ele>
        <time>2008-10-05T08:11:49Z</time>
      </trkpt>
      <trkpt lat="50.44959" lon="3.58323">
        <ele>15.9990234375</ele>
        <time>2008-10-05T08:11:53Z</time>
      </trkpt>
      <trkpt lat="50.44934" lon="3.58338">
        <ele>17.441162109375</ele>
        <time>2008-10-05T08:11:59Z</time>
      </trkpt>
      <trkpt lat="50.44902" lon="3.5836">
        <ele>17.921752929688</ele>
        <time>2008-10-05T08:12:07Z</time>
      </trkpt>
      <trkpt lat="50.44877" lon="3.58378">
        <ele>16.479736328125</ele>
        <time>2008-10-05T08:12:13Z</time>
      </trkpt>
      <trkpt lat="50.44842" lon="3.58397">
        <ele>15.9990234375</ele>
        <time>2008-10-05T08:12:20Z</time>
      </trkpt>
      <trkpt lat="50.44813" lon="3.58416">
        <ele>14.076416015625</ele>
        <time>2008-10-05T08:12:26Z</time>
      </trkpt>
      <trkpt lat="50.44785" lon="3.58436">
        <ele>15.037719726562</ele>
        <time>2008-10-05T08:12:32Z</time>
      </trkpt>
      <trkpt lat="50.44757" lon="3.58455">
        <ele>16.96044921875</ele>
        <time>2008-10-05T08:12:38Z</time>
      </trkpt>
      <trkpt lat="50.44729" lon="3.58474">
        <ele>17.441162109375</ele>
        <time>2008-10-05T08:12:44Z</time>
      </trkpt>
      <trkpt lat="50.44695" lon="3.58496">
        <ele>19.844360351562</ele>
        <time>2008-10-05T08:12:51Z</time>
      </trkpt>
      <trkpt lat="50.44676" lon="3.58508">
        <ele>20.8056640625</ele>
        <time>2008-10-05T08:12:56Z</time>
      </trkpt>
      <trkpt lat="50.44651" lon="3.58523">
        <ele>21.286376953125</ele>
        <time>2008-10-05T08:13:04Z</time>
      </trkpt>
      <trkpt lat="50.44645" lon="3.58526">
        <ele>21.286376953125</ele>
        <time>2008-10-05T08:13:09Z</time>
      </trkpt>
      <trkpt lat="50.44645" lon="3.58528">
        <ele>20.8056640625</ele>
        <time>2008-10-05T08:13:30Z</time>
      </trkpt>
      <trkpt lat="50.44645" lon="3.58538">
        <ele>20.324951171875</ele>
        <time>2008-10-05T08:13:33Z</time>
      </trkpt>
      <trkpt lat="50.4465" lon="3.58545">
        <ele>19.844360351562</ele>
        <time>2008-10-05T08:13:36Z</time>
      </trkpt>
      <trkpt lat="50.44653" lon="3.58569">
        <ele>18.40234375</ele>
        <time>2008-10-05T08:13:41Z</time>
      </trkpt>
      <trkpt lat="50.44662" lon="3.58582">
        <ele>17.441162109375</ele>
        <time>2008-10-05T08:13:44Z</time>
      </trkpt>
      <trkpt lat="50.44678" lon="3.586">
        <ele>15.9990234375</ele>
        <time>2008-10-05T08:13:48Z</time>
      </trkpt>
      <trkpt lat="50.44688" lon="3.58623">
        <ele>13.595825195312</ele>
        <time>2008-10-05T08:13:53Z</time>
      </trkpt>
      <trkpt lat="50.44682" lon="3.58646">
        <ele>14.557006835938</ele>
        <time>2008-10-05T08:13:57Z</time>
      </trkpt>
      <trkpt lat="50.4468" lon="3.58661">
        <ele>14.557006835938</ele>
        <time>2008-10-05T08:13:59Z</time>
      </trkpt>
      <trkpt lat="50.44674" lon="3.58691">
        <ele>15.037719726562</ele>
        <time>2008-10-05T08:14:03Z</time>
      </trkpt>
      <trkpt lat="50.44676" lon="3.58709">
        <ele>14.557006835938</ele>
        <time>2008-10-05T08:14:07Z</time>
      </trkpt>
      <trkpt lat="50.44678" lon="3.58706">
        <ele>14.557006835938</ele>
        <time>2008-10-05T08:14:08Z</time>
      </trkpt>
      <trkpt lat="50.44696" lon="3.5868">
        <ele>13.595825195312</ele>
        <time>2008-10-05T08:14:13Z</time>
      </trkpt>
      <trkpt lat="50.44728" lon="3.58632">
        <ele>11.673217773438</ele>
        <time>2008-10-05T08:14:21Z</time>
      </trkpt>
      <trkpt lat="50.44743" lon="3.58604">
        <ele>10.711791992188</ele>
        <time>2008-10-05T08:14:25Z</time>
      </trkpt>
      <trkpt lat="50.44756" lon="3.58585">
        <ele>10.711791992188</ele>
        <time>2008-10-05T08:14:28Z</time>
      </trkpt>
      <trkpt lat="50.44777" lon="3.58572">
        <ele>10.231201171875</ele>
        <time>2008-10-05T08:14:32Z</time>
      </trkpt>
      <trkpt lat="50.44794" lon="3.58581">
        <ele>9.2698974609375</ele>
        <time>2008-10-05T08:14:35Z</time>
      </trkpt>
      <trkpt lat="50.44848" lon="3.58626">
        <ele>9.7506103515625</ele>
        <time>2008-10-05T08:14:45Z</time>
      </trkpt>
      <trkpt lat="50.44875" lon="3.5865">
        <ele>9.2698974609375</ele>
        <time>2008-10-05T08:14:50Z</time>
      </trkpt>
      <trkpt lat="50.44899" lon="3.58656">
        <ele>8.7891845703125</ele>
        <time>2008-10-05T08:14:54Z</time>
      </trkpt>
      <trkpt lat="50.44916" lon="3.58649">
        <ele>9.2698974609375</ele>
        <time>2008-10-05T08:14:57Z</time>
      </trkpt>
      <trkpt lat="50.4493" lon="3.58656">
        <ele>9.7506103515625</ele>
        <time>2008-10-05T08:15:01Z</time>
      </trkpt>
      <trkpt lat="50.44936" lon="3.58666">
        <ele>11.192504882812</ele>
        <time>2008-10-05T08:15:05Z</time>
      </trkpt>
      <trkpt lat="50.44937" lon="3.58668">
        <ele>11.673217773438</ele>
        <time>2008-10-05T08:15:09Z</time>
      </trkpt>
      <trkpt lat="50.44937" lon="3.58669">
        <ele>13.595825195312</ele>
        <time>2008-10-05T08:15:19Z</time>
      </trkpt>
      <trkpt lat="50.44938" lon="3.58672">
        <ele>14.557006835938</ele>
        <time>2008-10-05T08:15:24Z</time>
      </trkpt>
      <trkpt lat="50.44938" lon="3.58672">
        <ele>15.037719726562</ele>
        <time>2008-10-05T08:15:25Z</time>
      </trkpt>
      <trkpt lat="50.44939" lon="3.58672">
        <ele>15.037719726562</ele>
        <time>2008-10-05T08:15:28Z</time>
      </trkpt>
      <trkpt lat="50.44941" lon="3.58671">
        <ele>14.076416015625</ele>
        <time>2008-10-05T08:15:30Z</time>
      </trkpt>
      <trkpt lat="50.44945" lon="3.58668">
        <ele>11.192504882812</ele>
        <time>2008-10-05T08:15:38Z</time>
      </trkpt>
      <trkpt lat="50.44952" lon="3.58664">
        <ele>10.231201171875</ele>
        <time>2008-10-05T08:15:44Z</time>
      </trkpt>
      <trkpt lat="50.44967" lon="3.58654">
        <ele>11.673217773438</ele>
        <time>2008-10-05T08:15:50Z</time>
      </trkpt>
      <trkpt lat="50.44989" lon="3.58636">
        <ele>20.8056640625</ele>
        <time>2008-10-05T08:15:58Z</time>
      </trkpt>
      <trkpt lat="50.45002" lon="3.5863">
        <ele>21.766967773438</ele>
        <time>2008-10-05T08:16:03Z</time>
      </trkpt>
      <trkpt lat="50.45013" lon="3.58645">
        <ele>19.844360351562</ele>
        <time>2008-10-05T08:16:07Z</time>
      </trkpt>
      <trkpt lat="50.4502" lon="3.58667">
        <ele>23.689575195312</ele>
        <time>2008-10-05T08:16:10Z</time>
      </trkpt>
      <trkpt lat="50.45046" lon="3.58723">
        <ele>22.728271484375</ele>
        <time>2008-10-05T08:16:18Z</time>
      </trkpt>
      <trkpt lat="50.45067" lon="3.58773">
        <ele>15.9990234375</ele>
        <time>2008-10-05T08:16:25Z</time>
      </trkpt>
      <trkpt lat="50.45088" lon="3.58793">
        <ele>17.441162109375</ele>
        <time>2008-10-05T08:16:30Z</time>
      </trkpt>
      <trkpt lat="50.45092" lon="3.58794">
        <ele>17.921752929688</ele>
        <time>2008-10-05T08:16:31Z</time>
      </trkpt>
      <trkpt lat="50.45112" lon="3.58799">
        <ele>22.24755859375</ele>
        <time>2008-10-05T08:16:38Z</time>
      </trkpt>
      <trkpt lat="50.45116" lon="3.58799">
        <ele>23.208984375</ele>
        <time>2008-10-05T08:16:39Z</time>
      </trkpt>
      <trkpt lat="50.45154" lon="3.5881">
        <ele>35.225463867188</ele>
        <time>2008-10-05T08:16:47Z</time>
      </trkpt>
      <trkpt lat="50.45163" lon="3.58814">
        <ele>38.590087890625</ele>
        <time>2008-10-05T08:16:49Z</time>
      </trkpt>
      <trkpt lat="50.45185" lon="3.58823">
        <ele>41.954711914062</ele>
        <time>2008-10-05T08:16:54Z</time>
      </trkpt>
      <trkpt lat="50.45209" lon="3.5883">
        <ele>43.396606445312</ele>
        <time>2008-10-05T08:16:59Z</time>
      </trkpt>
      <trkpt lat="50.45229" lon="3.58833">
        <ele>45.799926757812</ele>
        <time>2008-10-05T08:17:03Z</time>
      </trkpt>
      <trkpt lat="50.45244" lon="3.5885">
        <ele>41.954711914062</ele>
        <time>2008-10-05T08:17:07Z</time>
      </trkpt>
      <trkpt lat="50.45244" lon="3.58869">
        <ele>33.783447265625</ele>
        <time>2008-10-05T08:17:10Z</time>
      </trkpt>
      <trkpt lat="50.45239" lon="3.58895">
        <ele>28.015502929688</ele>
        <time>2008-10-05T08:17:14Z</time>
      </trkpt>
      <trkpt lat="50.4523" lon="3.58947">
        <ele>27.054321289062</ele>
        <time>2008-10-05T08:17:21Z</time>
      </trkpt>
      <trkpt lat="50.45222" lon="3.59006">
        <ele>22.24755859375</ele>
        <time>2008-10-05T08:17:29Z</time>
      </trkpt>
      <trkpt lat="50.45219" lon="3.59029">
        <ele>22.24755859375</ele>
        <time>2008-10-05T08:17:32Z</time>
      </trkpt>
      <trkpt lat="50.45217" lon="3.59056">
        <ele>22.24755859375</ele>
        <time>2008-10-05T08:17:37Z</time>
      </trkpt>
      <trkpt lat="50.45218" lon="3.59069">
        <ele>22.24755859375</ele>
        <time>2008-10-05T08:17:41Z</time>
      </trkpt>
      <trkpt lat="50.4521" lon="3.59088">
        <ele>19.844360351562</ele>
        <time>2008-10-05T08:17:46Z</time>
      </trkpt>
      <trkpt lat="50.45196" lon="3.59114">
        <ele>18.40234375</ele>
        <time>2008-10-05T08:17:51Z</time>
      </trkpt>
      <trkpt lat="50.45189" lon="3.59139">
        <ele>17.921752929688</ele>
        <time>2008-10-05T08:17:55Z</time>
      </trkpt>
      <trkpt lat="50.45179" lon="3.59165">
        <ele>17.441162109375</ele>
        <time>2008-10-05T08:17:59Z</time>
      </trkpt>
      <trkpt lat="50.45179" lon="3.59195">
        <ele>16.479736328125</ele>
        <time>2008-10-05T08:18:03Z</time>
      </trkpt>
      <trkpt lat="50.45183" lon="3.59201">
        <ele>16.479736328125</ele>
        <time>2008-10-05T08:18:04Z</time>
      </trkpt>
      <trkpt lat="50.45199" lon="3.59232">
        <ele>15.9990234375</ele>
        <time>2008-10-05T08:18:09Z</time>
      </trkpt>
      <trkpt lat="50.45199" lon="3.59241">
        <ele>15.9990234375</ele>
        <time>2008-10-05T08:18:10Z</time>
      </trkpt>
      <trkpt lat="50.45194" lon="3.59339">
        <ele>15.037719726562</ele>
        <time>2008-10-05T08:18:20Z</time>
      </trkpt>
      <trkpt lat="50.45193" lon="3.59359">
        <ele>15.037719726562</ele>
        <time>2008-10-05T08:18:22Z</time>
      </trkpt>
      <trkpt lat="50.45199" lon="3.59387">
        <ele>14.076416015625</ele>
        <time>2008-10-05T08:18:26Z</time>
      </trkpt>
      <trkpt lat="50.45208" lon="3.59414">
        <ele>14.076416015625</ele>
        <time>2008-10-05T08:18:30Z</time>
      </trkpt>
      <trkpt lat="50.45222" lon="3.59451">
        <ele>15.037719726562</ele>
        <time>2008-10-05T08:18:35Z</time>
      </trkpt>
      <trkpt lat="50.45226" lon="3.5946">
        <ele>14.557006835938</ele>
        <time>2008-10-05T08:18:36Z</time>
      </trkpt>
      <trkpt lat="50.45244" lon="3.59516">
        <ele>13.595825195312</ele>
        <time>2008-10-05T08:18:43Z</time>
      </trkpt>
      <trkpt lat="50.45251" lon="3.59555">
        <ele>13.115112304688</ele>
        <time>2008-10-05T08:18:47Z</time>
      </trkpt>
      <trkpt lat="50.45265" lon="3.5959">
        <ele>15.037719726562</ele>
        <time>2008-10-05T08:18:51Z</time>
      </trkpt>
      <trkpt lat="50.45277" lon="3.59593">
        <ele>15.9990234375</ele>
        <time>2008-10-05T08:18:53Z</time>
      </trkpt>
      <trkpt lat="50.45292" lon="3.5958">
        <ele>16.479736328125</ele>
        <time>2008-10-05T08:18:56Z</time>
      </trkpt>
      <trkpt lat="50.45296" lon="3.59577">
        <ele>16.96044921875</ele>
        <time>2008-10-05T08:18:57Z</time>
      </trkpt>
      <trkpt lat="50.45334" lon="3.59545">
        <ele>19.36376953125</ele>
        <time>2008-10-05T08:19:04Z</time>
      </trkpt>
      <trkpt lat="50.45344" lon="3.59535">
        <ele>19.36376953125</ele>
        <time>2008-10-05T08:19:06Z</time>
      </trkpt>
      <trkpt lat="50.45357" lon="3.59512">
        <ele>15.9990234375</ele>
        <time>2008-10-05T08:19:10Z</time>
      </trkpt>
      <trkpt lat="50.45377" lon="3.59501">
        <ele>12.634399414062</ele>
        <time>2008-10-05T08:19:14Z</time>
      </trkpt>
      <trkpt lat="50.45409" lon="3.59476">
        <ele>14.076416015625</ele>
        <time>2008-10-05T08:19:20Z</time>
      </trkpt>
      <trkpt lat="50.45425" lon="3.5945">
        <ele>12.15380859375</ele>
        <time>2008-10-05T08:19:24Z</time>
      </trkpt>
      <trkpt lat="50.45432" lon="3.59424">
        <ele>12.634399414062</ele>
        <time>2008-10-05T08:19:27Z</time>
      </trkpt>
      <trkpt lat="50.45451" lon="3.59384">
        <ele>10.711791992188</ele>
        <time>2008-10-05T08:19:33Z</time>
      </trkpt>
      <trkpt lat="50.45471" lon="3.5935">
        <ele>10.231201171875</ele>
        <time>2008-10-05T08:19:38Z</time>
      </trkpt>
      <trkpt lat="50.45486" lon="3.59332">
        <ele>10.231201171875</ele>
        <time>2008-10-05T08:19:41Z</time>
      </trkpt>
      <trkpt lat="50.45502" lon="3.59322">
        <ele>10.231201171875</ele>
        <time>2008-10-05T08:19:44Z</time>
      </trkpt>
      <trkpt lat="50.45535" lon="3.59302">
        <ele>9.2698974609375</ele>
        <time>2008-10-05T08:19:50Z</time>
      </trkpt>
      <trkpt lat="50.45557" lon="3.59296">
        <ele>8.7891845703125</ele>
        <time>2008-10-05T08:19:54Z</time>
      </trkpt>
      <trkpt lat="50.45592" lon="3.59295">
        <ele>9.2698974609375</ele>
        <time>2008-10-05T08:20:00Z</time>
      </trkpt>
      <trkpt lat="50.45604" lon="3.59294">
        <ele>9.2698974609375</ele>
        <time>2008-10-05T08:20:02Z</time>
      </trkpt>
      <trkpt lat="50.45628" lon="3.59301">
        <ele>10.231201171875</ele>
        <time>2008-10-05T08:20:07Z</time>
      </trkpt>
      <trkpt lat="50.45633" lon="3.59305">
        <ele>10.231201171875</ele>
        <time>2008-10-05T08:20:08Z</time>
      </trkpt>
      <trkpt lat="50.4566" lon="3.59329">
        <ele>11.673217773438</ele>
        <time>2008-10-05T08:20:14Z</time>
      </trkpt>
      <trkpt lat="50.45666" lon="3.59335">
        <ele>12.634399414062</ele>
        <time>2008-10-05T08:20:16Z</time>
      </trkpt>
      <trkpt lat="50.45668" lon="3.59352">
        <ele>12.15380859375</ele>
        <time>2008-10-05T08:20:19Z</time>
      </trkpt>
      <trkpt lat="50.45671" lon="3.59374">
        <ele>11.673217773438</ele>
        <time>2008-10-05T08:20:22Z</time>
      </trkpt>
      <trkpt lat="50.4568" lon="3.59404">
        <ele>11.192504882812</ele>
        <time>2008-10-05T08:20:26Z</time>
      </trkpt>
      <trkpt lat="50.45683" lon="3.59427">
        <ele>11.673217773438</ele>
        <time>2008-10-05T08:20:29Z</time>
      </trkpt>
      <trkpt lat="50.45677" lon="3.59463">
        <ele>11.192504882812</ele>
        <time>2008-10-05T08:20:34Z</time>
      </trkpt>
      <trkpt lat="50.45676" lon="3.5947">
        <ele>11.192504882812</ele>
        <time>2008-10-05T08:20:35Z</time>
      </trkpt>
      <trkpt lat="50.45673" lon="3.59485">
        <ele>12.634399414062</ele>
        <time>2008-10-05T08:20:37Z</time>
      </trkpt>
      <trkpt lat="50.45664" lon="3.59519">
        <ele>13.115112304688</ele>
        <time>2008-10-05T08:20:42Z</time>
      </trkpt>
      <trkpt lat="50.45657" lon="3.59544">
        <ele>12.634399414062</ele>
        <time>2008-10-05T08:20:46Z</time>
      </trkpt>
      <trkpt lat="50.45656" lon="3.59557">
        <ele>14.076416015625</ele>
        <time>2008-10-05T08:20:48Z</time>
      </trkpt>
      <trkpt lat="50.45646" lon="3.59598">
        <ele>16.479736328125</ele>
        <time>2008-10-05T08:20:54Z</time>
      </trkpt>
      <trkpt lat="50.45636" lon="3.59621">
        <ele>16.479736328125</ele>
        <time>2008-10-05T08:20:58Z</time>
      </trkpt>
      <trkpt lat="50.45631" lon="3.59639">
        <ele>16.479736328125</ele>
        <time>2008-10-05T08:21:00Z</time>
      </trkpt>
      <trkpt lat="50.45628" lon="3.59658">
        <ele>16.479736328125</ele>
        <time>2008-10-05T08:21:02Z</time>
      </trkpt>
      <trkpt lat="50.4563" lon="3.59695">
        <ele>16.96044921875</ele>
        <time>2008-10-05T08:21:06Z</time>
      </trkpt>
      <trkpt lat="50.45643" lon="3.59727">
        <ele>16.479736328125</ele>
        <time>2008-10-05T08:21:10Z</time>
      </trkpt>
      <trkpt lat="50.45651" lon="3.59742">
        <ele>15.9990234375</ele>
        <time>2008-10-05T08:21:12Z</time>
      </trkpt>
      <trkpt lat="50.45661" lon="3.5978">
        <ele>14.557006835938</ele>
        <time>2008-10-05T08:21:16Z</time>
      </trkpt>
      <trkpt lat="50.4566" lon="3.5979">
        <ele>14.076416015625</ele>
        <time>2008-10-05T08:21:17Z</time>
      </trkpt>
      <trkpt lat="50.4566" lon="3.59842">
        <ele>13.115112304688</ele>
        <time>2008-10-05T08:21:22Z</time>
      </trkpt>
      <trkpt lat="50.45673" lon="3.59863">
        <ele>13.595825195312</ele>
        <time>2008-10-05T08:21:25Z</time>
      </trkpt>
      <trkpt lat="50.4569" lon="3.59902">
        <ele>12.634399414062</ele>
        <time>2008-10-05T08:21:30Z</time>
      </trkpt>
      <trkpt lat="50.45692" lon="3.59911">
        <ele>12.15380859375</ele>
        <time>2008-10-05T08:21:31Z</time>
      </trkpt>
      <trkpt lat="50.45711" lon="3.5995">
        <ele>11.192504882812</ele>
        <time>2008-10-05T08:21:36Z</time>
      </trkpt>
      <trkpt lat="50.45724" lon="3.59957">
        <ele>12.15380859375</ele>
        <time>2008-10-05T08:21:38Z</time>
      </trkpt>
      <trkpt lat="50.45754" lon="3.59948">
        <ele>12.634399414062</ele>
        <time>2008-10-05T08:21:43Z</time>
      </trkpt>
      <trkpt lat="50.45775" lon="3.59923">
        <ele>10.711791992188</ele>
        <time>2008-10-05T08:21:47Z</time>
      </trkpt>
      <trkpt lat="50.45787" lon="3.5992">
        <ele>11.192504882812</ele>
        <time>2008-10-05T08:21:49Z</time>
      </trkpt>
      <trkpt lat="50.45817" lon="3.59908">
        <ele>11.673217773438</ele>
        <time>2008-10-05T08:21:54Z</time>
      </trkpt>
      <trkpt lat="50.45832" lon="3.59875">
        <ele>12.15380859375</ele>
        <time>2008-10-05T08:21:58Z</time>
      </trkpt>
      <trkpt lat="50.45851" lon="3.5985">
        <ele>12.15380859375</ele>
        <time>2008-10-05T08:22:02Z</time>
      </trkpt>
      <trkpt lat="50.45863" lon="3.59841">
        <ele>11.673217773438</ele>
        <time>2008-10-05T08:22:04Z</time>
      </trkpt>
      <trkpt lat="50.45879" lon="3.59823">
        <ele>10.711791992188</ele>
        <time>2008-10-05T08:22:07Z</time>
      </trkpt>
      <trkpt lat="50.45902" lon="3.59786">
        <ele>10.231201171875</ele>
        <time>2008-10-05T08:22:12Z</time>
      </trkpt>
      <trkpt lat="50.45944" lon="3.59738">
        <ele>10.711791992188</ele>
        <time>2008-10-05T08:22:20Z</time>
      </trkpt>
      <trkpt lat="50.45961" lon="3.59728">
        <ele>11.673217773438</ele>
        <time>2008-10-05T08:22:23Z</time>
      </trkpt>
      <trkpt lat="50.45988" lon="3.59733">
        <ele>13.115112304688</ele>
        <time>2008-10-05T08:22:28Z</time>
      </trkpt>
      <trkpt lat="50.46011" lon="3.59743">
        <ele>13.115112304688</ele>
        <time>2008-10-05T08:22:32Z</time>
      </trkpt>
      <trkpt lat="50.46046" lon="3.59773">
        <ele>13.115112304688</ele>
        <time>2008-10-05T08:22:38Z</time>
      </trkpt>
      <trkpt lat="50.46075" lon="3.59822">
        <ele>12.634399414062</ele>
        <time>2008-10-05T08:22:44Z</time>
      </trkpt>
      <trkpt lat="50.46099" lon="3.59869">
        <ele>11.673217773438</ele>
        <time>2008-10-05T08:22:50Z</time>
      </trkpt>
      <trkpt lat="50.46122" lon="3.59927">
        <ele>9.2698974609375</ele>
        <time>2008-10-05T08:22:57Z</time>
      </trkpt>
      <trkpt lat="50.46127" lon="3.59946">
        <ele>8.7891845703125</ele>
        <time>2008-10-05T08:22:59Z</time>
      </trkpt>
      <trkpt lat="50.46144" lon="3.60035">
        <ele>6.866455078125</ele>
        <time>2008-10-05T08:23:08Z</time>
      </trkpt>
      <trkpt lat="50.46151" lon="3.60104">
        <ele>5.9052734375</ele>
        <time>2008-10-05T08:23:15Z</time>
      </trkpt>
      <trkpt lat="50.46155" lon="3.60194">
        <ele>5.424560546875</ele>
        <time>2008-10-05T08:23:24Z</time>
      </trkpt>
      <trkpt lat="50.46154" lon="3.60263">
        <ele>5.424560546875</ele>
        <time>2008-10-05T08:23:31Z</time>
      </trkpt>
      <trkpt lat="50.46153" lon="3.60281">
        <ele>5.424560546875</ele>
        <time>2008-10-05T08:23:33Z</time>
      </trkpt>
      <trkpt lat="50.46151" lon="3.60326">
        <ele>5.9052734375</ele>
        <time>2008-10-05T08:23:38Z</time>
      </trkpt>
      <trkpt lat="50.46145" lon="3.60366">
        <ele>6.866455078125</ele>
        <time>2008-10-05T08:23:43Z</time>
      </trkpt>
      <trkpt lat="50.46145" lon="3.60376">
        <ele>6.866455078125</ele>
        <time>2008-10-05T08:23:44Z</time>
      </trkpt>
      <trkpt lat="50.46132" lon="3.60461">
        <ele>8.30859375</ele>
        <time>2008-10-05T08:23:53Z</time>
      </trkpt>
      <trkpt lat="50.46121" lon="3.6054">
        <ele>9.7506103515625</ele>
        <time>2008-10-05T08:24:01Z</time>
      </trkpt>
      <trkpt lat="50.46113" lon="3.60603">
        <ele>10.231201171875</ele>
        <time>2008-10-05T08:24:08Z</time>
      </trkpt>
      <trkpt lat="50.46106" lon="3.6067">
        <ele>11.673217773438</ele>
        <time>2008-10-05T08:24:15Z</time>
      </trkpt>
      <trkpt lat="50.46104" lon="3.60736">
        <ele>11.192504882812</ele>
        <time>2008-10-05T08:24:22Z</time>
      </trkpt>
      <trkpt lat="50.46104" lon="3.60814">
        <ele>9.7506103515625</ele>
        <time>2008-10-05T08:24:30Z</time>
      </trkpt>
      <trkpt lat="50.4611" lon="3.60861">
        <ele>8.7891845703125</ele>
        <time>2008-10-05T08:24:35Z</time>
      </trkpt>
      <trkpt lat="50.4611" lon="3.60871">
        <ele>8.7891845703125</ele>
        <time>2008-10-05T08:24:36Z</time>
      </trkpt>
      <trkpt lat="50.46102" lon="3.60939">
        <ele>8.7891845703125</ele>
        <time>2008-10-05T08:24:43Z</time>
      </trkpt>
      <trkpt lat="50.4609" lon="3.61006">
        <ele>8.30859375</ele>
        <time>2008-10-05T08:24:50Z</time>
      </trkpt>
      <trkpt lat="50.46084" lon="3.61034">
        <ele>8.30859375</ele>
        <time>2008-10-05T08:24:53Z</time>
      </trkpt>
      <trkpt lat="50.46084" lon="3.61061">
        <ele>8.7891845703125</ele>
        <time>2008-10-05T08:24:56Z</time>
      </trkpt>
      <trkpt lat="50.46096" lon="3.61102">
        <ele>9.2698974609375</ele>
        <time>2008-10-05T08:25:01Z</time>
      </trkpt>
      <trkpt lat="50.46119" lon="3.61142">
        <ele>9.2698974609375</ele>
        <time>2008-10-05T08:25:07Z</time>
      </trkpt>
      <trkpt lat="50.46141" lon="3.61186">
        <ele>9.7506103515625</ele>
        <time>2008-10-05T08:25:14Z</time>
      </trkpt>
      <trkpt lat="50.46153" lon="3.61233">
        <ele>10.711791992188</ele>
        <time>2008-10-05T08:25:20Z</time>
      </trkpt>
      <trkpt lat="50.46159" lon="3.61312">
        <ele>12.15380859375</ele>
        <time>2008-10-05T08:25:30Z</time>
      </trkpt>
      <trkpt lat="50.46159" lon="3.61319">
        <ele>12.634399414062</ele>
        <time>2008-10-05T08:25:31Z</time>
      </trkpt>
      <trkpt lat="50.4615" lon="3.61361">
        <ele>13.595825195312</ele>
        <time>2008-10-05T08:25:37Z</time>
      </trkpt>
      <trkpt lat="50.46141" lon="3.61378">
        <ele>14.557006835938</ele>
        <time>2008-10-05T08:25:40Z</time>
      </trkpt>
      <trkpt lat="50.46137" lon="3.61412">
        <ele>16.479736328125</ele>
        <time>2008-10-05T08:25:46Z</time>
      </trkpt>
      <trkpt lat="50.46152" lon="3.61431">
        <ele>16.96044921875</ele>
        <time>2008-10-05T08:25:51Z</time>
      </trkpt>
      <trkpt lat="50.46175" lon="3.61443">
        <ele>17.441162109375</ele>
        <time>2008-10-05T08:25:57Z</time>
      </trkpt>
      <trkpt lat="50.46191" lon="3.61449">
        <ele>17.441162109375</ele>
        <time>2008-10-05T08:26:01Z</time>
      </trkpt>
      <trkpt lat="50.46211" lon="3.61461">
        <ele>17.441162109375</ele>
        <time>2008-10-05T08:26:06Z</time>
      </trkpt>
      <trkpt lat="50.4624" lon="3.61486">
        <ele>16.96044921875</ele>
        <time>2008-10-05T08:26:12Z</time>
      </trkpt>
      <trkpt lat="50.4628" lon="3.61522">
        <ele>16.479736328125</ele>
        <time>2008-10-05T08:26:19Z</time>
      </trkpt>
      <trkpt lat="50.46312" lon="3.61556">
        <ele>16.96044921875</ele>
        <time>2008-10-05T08:26:25Z</time>
      </trkpt>
      <trkpt lat="50.4635" lon="3.61583">
        <ele>17.441162109375</ele>
        <time>2008-10-05T08:26:32Z</time>
      </trkpt>
      <trkpt lat="50.46362" lon="3.61589">
        <ele>17.441162109375</ele>
        <time>2008-10-05T08:26:34Z</time>
      </trkpt>
      <trkpt lat="50.46396" lon="3.61593">
        <ele>19.36376953125</ele>
        <time>2008-10-05T08:26:40Z</time>
      </trkpt>
      <trkpt lat="50.46437" lon="3.6158">
        <ele>19.844360351562</ele>
        <time>2008-10-05T08:26:47Z</time>
      </trkpt>
      <trkpt lat="50.46482" lon="3.61567">
        <ele>19.36376953125</ele>
        <time>2008-10-05T08:26:54Z</time>
      </trkpt>
      <trkpt lat="50.46519" lon="3.61566">
        <ele>20.324951171875</ele>
        <time>2008-10-05T08:27:00Z</time>
      </trkpt>
      <trkpt lat="50.46524" lon="3.61566">
        <ele>20.8056640625</ele>
        <time>2008-10-05T08:27:01Z</time>
      </trkpt>
      <trkpt lat="50.46555" lon="3.61564">
        <ele>20.324951171875</ele>
        <time>2008-10-05T08:27:06Z</time>
      </trkpt>
      <trkpt lat="50.46569" lon="3.6156">
        <ele>19.844360351562</ele>
        <time>2008-10-05T08:27:08Z</time>
      </trkpt>
      <trkpt lat="50.46608" lon="3.61582">
        <ele>15.037719726562</ele>
        <time>2008-10-05T08:27:13Z</time>
      </trkpt>
      <trkpt lat="50.46627" lon="3.61609">
        <ele>14.076416015625</ele>
        <time>2008-10-05T08:27:16Z</time>
      </trkpt>
      <trkpt lat="50.46634" lon="3.61617">
        <ele>14.076416015625</ele>
        <time>2008-10-05T08:27:17Z</time>
      </trkpt>
      <trkpt lat="50.46649" lon="3.61638">
        <ele>13.595825195312</ele>
        <time>2008-10-05T08:27:21Z</time>
      </trkpt>
      <trkpt lat="50.46645" lon="3.61645">
        <ele>14.076416015625</ele>
        <time>2008-10-05T08:27:23Z</time>
      </trkpt>
      <trkpt lat="50.46635" lon="3.6166">
        <ele>13.595825195312</ele>
        <time>2008-10-05T08:27:27Z</time>
      </trkpt>
      <trkpt lat="50.46637" lon="3.61672">
        <ele>12.634399414062</ele>
        <time>2008-10-05T08:27:31Z</time>
      </trkpt>
      <trkpt lat="50.46637" lon="3.61673">
        <ele>12.634399414062</ele>
        <time>2008-10-05T08:27:32Z</time>
      </trkpt>
      <trkpt lat="50.46636" lon="3.61673">
        <ele>12.634399414062</ele>
        <time>2008-10-05T08:27:35Z</time>
      </trkpt>
      <trkpt lat="50.46632" lon="3.61676">
        <ele>13.595825195312</ele>
        <time>2008-10-05T08:27:38Z</time>
      </trkpt>
      <trkpt lat="50.46622" lon="3.61688">
        <ele>16.479736328125</ele>
        <time>2008-10-05T08:27:46Z</time>
      </trkpt>
      <trkpt lat="50.46613" lon="3.61697">
        <ele>18.40234375</ele>
        <time>2008-10-05T08:27:54Z</time>
      </trkpt>
      <trkpt lat="50.46613" lon="3.61697">
        <ele>18.40234375</ele>
        <time>2008-10-05T08:27:55Z</time>
      </trkpt>
      <trkpt lat="50.46613" lon="3.61697">
        <ele>18.40234375</ele>
        <time>2008-10-05T08:28:00Z</time>
      </trkpt>
      <trkpt lat="50.46608" lon="3.61701">
        <ele>18.883056640625</ele>
        <time>2008-10-05T08:28:02Z</time>
      </trkpt>
      <trkpt lat="50.46593" lon="3.61708">
        <ele>20.324951171875</ele>
        <time>2008-10-05T08:28:08Z</time>
      </trkpt>
      <trkpt lat="50.46569" lon="3.61718">
        <ele>23.208984375</ele>
        <time>2008-10-05T08:28:16Z</time>
      </trkpt>
      <trkpt lat="50.4655" lon="3.61732">
        <ele>24.170288085938</ele>
        <time>2008-10-05T08:28:22Z</time>
      </trkpt>
      <trkpt lat="50.46527" lon="3.61754">
        <ele>27.054321289062</ele>
        <time>2008-10-05T08:28:30Z</time>
      </trkpt>
      <trkpt lat="50.46511" lon="3.61773">
        <ele>26.573608398438</ele>
        <time>2008-10-05T08:28:36Z</time>
      </trkpt>
      <trkpt lat="50.46497" lon="3.61796">
        <ele>26.573608398438</ele>
        <time>2008-10-05T08:28:42Z</time>
      </trkpt>
      <trkpt lat="50.46475" lon="3.61821">
        <ele>24.651000976562</ele>
        <time>2008-10-05T08:28:49Z</time>
      </trkpt>
      <trkpt lat="50.46471" lon="3.61824">
        <ele>24.170288085938</ele>
        <time>2008-10-05T08:28:50Z</time>
      </trkpt>
      <trkpt lat="50.46463" lon="3.61856">
        <ele>19.844360351562</ele>
        <time>2008-10-05T08:28:54Z</time>
      </trkpt>
      <trkpt lat="50.46464" lon="3.61913">
        <ele>14.557006835938</ele>
        <time>2008-10-05T08:28:59Z</time>
      </trkpt>
      <trkpt lat="50.46457" lon="3.61926">
        <ele>13.595825195312</ele>
        <time>2008-10-05T08:29:02Z</time>
      </trkpt>
      <trkpt lat="50.46449" lon="3.6192">
        <ele>13.595825195312</ele>
        <time>2008-10-05T08:29:04Z</time>
      </trkpt>
      <trkpt lat="50.4644" lon="3.61912">
        <ele>13.595825195312</ele>
        <time>2008-10-05T08:29:06Z</time>
      </trkpt>
      <trkpt lat="50.4641" lon="3.61875">
        <ele>11.673217773438</ele>
        <time>2008-10-05T08:29:13Z</time>
      </trkpt>
      <trkpt lat="50.46377" lon="3.6185">
        <ele>12.634399414062</ele>
        <time>2008-10-05T08:29:20Z</time>
      </trkpt>
      <trkpt lat="50.46356" lon="3.61835">
        <ele>14.076416015625</ele>
        <time>2008-10-05T08:29:25Z</time>
      </trkpt>
      <trkpt lat="50.46341" lon="3.61833">
        <ele>15.037719726562</ele>
        <time>2008-10-05T08:29:29Z</time>
      </trkpt>
      <trkpt lat="50.46317" lon="3.61844">
        <ele>16.479736328125</ele>
        <time>2008-10-05T08:29:36Z</time>
      </trkpt>
      <trkpt lat="50.46313" lon="3.61846">
        <ele>15.9990234375</ele>
        <time>2008-10-05T08:29:37Z</time>
      </trkpt>
      <trkpt lat="50.46287" lon="3.61852">
        <ele>15.518432617188</ele>
        <time>2008-10-05T08:29:43Z</time>
      </trkpt>
      <trkpt lat="50.46273" lon="3.61857">
        <ele>15.9990234375</ele>
        <time>2008-10-05T08:29:46Z</time>
      </trkpt>
      <trkpt lat="50.46263" lon="3.61862">
        <ele>15.9990234375</ele>
        <time>2008-10-05T08:29:48Z</time>
      </trkpt>
      <trkpt lat="50.46243" lon="3.61868">
        <ele>15.037719726562</ele>
        <time>2008-10-05T08:29:52Z</time>
      </trkpt>
      <trkpt lat="50.46216" lon="3.61864">
        <ele>15.037719726562</ele>
        <time>2008-10-05T08:29:57Z</time>
      </trkpt>
      <trkpt lat="50.46193" lon="3.61873">
        <ele>14.557006835938</ele>
        <time>2008-10-05T08:30:01Z</time>
      </trkpt>
      <trkpt lat="50.46176" lon="3.61878">
        <ele>16.479736328125</ele>
        <time>2008-10-05T08:30:05Z</time>
      </trkpt>
      <trkpt lat="50.46173" lon="3.61877">
        <ele>16.96044921875</ele>
        <time>2008-10-05T08:30:06Z</time>
      </trkpt>
      <trkpt lat="50.4616" lon="3.61865">
        <ele>19.844360351562</ele>
        <time>2008-10-05T08:30:13Z</time>
      </trkpt>
      <trkpt lat="50.46158" lon="3.61851">
        <ele>21.286376953125</ele>
        <time>2008-10-05T08:30:17Z</time>
      </trkpt>
      <trkpt lat="50.46157" lon="3.61832">
        <ele>21.766967773438</ele>
        <time>2008-10-05T08:30:22Z</time>
      </trkpt>
      <trkpt lat="50.4615" lon="3.61808">
        <ele>21.286376953125</ele>
        <time>2008-10-05T08:30:29Z</time>
      </trkpt>
      <trkpt lat="50.4614" lon="3.61794">
        <ele>23.689575195312</ele>
        <time>2008-10-05T08:30:35Z</time>
      </trkpt>
      <trkpt lat="50.46132" lon="3.61776">
        <ele>23.689575195312</ele>
        <time>2008-10-05T08:30:41Z</time>
      </trkpt>
      <trkpt lat="50.46127" lon="3.61749">
        <ele>23.208984375</ele>
        <time>2008-10-05T08:30:47Z</time>
      </trkpt>
      <trkpt lat="50.46111" lon="3.61732">
        <ele>23.689575195312</ele>
        <time>2008-10-05T08:30:52Z</time>
      </trkpt>
      <trkpt lat="50.46093" lon="3.61719">
        <ele>23.208984375</ele>
        <time>2008-10-05T08:30:56Z</time>
      </trkpt>
      <trkpt lat="50.46072" lon="3.617">
        <ele>23.689575195312</ele>
        <time>2008-10-05T08:31:01Z</time>
      </trkpt>
      <trkpt lat="50.46064" lon="3.61695">
        <ele>23.208984375</ele>
        <time>2008-10-05T08:31:03Z</time>
      </trkpt>
      <trkpt lat="50.46054" lon="3.6169">
        <ele>23.208984375</ele>
        <time>2008-10-05T08:31:05Z</time>
      </trkpt>
      <trkpt lat="50.46027" lon="3.61687">
        <ele>22.24755859375</ele>
        <time>2008-10-05T08:31:10Z</time>
      </trkpt>
      <trkpt lat="50.46022" lon="3.61684">
        <ele>22.24755859375</ele>
        <time>2008-10-05T08:31:11Z</time>
      </trkpt>
      <trkpt lat="50.45996" lon="3.61674">
        <ele>21.286376953125</ele>
        <time>2008-10-05T08:31:16Z</time>
      </trkpt>
      <trkpt lat="50.45975" lon="3.61667">
        <ele>19.844360351562</ele>
        <time>2008-10-05T08:31:20Z</time>
      </trkpt>
      <trkpt lat="50.45955" lon="3.61687">
        <ele>17.921752929688</ele>
        <time>2008-10-05T08:31:24Z</time>
      </trkpt>
      <trkpt lat="50.45949" lon="3.61693">
        <ele>16.96044921875</ele>
        <time>2008-10-05T08:31:25Z</time>
      </trkpt>
      <trkpt lat="50.45909" lon="3.61726">
        <ele>11.673217773438</ele>
        <time>2008-10-05T08:31:31Z</time>
      </trkpt>
      <trkpt lat="50.45897" lon="3.61751">
        <ele>9.7506103515625</ele>
        <time>2008-10-05T08:31:35Z</time>
      </trkpt>
      <trkpt lat="50.45892" lon="3.61776">
        <ele>7.34716796875</ele>
        <time>2008-10-05T08:31:38Z</time>
      </trkpt>
      <trkpt lat="50.45879" lon="3.61814">
        <ele>5.424560546875</ele>
        <time>2008-10-05T08:31:43Z</time>
      </trkpt>
      <trkpt lat="50.45871" lon="3.61837">
        <ele>4.94384765625</ele>
        <time>2008-10-05T08:31:46Z</time>
      </trkpt>
      <trkpt lat="50.45852" lon="3.61879">
        <ele>5.9052734375</ele>
        <time>2008-10-05T08:31:52Z</time>
      </trkpt>
      <trkpt lat="50.45841" lon="3.61899">
        <ele>8.30859375</ele>
        <time>2008-10-05T08:31:55Z</time>
      </trkpt>
      <trkpt lat="50.45833" lon="3.6193">
        <ele>9.2698974609375</ele>
        <time>2008-10-05T08:31:59Z</time>
      </trkpt>
      <trkpt lat="50.45828" lon="3.61956">
        <ele>9.7506103515625</ele>
        <time>2008-10-05T08:32:03Z</time>
      </trkpt>
      <trkpt lat="50.45834" lon="3.61961">
        <ele>11.192504882812</ele>
        <time>2008-10-05T08:32:06Z</time>
      </trkpt>
      <trkpt lat="50.45838" lon="3.61957">
        <ele>11.192504882812</ele>
        <time>2008-10-05T08:32:08Z</time>
      </trkpt>
      <trkpt lat="50.45852" lon="3.61943">
        <ele>14.557006835938</ele>
        <time>2008-10-05T08:32:15Z</time>
      </trkpt>
      <trkpt lat="50.45864" lon="3.61944">
        <ele>16.96044921875</ele>
        <time>2008-10-05T08:32:21Z</time>
      </trkpt>
      <trkpt lat="50.45877" lon="3.61949">
        <ele>21.286376953125</ele>
        <time>2008-10-05T08:32:29Z</time>
      </trkpt>
      <trkpt lat="50.45884" lon="3.61955">
        <ele>25.131713867188</ele>
        <time>2008-10-05T08:32:35Z</time>
      </trkpt>
      <trkpt lat="50.45894" lon="3.61955">
        <ele>28.015502929688</ele>
        <time>2008-10-05T08:32:42Z</time>
      </trkpt>
      <trkpt lat="50.45902" lon="3.61954">
        <ele>31.380126953125</ele>
        <time>2008-10-05T08:32:49Z</time>
      </trkpt>
      <trkpt lat="50.45908" lon="3.61952">
        <ele>33.302856445312</ele>
        <time>2008-10-05T08:32:55Z</time>
      </trkpt>
      <trkpt lat="50.45914" lon="3.6195">
        <ele>36.66748046875</ele>
        <time>2008-10-05T08:33:01Z</time>
      </trkpt>
      <trkpt lat="50.45915" lon="3.6195">
        <ele>36.66748046875</ele>
        <time>2008-10-05T08:33:04Z</time>
      </trkpt>
      <trkpt lat="50.45921" lon="3.61951">
        <ele>35.7060546875</ele>
        <time>2008-10-05T08:33:10Z</time>
      </trkpt>
      <trkpt lat="50.45926" lon="3.61952">
        <ele>36.66748046875</ele>
        <time>2008-10-05T08:33:17Z</time>
      </trkpt>
      <trkpt lat="50.45929" lon="3.61953">
        <ele>37.628662109375</ele>
        <time>2008-10-05T08:33:22Z</time>
      </trkpt>
      <trkpt lat="50.45929" lon="3.61953">
        <ele>38.109375</ele>
        <time>2008-10-05T08:33:27Z</time>
      </trkpt>
      <trkpt lat="50.4593" lon="3.61954">
        <ele>38.109375</ele>
        <time>2008-10-05T08:33:28Z</time>
      </trkpt>
      <trkpt lat="50.4593" lon="3.61954">
        <ele>37.628662109375</ele>
        <time>2008-10-05T08:33:31Z</time>
      </trkpt>
      <trkpt lat="50.45933" lon="3.61955">
        <ele>37.148071289062</ele>
        <time>2008-10-05T08:33:32Z</time>
      </trkpt>
      <trkpt lat="50.45941" lon="3.61953">
        <ele>37.148071289062</ele>
        <time>2008-10-05T08:33:40Z</time>
      </trkpt>
      <trkpt lat="50.45947" lon="3.6195">
        <ele>39.070678710938</ele>
        <time>2008-10-05T08:33:48Z</time>
      </trkpt>
      <trkpt lat="50.45947" lon="3.61949">
        <ele>39.55126953125</ele>
        <time>2008-10-05T08:33:50Z</time>
      </trkpt>
      <trkpt lat="50.45948" lon="3.61949">
        <ele>40.512817382812</ele>
        <time>2008-10-05T08:33:53Z</time>
      </trkpt>
      <trkpt lat="50.45948" lon="3.61949">
        <ele>40.993408203125</ele>
        <time>2008-10-05T08:33:54Z</time>
      </trkpt>
      <trkpt lat="50.45953" lon="3.6195">
        <ele>43.396606445312</ele>
        <time>2008-10-05T08:33:59Z</time>
      </trkpt>
      <trkpt lat="50.45954" lon="3.6195">
        <ele>43.877319335938</ele>
        <time>2008-10-05T08:34:02Z</time>
      </trkpt>
      <trkpt lat="50.45955" lon="3.61951">
        <ele>44.838623046875</ele>
        <time>2008-10-05T08:34:06Z</time>
      </trkpt>
      <trkpt lat="50.45955" lon="3.61952">
        <ele>45.319213867188</ele>
        <time>2008-10-05T08:34:07Z</time>
      </trkpt>
      <trkpt lat="50.4596" lon="3.6195">
        <ele>47.722534179688</ele>
        <time>2008-10-05T08:34:11Z</time>
      </trkpt>
      <trkpt lat="50.45966" lon="3.61948">
        <ele>50.1259765625</ele>
        <time>2008-10-05T08:34:17Z</time>
      </trkpt>
      <trkpt lat="50.45973" lon="3.61946">
        <ele>53.97119140625</ele>
        <time>2008-10-05T08:34:23Z</time>
      </trkpt>
      <trkpt lat="50.4598" lon="3.61942">
        <ele>55.4130859375</ele>
        <time>2008-10-05T08:34:30Z</time>
      </trkpt>
      <trkpt lat="50.4599" lon="3.61939">
        <ele>57.335815429688</ele>
        <time>2008-10-05T08:34:38Z</time>
      </trkpt>
      <trkpt lat="50.45998" lon="3.61934">
        <ele>58.777709960938</ele>
        <time>2008-10-05T08:34:45Z</time>
      </trkpt>
      <trkpt lat="50.46009" lon="3.61929">
        <ele>61.181030273438</ele>
        <time>2008-10-05T08:34:53Z</time>
      </trkpt>
      <trkpt lat="50.46012" lon="3.61926">
        <ele>60.2197265625</ele>
        <time>2008-10-05T08:34:57Z</time>
      </trkpt>
      <trkpt lat="50.46013" lon="3.61926">
        <ele>59.258422851562</ele>
        <time>2008-10-05T08:35:05Z</time>
      </trkpt>
      <trkpt lat="50.46017" lon="3.61919">
        <ele>61.181030273438</ele>
        <time>2008-10-05T08:35:10Z</time>
      </trkpt>
      <trkpt lat="50.46017" lon="3.61913">
        <ele>63.584350585938</ele>
        <time>2008-10-05T08:35:17Z</time>
      </trkpt>
      <trkpt lat="50.46017" lon="3.61911">
        <ele>64.065063476562</ele>
        <time>2008-10-05T08:35:19Z</time>
      </trkpt>
      <trkpt lat="50.46017" lon="3.6191">
        <ele>64.545654296875</ele>
        <time>2008-10-05T08:35:22Z</time>
      </trkpt>
      <trkpt lat="50.46017" lon="3.61906">
        <ele>66.46826171875</ele>
        <time>2008-10-05T08:35:24Z</time>
      </trkpt>
      <trkpt lat="50.46015" lon="3.61899">
        <ele>69.352294921875</ele>
        <time>2008-10-05T08:35:31Z</time>
      </trkpt>
      <trkpt lat="50.46011" lon="3.61889">
        <ele>68.87158203125</ele>
        <time>2008-10-05T08:35:38Z</time>
      </trkpt>
      <trkpt lat="50.46009" lon="3.61879">
        <ele>67.4296875</ele>
        <time>2008-10-05T08:35:47Z</time>
      </trkpt>
      <trkpt lat="50.46008" lon="3.61877">
        <ele>68.390869140625</ele>
        <time>2008-10-05T08:35:50Z</time>
      </trkpt>
      <trkpt lat="50.46008" lon="3.61877">
        <ele>68.87158203125</ele>
        <time>2008-10-05T08:35:53Z</time>
      </trkpt>
      <trkpt lat="50.46008" lon="3.61873">
        <ele>69.352294921875</ele>
        <time>2008-10-05T08:35:54Z</time>
      </trkpt>
      <trkpt lat="50.46003" lon="3.6187">
        <ele>67.910278320312</ele>
        <time>2008-10-05T08:36:00Z</time>
      </trkpt>
      <trkpt lat="50.46003" lon="3.6187">
        <ele>67.910278320312</ele>
        <time>2008-10-05T08:36:01Z</time>
      </trkpt>
      <trkpt lat="50.46" lon="3.61877">
        <ele>67.910278320312</ele>
        <time>2008-10-05T08:36:08Z</time>
      </trkpt>
      <trkpt lat="50.45997" lon="3.61884">
        <ele>67.4296875</ele>
        <time>2008-10-05T08:36:16Z</time>
      </trkpt>
      <trkpt lat="50.45997" lon="3.61884">
        <ele>66.948974609375</ele>
        <time>2008-10-05T08:36:17Z</time>
      </trkpt>
      <trkpt lat="50.45994" lon="3.61882">
        <ele>56.37451171875</ele>
        <time>2008-10-05T08:37:07Z</time>
      </trkpt>
      <trkpt lat="50.45995" lon="3.61879">
        <ele>57.335815429688</ele>
        <time>2008-10-05T08:37:10Z</time>
      </trkpt>
      <trkpt lat="50.45988" lon="3.61866">
        <ele>57.816528320312</ele>
        <time>2008-10-05T08:37:16Z</time>
      </trkpt>
      <trkpt lat="50.45982" lon="3.61837">
        <ele>58.777709960938</ele>
        <time>2008-10-05T08:37:22Z</time>
      </trkpt>
      <trkpt lat="50.45985" lon="3.61825">
        <ele>58.777709960938</ele>
        <time>2008-10-05T08:37:26Z</time>
      </trkpt>
      <trkpt lat="50.45997" lon="3.6181">
        <ele>59.739135742188</ele>
        <time>2008-10-05T08:37:32Z</time>
      </trkpt>
      <trkpt lat="50.46015" lon="3.61801">
        <ele>60.700317382812</ele>
        <time>2008-10-05T08:37:39Z</time>
      </trkpt>
      <trkpt lat="50.46029" lon="3.61805">
        <ele>61.181030273438</ele>
        <time>2008-10-05T08:37:44Z</time>
      </trkpt>
      <trkpt lat="50.46053" lon="3.61814">
        <ele>61.181030273438</ele>
        <time>2008-10-05T08:37:50Z</time>
      </trkpt>
      <trkpt lat="50.46069" lon="3.61823">
        <ele>61.181030273438</ele>
        <time>2008-10-05T08:37:54Z</time>
      </trkpt>
      <trkpt lat="50.46083" lon="3.61844">
        <ele>61.661743164062</ele>
        <time>2008-10-05T08:37:59Z</time>
      </trkpt>
      <trkpt lat="50.46079" lon="3.61856">
        <ele>61.661743164062</ele>
        <time>2008-10-05T08:38:02Z</time>
      </trkpt>
      <trkpt lat="50.46068" lon="3.61864">
        <ele>61.181030273438</ele>
        <time>2008-10-05T08:38:06Z</time>
      </trkpt>
      <trkpt lat="50.46054" lon="3.61879">
        <ele>59.739135742188</ele>
        <time>2008-10-05T08:38:11Z</time>
      </trkpt>
      <trkpt lat="50.46043" lon="3.61899">
        <ele>55.4130859375</ele>
        <time>2008-10-05T08:38:15Z</time>
      </trkpt>
      <trkpt lat="50.46036" lon="3.61916">
        <ele>53.490478515625</ele>
        <time>2008-10-05T08:38:17Z</time>
      </trkpt>
      <trkpt lat="50.4602" lon="3.61974">
        <ele>48.683959960938</ele>
        <time>2008-10-05T08:38:23Z</time>
      </trkpt>
      <trkpt lat="50.46018" lon="3.61998">
        <ele>47.241821289062</ele>
        <time>2008-10-05T08:38:25Z</time>
      </trkpt>
      <trkpt lat="50.46006" lon="3.62037">
        <ele>44.358032226562</ele>
        <time>2008-10-05T08:38:29Z</time>
      </trkpt>
      <trkpt lat="50.45989" lon="3.62047">
        <ele>42.916015625</ele>
        <time>2008-10-05T08:38:32Z</time>
      </trkpt>
      <trkpt lat="50.4596" lon="3.62042">
        <ele>43.396606445312</ele>
        <time>2008-10-05T08:38:38Z</time>
      </trkpt>
      <trkpt lat="50.45961" lon="3.62033">
        <ele>43.877319335938</ele>
        <time>2008-10-05T08:38:40Z</time>
      </trkpt>
      <trkpt lat="50.45962" lon="3.62012">
        <ele>40.993408203125</ele>
        <time>2008-10-05T08:38:44Z</time>
      </trkpt>
      <trkpt lat="50.45948" lon="3.62001">
        <ele>37.628662109375</ele>
        <time>2008-10-05T08:38:50Z</time>
      </trkpt>
      <trkpt lat="50.45936" lon="3.62005">
        <ele>33.783447265625</ele>
        <time>2008-10-05T08:38:54Z</time>
      </trkpt>
      <trkpt lat="50.45921" lon="3.62015">
        <ele>29.938110351562</ele>
        <time>2008-10-05T08:38:58Z</time>
      </trkpt>
      <trkpt lat="50.45914" lon="3.62021">
        <ele>28.496215820312</ele>
        <time>2008-10-05T08:39:02Z</time>
      </trkpt>
      <trkpt lat="50.45913" lon="3.6202">
        <ele>28.496215820312</ele>
        <time>2008-10-05T08:39:07Z</time>
      </trkpt>
      <trkpt lat="50.4591" lon="3.62021">
        <ele>27.534912109375</ele>
        <time>2008-10-05T08:39:11Z</time>
      </trkpt>
      <trkpt lat="50.45908" lon="3.62021">
        <ele>24.651000976562</ele>
        <time>2008-10-05T08:39:27Z</time>
      </trkpt>
      <trkpt lat="50.45906" lon="3.62021">
        <ele>25.131713867188</ele>
        <time>2008-10-05T08:39:29Z</time>
      </trkpt>
      <trkpt lat="50.45906" lon="3.6202">
        <ele>24.651000976562</ele>
        <time>2008-10-05T08:39:32Z</time>
      </trkpt>
      <trkpt lat="50.45903" lon="3.6202">
        <ele>24.651000976562</ele>
        <time>2008-10-05T08:39:33Z</time>
      </trkpt>
      <trkpt lat="50.45902" lon="3.62021">
        <ele>24.651000976562</ele>
        <time>2008-10-05T08:39:36Z</time>
      </trkpt>
      <trkpt lat="50.459" lon="3.62022">
        <ele>23.689575195312</ele>
        <time>2008-10-05T08:39:38Z</time>
      </trkpt>
      <trkpt lat="50.45897" lon="3.62034">
        <ele>22.728271484375</ele>
        <time>2008-10-05T08:39:42Z</time>
      </trkpt>
      <trkpt lat="50.45894" lon="3.6206">
        <ele>19.36376953125</ele>
        <time>2008-10-05T08:39:47Z</time>
      </trkpt>
      <trkpt lat="50.45894" lon="3.62064">
        <ele>18.40234375</ele>
        <time>2008-10-05T08:39:48Z</time>
      </trkpt>
      <trkpt lat="50.45885" lon="3.62089">
        <ele>14.076416015625</ele>
        <time>2008-10-05T08:39:53Z</time>
      </trkpt>
      <trkpt lat="50.45874" lon="3.62118">
        <ele>13.595825195312</ele>
        <time>2008-10-05T08:39:58Z</time>
      </trkpt>
      <trkpt lat="50.45876" lon="3.62123">
        <ele>14.076416015625</ele>
        <time>2008-10-05T08:39:59Z</time>
      </trkpt>
      <trkpt lat="50.45891" lon="3.62158">
        <ele>14.076416015625</ele>
        <time>2008-10-05T08:40:06Z</time>
      </trkpt>
      <trkpt lat="50.4588" lon="3.62176">
        <ele>13.115112304688</ele>
        <time>2008-10-05T08:40:10Z</time>
      </trkpt>
      <trkpt lat="50.45845" lon="3.62219">
        <ele>12.634399414062</ele>
        <time>2008-10-05T08:40:19Z</time>
      </trkpt>
      <trkpt lat="50.45821" lon="3.62245">
        <ele>13.115112304688</ele>
        <time>2008-10-05T08:40:25Z</time>
      </trkpt>
      <trkpt lat="50.45787" lon="3.62269">
        <ele>13.595825195312</ele>
        <time>2008-10-05T08:40:32Z</time>
      </trkpt>
      <trkpt lat="50.45768" lon="3.62281">
        <ele>13.595825195312</ele>
        <time>2008-10-05T08:40:36Z</time>
      </trkpt>
      <trkpt lat="50.4575" lon="3.6228">
        <ele>14.076416015625</ele>
        <time>2008-10-05T08:40:40Z</time>
      </trkpt>
      <trkpt lat="50.45742" lon="3.6227">
        <ele>14.076416015625</ele>
        <time>2008-10-05T08:40:42Z</time>
      </trkpt>
      <trkpt lat="50.45704" lon="3.62217">
        <ele>15.9990234375</ele>
        <time>2008-10-05T08:40:51Z</time>
      </trkpt>
      <trkpt lat="50.45687" lon="3.62193">
        <ele>16.96044921875</ele>
        <time>2008-10-05T08:40:56Z</time>
      </trkpt>
      <trkpt lat="50.45673" lon="3.6217">
        <ele>18.40234375</ele>
        <time>2008-10-05T08:41:00Z</time>
      </trkpt>
      <trkpt lat="50.45653" lon="3.62136">
        <ele>17.441162109375</ele>
        <time>2008-10-05T08:41:05Z</time>
      </trkpt>
      <trkpt lat="50.45629" lon="3.62106">
        <ele>15.9990234375</ele>
        <time>2008-10-05T08:41:11Z</time>
      </trkpt>
      <trkpt lat="50.45619" lon="3.62104">
        <ele>15.037719726562</ele>
        <time>2008-10-05T08:41:14Z</time>
      </trkpt>
      <trkpt lat="50.45604" lon="3.62121">
        <ele>14.076416015625</ele>
        <time>2008-10-05T08:41:19Z</time>
      </trkpt>
      <trkpt lat="50.45571" lon="3.62145">
        <ele>12.634399414062</ele>
        <time>2008-10-05T08:41:28Z</time>
      </trkpt>
      <trkpt lat="50.4554" lon="3.6216">
        <ele>10.711791992188</ele>
        <time>2008-10-05T08:41:36Z</time>
      </trkpt>
      <trkpt lat="50.45509" lon="3.62172">
        <ele>9.7506103515625</ele>
        <time>2008-10-05T08:41:44Z</time>
      </trkpt>
      <trkpt lat="50.4548" lon="3.62182">
        <ele>9.2698974609375</ele>
        <time>2008-10-05T08:41:52Z</time>
      </trkpt>
      <trkpt lat="50.45458" lon="3.62188">
        <ele>10.231201171875</ele>
        <time>2008-10-05T08:41:59Z</time>
      </trkpt>
      <trkpt lat="50.45447" lon="3.62191">
        <ele>10.711791992188</ele>
        <time>2008-10-05T08:42:04Z</time>
      </trkpt>
      <trkpt lat="50.45425" lon="3.62201">
        <ele>10.711791992188</ele>
        <time>2008-10-05T08:42:11Z</time>
      </trkpt>
      <trkpt lat="50.45406" lon="3.62207">
        <ele>11.192504882812</ele>
        <time>2008-10-05T08:42:17Z</time>
      </trkpt>
      <trkpt lat="50.45382" lon="3.62204">
        <ele>11.192504882812</ele>
        <time>2008-10-05T08:42:24Z</time>
      </trkpt>
      <trkpt lat="50.45368" lon="3.62189">
        <ele>12.15380859375</ele>
        <time>2008-10-05T08:42:28Z</time>
      </trkpt>
      <trkpt lat="50.45366" lon="3.62183">
        <ele>12.15380859375</ele>
        <time>2008-10-05T08:42:29Z</time>
      </trkpt>
      <trkpt lat="50.45343" lon="3.62128">
        <ele>12.634399414062</ele>
        <time>2008-10-05T08:42:38Z</time>
      </trkpt>
      <trkpt lat="50.45324" lon="3.62083">
        <ele>13.115112304688</ele>
        <time>2008-10-05T08:42:45Z</time>
      </trkpt>
      <trkpt lat="50.45303" lon="3.62037">
        <ele>14.076416015625</ele>
        <time>2008-10-05T08:42:52Z</time>
      </trkpt>
      <trkpt lat="50.453" lon="3.62031">
        <ele>14.557006835938</ele>
        <time>2008-10-05T08:42:53Z</time>
      </trkpt>
      <trkpt lat="50.45295" lon="3.62018">
        <ele>15.037719726562</ele>
        <time>2008-10-05T08:42:55Z</time>
      </trkpt>
      <trkpt lat="50.45279" lon="3.61981">
        <ele>14.557006835938</ele>
        <time>2008-10-05T08:43:01Z</time>
      </trkpt>
      <trkpt lat="50.45255" lon="3.61928">
        <ele>15.9990234375</ele>
        <time>2008-10-05T08:43:09Z</time>
      </trkpt>
      <trkpt lat="50.45233" lon="3.61883">
        <ele>17.921752929688</ele>
        <time>2008-10-05T08:43:16Z</time>
      </trkpt>
      <trkpt lat="50.45218" lon="3.61842">
        <ele>18.883056640625</ele>
        <time>2008-10-05T08:43:22Z</time>
      </trkpt>
      <trkpt lat="50.45204" lon="3.61825">
        <ele>18.883056640625</ele>
        <time>2008-10-05T08:43:26Z</time>
      </trkpt>
      <trkpt lat="50.45192" lon="3.61833">
        <ele>18.40234375</ele>
        <time>2008-10-05T08:43:29Z</time>
      </trkpt>
      <trkpt lat="50.45187" lon="3.61843">
        <ele>17.441162109375</ele>
        <time>2008-10-05T08:43:31Z</time>
      </trkpt>
      <trkpt lat="50.45176" lon="3.61883">
        <ele>14.557006835938</ele>
        <time>2008-10-05T08:43:36Z</time>
      </trkpt>
      <trkpt lat="50.45173" lon="3.61891">
        <ele>14.557006835938</ele>
        <time>2008-10-05T08:43:37Z</time>
      </trkpt>
      <trkpt lat="50.45162" lon="3.61923">
        <ele>13.595825195312</ele>
        <time>2008-10-05T08:43:41Z</time>
      </trkpt>
      <trkpt lat="50.45154" lon="3.61946">
        <ele>13.115112304688</ele>
        <time>2008-10-05T08:43:44Z</time>
      </trkpt>
      <trkpt lat="50.4514" lon="3.62013">
        <ele>12.15380859375</ele>
        <time>2008-10-05T08:43:52Z</time>
      </trkpt>
      <trkpt lat="50.4513" lon="3.62043">
        <ele>11.192504882812</ele>
        <time>2008-10-05T08:43:56Z</time>
      </trkpt>
      <trkpt lat="50.4511" lon="3.62071">
        <ele>11.673217773438</ele>
        <time>2008-10-05T08:44:01Z</time>
      </trkpt>
      <trkpt lat="50.45099" lon="3.62075">
        <ele>11.673217773438</ele>
        <time>2008-10-05T08:44:03Z</time>
      </trkpt>
      <trkpt lat="50.45074" lon="3.62092">
        <ele>11.192504882812</ele>
        <time>2008-10-05T08:44:08Z</time>
      </trkpt>
      <trkpt lat="50.45045" lon="3.62142">
        <ele>11.192504882812</ele>
        <time>2008-10-05T08:44:16Z</time>
      </trkpt>
      <trkpt lat="50.4503" lon="3.62168">
        <ele>11.192504882812</ele>
        <time>2008-10-05T08:44:20Z</time>
      </trkpt>
      <trkpt lat="50.45024" lon="3.62182">
        <ele>11.192504882812</ele>
        <time>2008-10-05T08:44:22Z</time>
      </trkpt>
      <trkpt lat="50.45009" lon="3.62223">
        <ele>11.192504882812</ele>
        <time>2008-10-05T08:44:28Z</time>
      </trkpt>
      <trkpt lat="50.44995" lon="3.62235">
        <ele>12.15380859375</ele>
        <time>2008-10-05T08:44:32Z</time>
      </trkpt>
      <trkpt lat="50.4499" lon="3.62221">
        <ele>12.15380859375</ele>
        <time>2008-10-05T08:44:36Z</time>
      </trkpt>
      <trkpt lat="50.44991" lon="3.62208">
        <ele>11.673217773438</ele>
        <time>2008-10-05T08:44:38Z</time>
      </trkpt>
      <trkpt lat="50.44994" lon="3.62175">
        <ele>12.15380859375</ele>
        <time>2008-10-05T08:44:43Z</time>
      </trkpt>
      <trkpt lat="50.44995" lon="3.62143">
        <ele>12.634399414062</ele>
        <time>2008-10-05T08:44:48Z</time>
      </trkpt>
      <trkpt lat="50.44996" lon="3.62136">
        <ele>12.15380859375</ele>
        <time>2008-10-05T08:44:49Z</time>
      </trkpt>
      <trkpt lat="50.44996" lon="3.62091">
        <ele>10.711791992188</ele>
        <time>2008-10-05T08:44:55Z</time>
      </trkpt>
      <trkpt lat="50.44993" lon="3.62055">
        <ele>11.192504882812</ele>
        <time>2008-10-05T08:44:59Z</time>
      </trkpt>
      <trkpt lat="50.44994" lon="3.62035">
        <ele>10.711791992188</ele>
        <time>2008-10-05T08:45:01Z</time>
      </trkpt>
      <trkpt lat="50.44994" lon="3.61999">
        <ele>10.711791992188</ele>
        <time>2008-10-05T08:45:05Z</time>
      </trkpt>
      <trkpt lat="50.44993" lon="3.6198">
        <ele>9.7506103515625</ele>
        <time>2008-10-05T08:45:07Z</time>
      </trkpt>
      <trkpt lat="50.44992" lon="3.61932">
        <ele>9.2698974609375</ele>
        <time>2008-10-05T08:45:12Z</time>
      </trkpt>
      <trkpt lat="50.44991" lon="3.61896">
        <ele>12.15380859375</ele>
        <time>2008-10-05T08:45:16Z</time>
      </trkpt>
      <trkpt lat="50.44987" lon="3.61799">
        <ele>11.673217773438</ele>
        <time>2008-10-05T08:45:26Z</time>
      </trkpt>
      <trkpt lat="50.44988" lon="3.61762">
        <ele>9.7506103515625</ele>
        <time>2008-10-05T08:45:30Z</time>
      </trkpt>
      <trkpt lat="50.44987" lon="3.61671">
        <ele>9.7506103515625</ele>
        <time>2008-10-05T08:45:40Z</time>
      </trkpt>
      <trkpt lat="50.44984" lon="3.61609">
        <ele>7.827880859375</ele>
        <time>2008-10-05T08:45:47Z</time>
      </trkpt>
      <trkpt lat="50.44983" lon="3.61537">
        <ele>7.34716796875</ele>
        <time>2008-10-05T08:45:55Z</time>
      </trkpt>
      <trkpt lat="50.44982" lon="3.61468">
        <ele>7.34716796875</ele>
        <time>2008-10-05T08:46:03Z</time>
      </trkpt>
      <trkpt lat="50.44981" lon="3.6139">
        <ele>8.30859375</ele>
        <time>2008-10-05T08:46:12Z</time>
      </trkpt>
      <trkpt lat="50.44981" lon="3.61309">
        <ele>8.7891845703125</ele>
        <time>2008-10-05T08:46:21Z</time>
      </trkpt>
      <trkpt lat="50.4498" lon="3.61239">
        <ele>9.7506103515625</ele>
        <time>2008-10-05T08:46:29Z</time>
      </trkpt>
      <trkpt lat="50.44978" lon="3.61169">
        <ele>10.231201171875</ele>
        <time>2008-10-05T08:46:37Z</time>
      </trkpt>
      <trkpt lat="50.44976" lon="3.61109">
        <ele>9.7506103515625</ele>
        <time>2008-10-05T08:46:44Z</time>
      </trkpt>
      <trkpt lat="50.44977" lon="3.61058">
        <ele>9.7506103515625</ele>
        <time>2008-10-05T08:46:50Z</time>
      </trkpt>
      <trkpt lat="50.44976" lon="3.61015">
        <ele>10.711791992188</ele>
        <time>2008-10-05T08:46:55Z</time>
      </trkpt>
      <trkpt lat="50.44977" lon="3.60954">
        <ele>11.192504882812</ele>
        <time>2008-10-05T08:47:02Z</time>
      </trkpt>
      <trkpt lat="50.44976" lon="3.6089">
        <ele>12.634399414062</ele>
        <time>2008-10-05T08:47:09Z</time>
      </trkpt>
      <trkpt lat="50.44976" lon="3.60845">
        <ele>13.115112304688</ele>
        <time>2008-10-05T08:47:14Z</time>
      </trkpt>
      <trkpt lat="50.44975" lon="3.60776">
        <ele>12.15380859375</ele>
        <time>2008-10-05T08:47:22Z</time>
      </trkpt>
      <trkpt lat="50.44975" lon="3.60714">
        <ele>12.15380859375</ele>
        <time>2008-10-05T08:47:30Z</time>
      </trkpt>
      <trkpt lat="50.44975" lon="3.60661">
        <ele>12.15380859375</ele>
        <time>2008-10-05T08:47:37Z</time>
      </trkpt>
      <trkpt lat="50.44974" lon="3.60614">
        <ele>12.634399414062</ele>
        <time>2008-10-05T08:47:43Z</time>
      </trkpt>
      <trkpt lat="50.44974" lon="3.606">
        <ele>12.634399414062</ele>
        <time>2008-10-05T08:47:45Z</time>
      </trkpt>
      <trkpt lat="50.44974" lon="3.60546">
        <ele>13.115112304688</ele>
        <time>2008-10-05T08:47:52Z</time>
      </trkpt>
      <trkpt lat="50.44972" lon="3.60509">
        <ele>13.595825195312</ele>
        <time>2008-10-05T08:47:57Z</time>
      </trkpt>
      <trkpt lat="50.4497" lon="3.60445">
        <ele>12.15380859375</ele>
        <time>2008-10-05T08:48:05Z</time>
      </trkpt>
      <trkpt lat="50.4497" lon="3.60399">
        <ele>11.673217773438</ele>
        <time>2008-10-05T08:48:11Z</time>
      </trkpt>
      <trkpt lat="50.4497" lon="3.60372">
        <ele>13.115112304688</ele>
        <time>2008-10-05T08:48:15Z</time>
      </trkpt>
      <trkpt lat="50.44971" lon="3.60349">
        <ele>12.15380859375</ele>
        <time>2008-10-05T08:48:18Z</time>
      </trkpt>
      <trkpt lat="50.44968" lon="3.60314">
        <ele>12.15380859375</ele>
        <time>2008-10-05T08:48:22Z</time>
      </trkpt>
      <trkpt lat="50.44968" lon="3.60262">
        <ele>13.115112304688</ele>
        <time>2008-10-05T08:48:29Z</time>
      </trkpt>
      <trkpt lat="50.44968" lon="3.60255">
        <ele>13.115112304688</ele>
        <time>2008-10-05T08:48:30Z</time>
      </trkpt>
      <trkpt lat="50.44967" lon="3.60216">
        <ele>12.15380859375</ele>
        <time>2008-10-05T08:48:35Z</time>
      </trkpt>
      <trkpt lat="50.44968" lon="3.6017">
        <ele>13.115112304688</ele>
        <time>2008-10-05T08:48:42Z</time>
      </trkpt>
      <trkpt lat="50.44965" lon="3.60142">
        <ele>13.595825195312</ele>
        <time>2008-10-05T08:48:46Z</time>
      </trkpt>
      <trkpt lat="50.44965" lon="3.60109">
        <ele>12.15380859375</ele>
        <time>2008-10-05T08:48:51Z</time>
      </trkpt>
      <trkpt lat="50.44965" lon="3.60065">
        <ele>12.634399414062</ele>
        <time>2008-10-05T08:48:57Z</time>
      </trkpt>
      <trkpt lat="50.44963" lon="3.60038">
        <ele>15.518432617188</ele>
        <time>2008-10-05T08:49:01Z</time>
      </trkpt>
      <trkpt lat="50.4496" lon="3.60033">
        <ele>16.479736328125</ele>
        <time>2008-10-05T08:49:05Z</time>
      </trkpt>
      <trkpt lat="50.44959" lon="3.60033">
        <ele>16.479736328125</ele>
        <time>2008-10-05T08:49:08Z</time>
      </trkpt>
      <trkpt lat="50.44957" lon="3.60034">
        <ele>16.96044921875</ele>
        <time>2008-10-05T08:49:10Z</time>
      </trkpt>
      <trkpt lat="50.44957" lon="3.60039">
        <ele>16.96044921875</ele>
        <time>2008-10-05T08:49:15Z</time>
      </trkpt>
      <trkpt lat="50.44958" lon="3.60044">
        <ele>17.921752929688</ele>
        <time>2008-10-05T08:49:22Z</time>
      </trkpt>
      <trkpt lat="50.44952" lon="3.60044">
        <ele>16.96044921875</ele>
        <time>2008-10-05T08:49:26Z</time>
      </trkpt>
      <trkpt lat="50.44935" lon="3.60046">
        <ele>16.96044921875</ele>
        <time>2008-10-05T08:49:33Z</time>
      </trkpt>
      <trkpt lat="50.4493" lon="3.60047">
        <ele>16.96044921875</ele>
        <time>2008-10-05T08:49:37Z</time>
      </trkpt>
      <trkpt lat="50.44929" lon="3.60047">
        <ele>16.479736328125</ele>
        <time>2008-10-05T08:49:42Z</time>
      </trkpt>
      <trkpt lat="50.44926" lon="3.60046">
        <ele>15.037719726562</ele>
        <time>2008-10-05T08:49:47Z</time>
      </trkpt>
      <trkpt lat="50.4493" lon="3.60028">
        <ele>14.076416015625</ele>
        <time>2008-10-05T08:49:51Z</time>
      </trkpt>
      <trkpt lat="50.44931" lon="3.60006">
        <ele>14.557006835938</ele>
        <time>2008-10-05T08:49:54Z</time>
      </trkpt>
      <trkpt lat="50.44933" lon="3.59961">
        <ele>15.518432617188</ele>
        <time>2008-10-05T08:50:01Z</time>
      </trkpt>
      <trkpt lat="50.44931" lon="3.59931">
        <ele>17.441162109375</ele>
        <time>2008-10-05T08:50:06Z</time>
      </trkpt>
      <trkpt lat="50.44932" lon="3.59887">
        <ele>15.037719726562</ele>
        <time>2008-10-05T08:50:11Z</time>
      </trkpt>
      <trkpt lat="50.44931" lon="3.59833">
        <ele>14.076416015625</ele>
        <time>2008-10-05T08:50:17Z</time>
      </trkpt>
      <trkpt lat="50.44931" lon="3.59782">
        <ele>14.076416015625</ele>
        <time>2008-10-05T08:50:23Z</time>
      </trkpt>
      <trkpt lat="50.44931" lon="3.59758">
        <ele>15.037719726562</ele>
        <time>2008-10-05T08:50:26Z</time>
      </trkpt>
      <trkpt lat="50.44933" lon="3.59681">
        <ele>16.479736328125</ele>
        <time>2008-10-05T08:50:35Z</time>
      </trkpt>
      <trkpt lat="50.44935" lon="3.59621">
        <ele>16.479736328125</ele>
        <time>2008-10-05T08:50:42Z</time>
      </trkpt>
      <trkpt lat="50.44934" lon="3.59613">
        <ele>16.96044921875</ele>
        <time>2008-10-05T08:50:43Z</time>
      </trkpt>
      <trkpt lat="50.44922" lon="3.59581">
        <ele>15.9990234375</ele>
        <time>2008-10-05T08:50:48Z</time>
      </trkpt>
      <trkpt lat="50.44913" lon="3.59573">
        <ele>15.9990234375</ele>
        <time>2008-10-05T08:50:50Z</time>
      </trkpt>
      <trkpt lat="50.44881" lon="3.59551">
        <ele>15.037719726562</ele>
        <time>2008-10-05T08:50:57Z</time>
      </trkpt>
      <trkpt lat="50.44843" lon="3.59528">
        <ele>15.037719726562</ele>
        <time>2008-10-05T08:51:05Z</time>
      </trkpt>
      <trkpt lat="50.44833" lon="3.59521">
        <ele>15.037719726562</ele>
        <time>2008-10-05T08:51:07Z</time>
      </trkpt>
      <trkpt lat="50.44806" lon="3.59496">
        <ele>15.518432617188</ele>
        <time>2008-10-05T08:51:13Z</time>
      </trkpt>
      <trkpt lat="50.44791" lon="3.59488">
        <ele>15.518432617188</ele>
        <time>2008-10-05T08:51:16Z</time>
      </trkpt>
      <trkpt lat="50.4477" lon="3.59464">
        <ele>15.518432617188</ele>
        <time>2008-10-05T08:51:22Z</time>
      </trkpt>
      <trkpt lat="50.44769" lon="3.59459">
        <ele>15.037719726562</ele>
        <time>2008-10-05T08:51:23Z</time>
      </trkpt>
      <trkpt lat="50.4477" lon="3.59454">
        <ele>15.037719726562</ele>
        <time>2008-10-05T08:51:26Z</time>
      </trkpt>
      <trkpt lat="50.4477" lon="3.59454">
        <ele>15.518432617188</ele>
        <time>2008-10-05T08:51:29Z</time>
      </trkpt>
      <trkpt lat="50.44772" lon="3.59447">
        <ele>16.96044921875</ele>
        <time>2008-10-05T08:51:33Z</time>
      </trkpt>
      <trkpt lat="50.44777" lon="3.59431">
        <ele>16.96044921875</ele>
        <time>2008-10-05T08:51:39Z</time>
      </trkpt>
      <trkpt lat="50.44778" lon="3.59428">
        <ele>16.96044921875</ele>
        <time>2008-10-05T08:51:40Z</time>
      </trkpt>
      <trkpt lat="50.44772" lon="3.59416">
        <ele>17.441162109375</ele>
        <time>2008-10-05T08:51:44Z</time>
      </trkpt>
      <trkpt lat="50.44735" lon="3.59387">
        <ele>18.883056640625</ele>
        <time>2008-10-05T08:51:53Z</time>
      </trkpt>
      <trkpt lat="50.44717" lon="3.59373">
        <ele>18.883056640625</ele>
        <time>2008-10-05T08:51:57Z</time>
      </trkpt>
      <trkpt lat="50.44704" lon="3.59362">
        <ele>19.36376953125</ele>
        <time>2008-10-05T08:52:00Z</time>
      </trkpt>
      <trkpt lat="50.4467" lon="3.59332">
        <ele>20.8056640625</ele>
        <time>2008-10-05T08:52:08Z</time>
      </trkpt>
      <trkpt lat="50.44656" lon="3.59314">
        <ele>21.286376953125</ele>
        <time>2008-10-05T08:52:12Z</time>
      </trkpt>
      <trkpt lat="50.4466" lon="3.59289">
        <ele>19.36376953125</ele>
        <time>2008-10-05T08:52:16Z</time>
      </trkpt>
      <trkpt lat="50.44681" lon="3.59249">
        <ele>17.441162109375</ele>
        <time>2008-10-05T08:52:22Z</time>
      </trkpt>
      <trkpt lat="50.44694" lon="3.59204">
        <ele>15.9990234375</ele>
        <time>2008-10-05T08:52:28Z</time>
      </trkpt>
      <trkpt lat="50.447" lon="3.59175">
        <ele>15.9990234375</ele>
        <time>2008-10-05T08:52:33Z</time>
      </trkpt>
      <trkpt lat="50.4469" lon="3.59163">
        <ele>16.479736328125</ele>
        <time>2008-10-05T08:52:36Z</time>
      </trkpt>
      <trkpt lat="50.44651" lon="3.59137">
        <ele>22.728271484375</ele>
        <time>2008-10-05T08:52:44Z</time>
      </trkpt>
      <trkpt lat="50.44637" lon="3.59127">
        <ele>24.170288085938</ele>
        <time>2008-10-05T08:52:47Z</time>
      </trkpt>
      <trkpt lat="50.44613" lon="3.59107">
        <ele>24.651000976562</ele>
        <time>2008-10-05T08:52:52Z</time>
      </trkpt>
      <trkpt lat="50.44597" lon="3.59085">
        <ele>25.6123046875</ele>
        <time>2008-10-05T08:52:56Z</time>
      </trkpt>
      <trkpt lat="50.44581" lon="3.59067">
        <ele>26.573608398438</ele>
        <time>2008-10-05T08:53:00Z</time>
      </trkpt>
      <trkpt lat="50.44569" lon="3.59045">
        <ele>26.092895507812</ele>
        <time>2008-10-05T08:53:04Z</time>
      </trkpt>
      <trkpt lat="50.44553" lon="3.59026">
        <ele>26.573608398438</ele>
        <time>2008-10-05T08:53:08Z</time>
      </trkpt>
      <trkpt lat="50.44526" lon="3.58999">
        <ele>26.573608398438</ele>
        <time>2008-10-05T08:53:15Z</time>
      </trkpt>
      <trkpt lat="50.44489" lon="3.58964">
        <ele>25.131713867188</ele>
        <time>2008-10-05T08:53:25Z</time>
      </trkpt>
      <trkpt lat="50.4446" lon="3.58937">
        <ele>24.170288085938</ele>
        <time>2008-10-05T08:53:32Z</time>
      </trkpt>
      <trkpt lat="50.44412" lon="3.589">
        <ele>21.286376953125</ele>
        <time>2008-10-05T08:53:41Z</time>
      </trkpt>
      <trkpt lat="50.4439" lon="3.58885">
        <ele>20.324951171875</ele>
        <time>2008-10-05T08:53:45Z</time>
      </trkpt>
      <trkpt lat="50.44341" lon="3.58854">
        <ele>19.36376953125</ele>
        <time>2008-10-05T08:53:54Z</time>
      </trkpt>
      <trkpt lat="50.44289" lon="3.58824">
        <ele>17.921752929688</ele>
        <time>2008-10-05T08:54:03Z</time>
      </trkpt>
      <trkpt lat="50.44225" lon="3.58788">
        <ele>17.441162109375</ele>
        <time>2008-10-05T08:54:14Z</time>
      </trkpt>
      <trkpt lat="50.4422" lon="3.58785">
        <ele>17.441162109375</ele>
        <time>2008-10-05T08:54:15Z</time>
      </trkpt>
      <trkpt lat="50.44201" lon="3.58771">
        <ele>17.441162109375</ele>
        <time>2008-10-05T08:54:19Z</time>
      </trkpt>
      <trkpt lat="50.44149" lon="3.58746">
        <ele>17.441162109375</ele>
        <time>2008-10-05T08:54:29Z</time>
      </trkpt>
      <trkpt lat="50.4412" lon="3.58732">
        <ele>17.441162109375</ele>
        <time>2008-10-05T08:54:35Z</time>
      </trkpt>
      <trkpt lat="50.44094" lon="3.58717">
        <ele>17.921752929688</ele>
        <time>2008-10-05T08:54:41Z</time>
      </trkpt>
      <trkpt lat="50.44066" lon="3.58702">
        <ele>18.40234375</ele>
        <time>2008-10-05T08:54:48Z</time>
      </trkpt>
      <trkpt lat="50.44029" lon="3.58681">
        <ele>18.883056640625</ele>
        <time>2008-10-05T08:54:57Z</time>
      </trkpt>
      <trkpt lat="50.43991" lon="3.58659">
        <ele>18.40234375</ele>
        <time>2008-10-05T08:55:06Z</time>
      </trkpt>
      <trkpt lat="50.43958" lon="3.5864">
        <ele>16.96044921875</ele>
        <time>2008-10-05T08:55:13Z</time>
      </trkpt>
      <trkpt lat="50.43943" lon="3.58631">
        <ele>15.9990234375</ele>
        <time>2008-10-05T08:55:16Z</time>
      </trkpt>
      <trkpt lat="50.43944" lon="3.5861">
        <ele>15.518432617188</ele>
        <time>2008-10-05T08:55:20Z</time>
      </trkpt>
      <trkpt lat="50.43952" lon="3.5859">
        <ele>15.9990234375</ele>
        <time>2008-10-05T08:55:24Z</time>
      </trkpt>
      <trkpt lat="50.43948" lon="3.58575">
        <ele>16.479736328125</ele>
        <time>2008-10-05T08:55:27Z</time>
      </trkpt>
      <trkpt lat="50.43937" lon="3.58566">
        <ele>16.479736328125</ele>
        <time>2008-10-05T08:55:30Z</time>
      </trkpt>
      <trkpt lat="50.43929" lon="3.58559">
        <ele>16.479736328125</ele>
        <time>2008-10-05T08:55:32Z</time>
      </trkpt>
      <trkpt lat="50.43905" lon="3.58529">
        <ele>17.921752929688</ele>
        <time>2008-10-05T08:55:38Z</time>
      </trkpt>
      <trkpt lat="50.43883" lon="3.585">
        <ele>18.40234375</ele>
        <time>2008-10-05T08:55:43Z</time>
      </trkpt>
      <trkpt lat="50.43857" lon="3.58462">
        <ele>18.40234375</ele>
        <time>2008-10-05T08:55:48Z</time>
      </trkpt>
      <trkpt lat="50.43835" lon="3.58426">
        <ele>18.40234375</ele>
        <time>2008-10-05T08:55:53Z</time>
      </trkpt>
      <trkpt lat="50.43832" lon="3.58419">
        <ele>17.921752929688</ele>
        <time>2008-10-05T08:55:54Z</time>
      </trkpt>
      <trkpt lat="50.43804" lon="3.58358">
        <ele>16.479736328125</ele>
        <time>2008-10-05T08:56:02Z</time>
      </trkpt>
      <trkpt lat="50.43787" lon="3.58316">
        <ele>16.96044921875</ele>
        <time>2008-10-05T08:56:08Z</time>
      </trkpt>
      <trkpt lat="50.43784" lon="3.58309">
        <ele>16.96044921875</ele>
        <time>2008-10-05T08:56:09Z</time>
      </trkpt>
      <trkpt lat="50.43774" lon="3.58287">
        <ele>17.921752929688</ele>
        <time>2008-10-05T08:56:14Z</time>
      </trkpt>
      <trkpt lat="50.43768" lon="3.5827">
        <ele>18.883056640625</ele>
        <time>2008-10-05T08:56:19Z</time>
      </trkpt>
      <trkpt lat="50.43764" lon="3.58262">
        <ele>19.844360351562</ele>
        <time>2008-10-05T08:56:21Z</time>
      </trkpt>
      <trkpt lat="50.4375" lon="3.58226">
        <ele>20.8056640625</ele>
        <time>2008-10-05T08:56:26Z</time>
      </trkpt>
      <trkpt lat="50.43732" lon="3.58176">
        <ele>22.24755859375</ele>
        <time>2008-10-05T08:56:32Z</time>
      </trkpt>
      <trkpt lat="50.43712" lon="3.58122">
        <ele>22.24755859375</ele>
        <time>2008-10-05T08:56:39Z</time>
      </trkpt>
      <trkpt lat="50.43688" lon="3.58064">
        <ele>26.092895507812</ele>
        <time>2008-10-05T08:56:47Z</time>
      </trkpt>
      <trkpt lat="50.43671" lon="3.5802">
        <ele>28.015502929688</ele>
        <time>2008-10-05T08:56:53Z</time>
      </trkpt>
      <trkpt lat="50.43658" lon="3.57983">
        <ele>29.45751953125</ele>
        <time>2008-10-05T08:56:58Z</time>
      </trkpt>
      <trkpt lat="50.43642" lon="3.5794">
        <ele>31.380126953125</ele>
        <time>2008-10-05T08:57:04Z</time>
      </trkpt>
      <trkpt lat="50.43623" lon="3.57894">
        <ele>32.822265625</ele>
        <time>2008-10-05T08:57:11Z</time>
      </trkpt>
      <trkpt lat="50.4362" lon="3.57878">
        <ele>31.380126953125</ele>
        <time>2008-10-05T08:57:13Z</time>
      </trkpt>
      <trkpt lat="50.43596" lon="3.57814">
        <ele>28.015502929688</ele>
        <time>2008-10-05T08:57:22Z</time>
      </trkpt>
      <trkpt lat="50.43588" lon="3.57794">
        <ele>28.015502929688</ele>
        <time>2008-10-05T08:57:25Z</time>
      </trkpt>
      <trkpt lat="50.43575" lon="3.57761">
        <ele>27.534912109375</ele>
        <time>2008-10-05T08:57:30Z</time>
      </trkpt>
      <trkpt lat="50.43562" lon="3.5773">
        <ele>27.054321289062</ele>
        <time>2008-10-05T08:57:35Z</time>
      </trkpt>
      <trkpt lat="50.43557" lon="3.57702">
        <ele>26.092895507812</ele>
        <time>2008-10-05T08:57:40Z</time>
      </trkpt>
      <trkpt lat="50.43551" lon="3.57694">
        <ele>25.131713867188</ele>
        <time>2008-10-05T08:57:44Z</time>
      </trkpt>
      <trkpt lat="50.43545" lon="3.57682">
        <ele>25.131713867188</ele>
        <time>2008-10-05T08:57:50Z</time>
      </trkpt>
      <trkpt lat="50.43537" lon="3.57669">
        <ele>25.131713867188</ele>
        <time>2008-10-05T08:57:55Z</time>
      </trkpt>
      <trkpt lat="50.43534" lon="3.57657">
        <ele>25.6123046875</ele>
        <time>2008-10-05T08:57:59Z</time>
      </trkpt>
      <trkpt lat="50.43523" lon="3.57629">
        <ele>26.092895507812</ele>
        <time>2008-10-05T08:58:03Z</time>
      </trkpt>
      <trkpt lat="50.4351" lon="3.576">
        <ele>25.6123046875</ele>
        <time>2008-10-05T08:58:07Z</time>
      </trkpt>
      <trkpt lat="50.43483" lon="3.5754">
        <ele>22.728271484375</ele>
        <time>2008-10-05T08:58:15Z</time>
      </trkpt>
      <trkpt lat="50.43479" lon="3.57533">
        <ele>22.728271484375</ele>
        <time>2008-10-05T08:58:16Z</time>
      </trkpt>
      <trkpt lat="50.43467" lon="3.57507">
        <ele>22.728271484375</ele>
        <time>2008-10-05T08:58:21Z</time>
      </trkpt>
      <trkpt lat="50.43462" lon="3.57493">
        <ele>23.208984375</ele>
        <time>2008-10-05T08:58:24Z</time>
      </trkpt>
      <trkpt lat="50.43454" lon="3.57486">
        <ele>23.208984375</ele>
        <time>2008-10-05T08:58:27Z</time>
      </trkpt>
      <trkpt lat="50.43435" lon="3.5745">
        <ele>23.208984375</ele>
        <time>2008-10-05T08:58:33Z</time>
      </trkpt>
      <trkpt lat="50.43409" lon="3.57399">
        <ele>23.208984375</ele>
        <time>2008-10-05T08:58:40Z</time>
      </trkpt>
      <trkpt lat="50.43397" lon="3.57367">
        <ele>23.208984375</ele>
        <time>2008-10-05T08:58:45Z</time>
      </trkpt>
      <trkpt lat="50.43398" lon="3.57363">
        <ele>22.728271484375</ele>
        <time>2008-10-05T08:58:49Z</time>
      </trkpt>
      <trkpt lat="50.43397" lon="3.57363">
        <ele>22.728271484375</ele>
        <time>2008-10-05T08:58:50Z</time>
      </trkpt>
      <trkpt lat="50.43397" lon="3.57363">
        <ele>22.728271484375</ele>
        <time>2008-10-05T08:58:53Z</time>
      </trkpt>
      <trkpt lat="50.43396" lon="3.57363">
        <ele>22.728271484375</ele>
        <time>2008-10-05T08:58:54Z</time>
      </trkpt>
      <trkpt lat="50.43384" lon="3.57343">
        <ele>22.728271484375</ele>
        <time>2008-10-05T08:58:58Z</time>
      </trkpt>
      <trkpt lat="50.43371" lon="3.57322">
        <ele>23.208984375</ele>
        <time>2008-10-05T08:59:04Z</time>
      </trkpt>
      <trkpt lat="50.43364" lon="3.57304">
        <ele>22.728271484375</ele>
        <time>2008-10-05T08:59:09Z</time>
      </trkpt>
      <trkpt lat="50.43345" lon="3.57266">
        <ele>23.208984375</ele>
        <time>2008-10-05T08:59:15Z</time>
      </trkpt>
      <trkpt lat="50.43323" lon="3.57226">
        <ele>23.208984375</ele>
        <time>2008-10-05T08:59:21Z</time>
      </trkpt>
      <trkpt lat="50.43293" lon="3.57172">
        <ele>24.170288085938</ele>
        <time>2008-10-05T08:59:29Z</time>
      </trkpt>
      <trkpt lat="50.43268" lon="3.57125">
        <ele>24.651000976562</ele>
        <time>2008-10-05T08:59:36Z</time>
      </trkpt>
      <trkpt lat="50.43245" lon="3.57086">
        <ele>25.131713867188</ele>
        <time>2008-10-05T08:59:42Z</time>
      </trkpt>
      <trkpt lat="50.43235" lon="3.57066">
        <ele>25.131713867188</ele>
        <time>2008-10-05T08:59:45Z</time>
      </trkpt>
      <trkpt lat="50.43222" lon="3.57039">
        <ele>25.6123046875</ele>
        <time>2008-10-05T08:59:49Z</time>
      </trkpt>
      <trkpt lat="50.43186" lon="3.56967">
        <ele>21.286376953125</ele>
        <time>2008-10-05T08:59:59Z</time>
      </trkpt>
      <trkpt lat="50.43159" lon="3.56917">
        <ele>22.24755859375</ele>
        <time>2008-10-05T09:00:06Z</time>
      </trkpt>
      <trkpt lat="50.43135" lon="3.56873">
        <ele>22.24755859375</ele>
        <time>2008-10-05T09:00:12Z</time>
      </trkpt>
      <trkpt lat="50.43108" lon="3.56824">
        <ele>21.766967773438</ele>
        <time>2008-10-05T09:00:19Z</time>
      </trkpt>
      <trkpt lat="50.43095" lon="3.56805">
        <ele>22.24755859375</ele>
        <time>2008-10-05T09:00:22Z</time>
      </trkpt>
      <trkpt lat="50.43081" lon="3.56778">
        <ele>23.208984375</ele>
        <time>2008-10-05T09:00:26Z</time>
      </trkpt>
      <trkpt lat="50.43058" lon="3.56733">
        <ele>26.092895507812</ele>
        <time>2008-10-05T09:00:32Z</time>
      </trkpt>
      <trkpt lat="50.43028" lon="3.56668">
        <ele>29.938110351562</ele>
        <time>2008-10-05T09:00:40Z</time>
      </trkpt>
      <trkpt lat="50.43007" lon="3.56633">
        <ele>32.341552734375</ele>
        <time>2008-10-05T09:00:45Z</time>
      </trkpt>
      <trkpt lat="50.42996" lon="3.56609">
        <ele>33.783447265625</ele>
        <time>2008-10-05T09:00:48Z</time>
      </trkpt>
      <trkpt lat="50.42962" lon="3.56554">
        <ele>35.225463867188</ele>
        <time>2008-10-05T09:00:56Z</time>
      </trkpt>
      <trkpt lat="50.42939" lon="3.5651">
        <ele>33.783447265625</ele>
        <time>2008-10-05T09:01:02Z</time>
      </trkpt>
      <trkpt lat="50.4292" lon="3.56473">
        <ele>33.302856445312</ele>
        <time>2008-10-05T09:01:07Z</time>
      </trkpt>
      <trkpt lat="50.42892" lon="3.56416">
        <ele>31.380126953125</ele>
        <time>2008-10-05T09:01:14Z</time>
      </trkpt>
      <trkpt lat="50.42873" lon="3.56377">
        <ele>29.45751953125</ele>
        <time>2008-10-05T09:01:19Z</time>
      </trkpt>
      <trkpt lat="50.42844" lon="3.56315">
        <ele>27.534912109375</ele>
        <time>2008-10-05T09:01:27Z</time>
      </trkpt>
      <trkpt lat="50.42817" lon="3.56254">
        <ele>27.054321289062</ele>
        <time>2008-10-05T09:01:35Z</time>
      </trkpt>
      <trkpt lat="50.42801" lon="3.56217">
        <ele>28.015502929688</ele>
        <time>2008-10-05T09:01:40Z</time>
      </trkpt>
      <trkpt lat="50.42778" lon="3.56164">
        <ele>27.534912109375</ele>
        <time>2008-10-05T09:01:47Z</time>
      </trkpt>
      <trkpt lat="50.42774" lon="3.56156">
        <ele>27.534912109375</ele>
        <time>2008-10-05T09:01:48Z</time>
      </trkpt>
      <trkpt lat="50.42743" lon="3.56101">
        <ele>26.573608398438</ele>
        <time>2008-10-05T09:01:56Z</time>
      </trkpt>
      <trkpt lat="50.42707" lon="3.56046">
        <ele>26.573608398438</ele>
        <time>2008-10-05T09:02:05Z</time>
      </trkpt>
      <trkpt lat="50.42666" lon="3.55995">
        <ele>25.6123046875</ele>
        <time>2008-10-05T09:02:14Z</time>
      </trkpt>
      <trkpt lat="50.42626" lon="3.55954">
        <ele>25.131713867188</ele>
        <time>2008-10-05T09:02:22Z</time>
      </trkpt>
      <trkpt lat="50.42591" lon="3.55923">
        <ele>24.651000976562</ele>
        <time>2008-10-05T09:02:29Z</time>
      </trkpt>
      <trkpt lat="50.42561" lon="3.559">
        <ele>24.651000976562</ele>
        <time>2008-10-05T09:02:35Z</time>
      </trkpt>
      <trkpt lat="50.42529" lon="3.55881">
        <ele>25.131713867188</ele>
        <time>2008-10-05T09:02:43Z</time>
      </trkpt>
      <trkpt lat="50.42516" lon="3.5587">
        <ele>25.131713867188</ele>
        <time>2008-10-05T09:02:49Z</time>
      </trkpt>
      <trkpt lat="50.42503" lon="3.55866">
        <ele>24.651000976562</ele>
        <time>2008-10-05T09:02:52Z</time>
      </trkpt>
      <trkpt lat="50.42478" lon="3.55851">
        <ele>23.689575195312</ele>
        <time>2008-10-05T09:02:57Z</time>
      </trkpt>
      <trkpt lat="50.42445" lon="3.55835">
        <ele>24.651000976562</ele>
        <time>2008-10-05T09:03:03Z</time>
      </trkpt>
      <trkpt lat="50.42434" lon="3.5583">
        <ele>24.651000976562</ele>
        <time>2008-10-05T09:03:05Z</time>
      </trkpt>
      <trkpt lat="50.42418" lon="3.55824">
        <ele>24.651000976562</ele>
        <time>2008-10-05T09:03:08Z</time>
      </trkpt>
      <trkpt lat="50.42387" lon="3.55809">
        <ele>24.170288085938</ele>
        <time>2008-10-05T09:03:14Z</time>
      </trkpt>
      <trkpt lat="50.42376" lon="3.55804">
        <ele>24.170288085938</ele>
        <time>2008-10-05T09:03:16Z</time>
      </trkpt>
      <trkpt lat="50.42355" lon="3.55791">
        <ele>25.131713867188</ele>
        <time>2008-10-05T09:03:21Z</time>
      </trkpt>
      <trkpt lat="50.4235" lon="3.55782">
        <ele>25.6123046875</ele>
        <time>2008-10-05T09:03:24Z</time>
      </trkpt>
      <trkpt lat="50.42348" lon="3.55784">
        <ele>25.6123046875</ele>
        <time>2008-10-05T09:03:25Z</time>
      </trkpt>
      <trkpt lat="50.42328" lon="3.55784">
        <ele>25.131713867188</ele>
        <time>2008-10-05T09:03:30Z</time>
      </trkpt>
      <trkpt lat="50.42323" lon="3.55781">
        <ele>24.651000976562</ele>
        <time>2008-10-05T09:03:31Z</time>
      </trkpt>
      <trkpt lat="50.42302" lon="3.55771">
        <ele>25.131713867188</ele>
        <time>2008-10-05T09:03:35Z</time>
      </trkpt>
      <trkpt lat="50.42268" lon="3.55755">
        <ele>24.651000976562</ele>
        <time>2008-10-05T09:03:41Z</time>
      </trkpt>
      <trkpt lat="50.42239" lon="3.55737">
        <ele>24.170288085938</ele>
        <time>2008-10-05T09:03:46Z</time>
      </trkpt>
      <trkpt lat="50.42217" lon="3.55724">
        <ele>23.689575195312</ele>
        <time>2008-10-05T09:03:50Z</time>
      </trkpt>
      <trkpt lat="50.42194" lon="3.55708">
        <ele>24.170288085938</ele>
        <time>2008-10-05T09:03:54Z</time>
      </trkpt>
      <trkpt lat="50.42183" lon="3.55701">
        <ele>24.651000976562</ele>
        <time>2008-10-05T09:03:56Z</time>
      </trkpt>
      <trkpt lat="50.42145" lon="3.55671">
        <ele>24.170288085938</ele>
        <time>2008-10-05T09:04:03Z</time>
      </trkpt>
      <trkpt lat="50.42134" lon="3.55663">
        <ele>24.170288085938</ele>
        <time>2008-10-05T09:04:05Z</time>
      </trkpt>
      <trkpt lat="50.42119" lon="3.55647">
        <ele>23.689575195312</ele>
        <time>2008-10-05T09:04:08Z</time>
      </trkpt>
      <trkpt lat="50.42083" lon="3.55612">
        <ele>24.651000976562</ele>
        <time>2008-10-05T09:04:15Z</time>
      </trkpt>
      <trkpt lat="50.42045" lon="3.55577">
        <ele>25.131713867188</ele>
        <time>2008-10-05T09:04:22Z</time>
      </trkpt>
      <trkpt lat="50.42036" lon="3.55565">
        <ele>25.131713867188</ele>
        <time>2008-10-05T09:04:24Z</time>
      </trkpt>
      <trkpt lat="50.42013" lon="3.55545">
        <ele>25.6123046875</ele>
        <time>2008-10-05T09:04:29Z</time>
      </trkpt>
      <trkpt lat="50.42012" lon="3.55523">
        <ele>24.170288085938</ele>
        <time>2008-10-05T09:04:33Z</time>
      </trkpt>
      <trkpt lat="50.42009" lon="3.55502">
        <ele>23.208984375</ele>
        <time>2008-10-05T09:04:36Z</time>
      </trkpt>
      <trkpt lat="50.42006" lon="3.55495">
        <ele>22.728271484375</ele>
        <time>2008-10-05T09:04:37Z</time>
      </trkpt>
      <trkpt lat="50.4197" lon="3.55432">
        <ele>22.24755859375</ele>
        <time>2008-10-05T09:04:46Z</time>
      </trkpt>
      <trkpt lat="50.41938" lon="3.55372">
        <ele>23.208984375</ele>
        <time>2008-10-05T09:04:55Z</time>
      </trkpt>
      <trkpt lat="50.4191" lon="3.55323">
        <ele>23.689575195312</ele>
        <time>2008-10-05T09:05:03Z</time>
      </trkpt>
      <trkpt lat="50.41877" lon="3.55263">
        <ele>23.208984375</ele>
        <time>2008-10-05T09:05:12Z</time>
      </trkpt>
      <trkpt lat="50.41853" lon="3.55223">
        <ele>23.208984375</ele>
        <time>2008-10-05T09:05:18Z</time>
      </trkpt>
      <trkpt lat="50.41847" lon="3.5521">
        <ele>23.208984375</ele>
        <time>2008-10-05T09:05:20Z</time>
      </trkpt>
      <trkpt lat="50.41846" lon="3.55181">
        <ele>23.208984375</ele>
        <time>2008-10-05T09:05:24Z</time>
      </trkpt>
      <trkpt lat="50.41847" lon="3.55174">
        <ele>23.208984375</ele>
        <time>2008-10-05T09:05:25Z</time>
      </trkpt>
      <trkpt lat="50.41848" lon="3.55146">
        <ele>24.170288085938</ele>
        <time>2008-10-05T09:05:30Z</time>
      </trkpt>
      <trkpt lat="50.41858" lon="3.55131">
        <ele>25.131713867188</ele>
        <time>2008-10-05T09:05:34Z</time>
      </trkpt>
      <trkpt lat="50.41866" lon="3.55115">
        <ele>26.092895507812</ele>
        <time>2008-10-05T09:05:38Z</time>
      </trkpt>
      <trkpt lat="50.41863" lon="3.55103">
        <ele>28.015502929688</ele>
        <time>2008-10-05T09:05:41Z</time>
      </trkpt>
      <trkpt lat="50.41854" lon="3.55085">
        <ele>33.783447265625</ele>
        <time>2008-10-05T09:05:47Z</time>
      </trkpt>
      <trkpt lat="50.41847" lon="3.55069">
        <ele>37.148071289062</ele>
        <time>2008-10-05T09:05:53Z</time>
      </trkpt>
      <trkpt lat="50.41839" lon="3.55053">
        <ele>42.916015625</ele>
        <time>2008-10-05T09:05:59Z</time>
      </trkpt>
      <trkpt lat="50.41832" lon="3.55039">
        <ele>47.241821289062</ele>
        <time>2008-10-05T09:06:05Z</time>
      </trkpt>
      <trkpt lat="50.41826" lon="3.5503">
        <ele>50.1259765625</ele>
        <time>2008-10-05T09:06:09Z</time>
      </trkpt>
      <trkpt lat="50.41819" lon="3.55015">
        <ele>52.529174804688</ele>
        <time>2008-10-05T09:06:15Z</time>
      </trkpt>
      <trkpt lat="50.41814" lon="3.55002">
        <ele>54.451782226562</ele>
        <time>2008-10-05T09:06:19Z</time>
      </trkpt>
      <trkpt lat="50.418" lon="3.54976">
        <ele>56.855102539062</ele>
        <time>2008-10-05T09:06:28Z</time>
      </trkpt>
      <trkpt lat="50.4179" lon="3.54957">
        <ele>54.932373046875</ele>
        <time>2008-10-05T09:06:35Z</time>
      </trkpt>
      <trkpt lat="50.41779" lon="3.54941">
        <ele>53.009765625</ele>
        <time>2008-10-05T09:06:41Z</time>
      </trkpt>
      <trkpt lat="50.41767" lon="3.54925">
        <ele>51.56787109375</ele>
        <time>2008-10-05T09:06:47Z</time>
      </trkpt>
      <trkpt lat="50.41751" lon="3.54897">
        <ele>51.087158203125</ele>
        <time>2008-10-05T09:06:54Z</time>
      </trkpt>
      <trkpt lat="50.41742" lon="3.54863">
        <ele>50.606567382812</ele>
        <time>2008-10-05T09:07:00Z</time>
      </trkpt>
      <trkpt lat="50.41737" lon="3.54828">
        <ele>51.56787109375</ele>
        <time>2008-10-05T09:07:07Z</time>
      </trkpt>
      <trkpt lat="50.41734" lon="3.54808">
        <ele>53.009765625</ele>
        <time>2008-10-05T09:07:12Z</time>
      </trkpt>
      <trkpt lat="50.41732" lon="3.54782">
        <ele>54.932373046875</ele>
        <time>2008-10-05T09:07:17Z</time>
      </trkpt>
      <trkpt lat="50.41734" lon="3.54762">
        <ele>55.4130859375</ele>
        <time>2008-10-05T09:07:20Z</time>
      </trkpt>
      <trkpt lat="50.41743" lon="3.54699">
        <ele>52.048583984375</ele>
        <time>2008-10-05T09:07:28Z</time>
      </trkpt>
      <trkpt lat="50.41745" lon="3.5469">
        <ele>50.1259765625</ele>
        <time>2008-10-05T09:07:29Z</time>
      </trkpt>
      <trkpt lat="50.41752" lon="3.5466">
        <ele>48.683959960938</ele>
        <time>2008-10-05T09:07:33Z</time>
      </trkpt>
      <trkpt lat="50.41764" lon="3.54613">
        <ele>40.993408203125</ele>
        <time>2008-10-05T09:07:40Z</time>
      </trkpt>
      <trkpt lat="50.41766" lon="3.54586">
        <ele>37.628662109375</ele>
        <time>2008-10-05T09:07:45Z</time>
      </trkpt>
      <trkpt lat="50.41764" lon="3.54578">
        <ele>36.66748046875</ele>
        <time>2008-10-05T09:07:47Z</time>
      </trkpt>
      <trkpt lat="50.4177" lon="3.54561">
        <ele>35.225463867188</ele>
        <time>2008-10-05T09:07:51Z</time>
      </trkpt>
      <trkpt lat="50.41788" lon="3.54527">
        <ele>35.7060546875</ele>
        <time>2008-10-05T09:07:57Z</time>
      </trkpt>
      <trkpt lat="50.41811" lon="3.54488">
        <ele>36.186767578125</ele>
        <time>2008-10-05T09:08:04Z</time>
      </trkpt>
      <trkpt lat="50.41831" lon="3.54461">
        <ele>34.744873046875</ele>
        <time>2008-10-05T09:08:10Z</time>
      </trkpt>
      <trkpt lat="50.41838" lon="3.54455">
        <ele>34.26416015625</ele>
        <time>2008-10-05T09:08:14Z</time>
      </trkpt>
      <trkpt lat="50.41839" lon="3.54455">
        <ele>33.783447265625</ele>
        <time>2008-10-05T09:08:15Z</time>
      </trkpt>
      <trkpt lat="50.41841" lon="3.54451">
        <ele>23.208984375</ele>
        <time>2008-10-05T09:11:25Z</time>
      </trkpt>
      <trkpt lat="50.41833" lon="3.54433">
        <ele>26.092895507812</ele>
        <time>2008-10-05T09:11:30Z</time>
      </trkpt>
      <trkpt lat="50.41812" lon="3.54409">
        <ele>27.054321289062</ele>
        <time>2008-10-05T09:11:36Z</time>
      </trkpt>
      <trkpt lat="50.41796" lon="3.5439">
        <ele>27.054321289062</ele>
        <time>2008-10-05T09:11:40Z</time>
      </trkpt>
      <trkpt lat="50.41761" lon="3.54354">
        <ele>29.45751953125</ele>
        <time>2008-10-05T09:11:49Z</time>
      </trkpt>
      <trkpt lat="50.41734" lon="3.54329">
        <ele>31.380126953125</ele>
        <time>2008-10-05T09:11:56Z</time>
      </trkpt>
      <trkpt lat="50.41727" lon="3.54306">
        <ele>32.341552734375</ele>
        <time>2008-10-05T09:12:00Z</time>
      </trkpt>
      <trkpt lat="50.4173" lon="3.54293">
        <ele>33.783447265625</ele>
        <time>2008-10-05T09:12:02Z</time>
      </trkpt>
      <trkpt lat="50.41735" lon="3.54273">
        <ele>35.225463867188</ele>
        <time>2008-10-05T09:12:05Z</time>
      </trkpt>
      <trkpt lat="50.41739" lon="3.54261">
        <ele>37.628662109375</ele>
        <time>2008-10-05T09:12:07Z</time>
      </trkpt>
      <trkpt lat="50.41756" lon="3.54226">
        <ele>39.55126953125</ele>
        <time>2008-10-05T09:12:13Z</time>
      </trkpt>
      <trkpt lat="50.41772" lon="3.54195">
        <ele>41.954711914062</ele>
        <time>2008-10-05T09:12:19Z</time>
      </trkpt>
      <trkpt lat="50.41785" lon="3.54163">
        <ele>43.396606445312</ele>
        <time>2008-10-05T09:12:24Z</time>
      </trkpt>
      <trkpt lat="50.41786" lon="3.54139">
        <ele>42.435424804688</ele>
        <time>2008-10-05T09:12:28Z</time>
      </trkpt>
      <trkpt lat="50.41776" lon="3.54123">
        <ele>43.877319335938</ele>
        <time>2008-10-05T09:12:32Z</time>
      </trkpt>
      <trkpt lat="50.41763" lon="3.54106">
        <ele>44.838623046875</ele>
        <time>2008-10-05T09:12:37Z</time>
      </trkpt>
      <trkpt lat="50.41758" lon="3.54103">
        <ele>44.838623046875</ele>
        <time>2008-10-05T09:12:39Z</time>
      </trkpt>
      <trkpt lat="50.41751" lon="3.5411">
        <ele>43.396606445312</ele>
        <time>2008-10-05T09:12:43Z</time>
      </trkpt>
      <trkpt lat="50.41748" lon="3.5412">
        <ele>42.435424804688</ele>
        <time>2008-10-05T09:12:45Z</time>
      </trkpt>
      <trkpt lat="50.4174" lon="3.54144">
        <ele>40.032104492188</ele>
        <time>2008-10-05T09:12:50Z</time>
      </trkpt>
      <trkpt lat="50.41737" lon="3.54154">
        <ele>39.55126953125</ele>
        <time>2008-10-05T09:12:52Z</time>
      </trkpt>
      <trkpt lat="50.41729" lon="3.54175">
        <ele>37.628662109375</ele>
        <time>2008-10-05T09:12:55Z</time>
      </trkpt>
      <trkpt lat="50.41712" lon="3.54224">
        <ele>34.744873046875</ele>
        <time>2008-10-05T09:13:02Z</time>
      </trkpt>
      <trkpt lat="50.41704" lon="3.54249">
        <ele>33.302856445312</ele>
        <time>2008-10-05T09:13:06Z</time>
      </trkpt>
      <trkpt lat="50.41687" lon="3.54277">
        <ele>33.783447265625</ele>
        <time>2008-10-05T09:13:11Z</time>
      </trkpt>
      <trkpt lat="50.41683" lon="3.54279">
        <ele>33.783447265625</ele>
        <time>2008-10-05T09:13:12Z</time>
      </trkpt>
      <trkpt lat="50.41674" lon="3.54279">
        <ele>34.26416015625</ele>
        <time>2008-10-05T09:13:14Z</time>
      </trkpt>
      <trkpt lat="50.41642" lon="3.54281">
        <ele>34.744873046875</ele>
        <time>2008-10-05T09:13:21Z</time>
      </trkpt>
      <trkpt lat="50.41633" lon="3.54281">
        <ele>34.26416015625</ele>
        <time>2008-10-05T09:13:23Z</time>
      </trkpt>
      <trkpt lat="50.41611" lon="3.54263">
        <ele>36.66748046875</ele>
        <time>2008-10-05T09:13:29Z</time>
      </trkpt>
      <trkpt lat="50.41607" lon="3.54255">
        <ele>37.628662109375</ele>
        <time>2008-10-05T09:13:31Z</time>
      </trkpt>
      <trkpt lat="50.41588" lon="3.54251">
        <ele>37.628662109375</ele>
        <time>2008-10-05T09:13:36Z</time>
      </trkpt>
      <trkpt lat="50.41581" lon="3.54244">
        <ele>37.628662109375</ele>
        <time>2008-10-05T09:13:38Z</time>
      </trkpt>
      <trkpt lat="50.41554" lon="3.54232">
        <ele>37.628662109375</ele>
        <time>2008-10-05T09:13:44Z</time>
      </trkpt>
      <trkpt lat="50.41535" lon="3.54244">
        <ele>38.109375</ele>
        <time>2008-10-05T09:13:49Z</time>
      </trkpt>
      <trkpt lat="50.41528" lon="3.54265">
        <ele>39.070678710938</ele>
        <time>2008-10-05T09:13:53Z</time>
      </trkpt>
      <trkpt lat="50.41528" lon="3.54272">
        <ele>39.070678710938</ele>
        <time>2008-10-05T09:13:54Z</time>
      </trkpt>
      <trkpt lat="50.41528" lon="3.54324">
        <ele>38.590087890625</ele>
        <time>2008-10-05T09:14:02Z</time>
      </trkpt>
      <trkpt lat="50.41524" lon="3.5437">
        <ele>37.628662109375</ele>
        <time>2008-10-05T09:14:09Z</time>
      </trkpt>
      <trkpt lat="50.41513" lon="3.54422">
        <ele>37.148071289062</ele>
        <time>2008-10-05T09:14:17Z</time>
      </trkpt>
      <trkpt lat="50.41498" lon="3.54457">
        <ele>36.66748046875</ele>
        <time>2008-10-05T09:14:23Z</time>
      </trkpt>
      <trkpt lat="50.41489" lon="3.54472">
        <ele>36.66748046875</ele>
        <time>2008-10-05T09:14:26Z</time>
      </trkpt>
      <trkpt lat="50.4147" lon="3.54482">
        <ele>36.186767578125</ele>
        <time>2008-10-05T09:14:31Z</time>
      </trkpt>
      <trkpt lat="50.41465" lon="3.54481">
        <ele>36.186767578125</ele>
        <time>2008-10-05T09:14:32Z</time>
      </trkpt>
      <trkpt lat="50.41431" lon="3.54462">
        <ele>36.186767578125</ele>
        <time>2008-10-05T09:14:41Z</time>
      </trkpt>
      <trkpt lat="50.41416" lon="3.54458">
        <ele>36.186767578125</ele>
        <time>2008-10-05T09:14:46Z</time>
      </trkpt>
      <trkpt lat="50.4141" lon="3.54475">
        <ele>35.225463867188</ele>
        <time>2008-10-05T09:14:50Z</time>
      </trkpt>
      <trkpt lat="50.41404" lon="3.54501">
        <ele>32.341552734375</ele>
        <time>2008-10-05T09:14:53Z</time>
      </trkpt>
      <trkpt lat="50.41391" lon="3.54513">
        <ele>30.899536132812</ele>
        <time>2008-10-05T09:14:56Z</time>
      </trkpt>
      <trkpt lat="50.41382" lon="3.54507">
        <ele>30.899536132812</ele>
        <time>2008-10-05T09:14:59Z</time>
      </trkpt>
      <trkpt lat="50.4138" lon="3.54504">
        <ele>31.380126953125</ele>
        <time>2008-10-05T09:15:00Z</time>
      </trkpt>
      <trkpt lat="50.41366" lon="3.54475">
        <ele>31.860717773438</ele>
        <time>2008-10-05T09:15:08Z</time>
      </trkpt>
      <trkpt lat="50.41359" lon="3.54455">
        <ele>34.744873046875</ele>
        <time>2008-10-05T09:15:15Z</time>
      </trkpt>
      <trkpt lat="50.41355" lon="3.54438">
        <ele>36.186767578125</ele>
        <time>2008-10-05T09:15:21Z</time>
      </trkpt>
      <trkpt lat="50.41356" lon="3.54409">
        <ele>34.744873046875</ele>
        <time>2008-10-05T09:15:28Z</time>
      </trkpt>
      <trkpt lat="50.41362" lon="3.54379">
        <ele>35.225463867188</ele>
        <time>2008-10-05T09:15:35Z</time>
      </trkpt>
      <trkpt lat="50.41373" lon="3.54365">
        <ele>35.225463867188</ele>
        <time>2008-10-05T09:15:40Z</time>
      </trkpt>
      <trkpt lat="50.4139" lon="3.54362">
        <ele>36.186767578125</ele>
        <time>2008-10-05T09:15:46Z</time>
      </trkpt>
      <trkpt lat="50.41408" lon="3.54354">
        <ele>36.66748046875</ele>
        <time>2008-10-05T09:15:52Z</time>
      </trkpt>
      <trkpt lat="50.41419" lon="3.54332">
        <ele>37.148071289062</ele>
        <time>2008-10-05T09:15:57Z</time>
      </trkpt>
      <trkpt lat="50.41436" lon="3.54289">
        <ele>38.590087890625</ele>
        <time>2008-10-05T09:16:06Z</time>
      </trkpt>
      <trkpt lat="50.4145" lon="3.54256">
        <ele>38.590087890625</ele>
        <time>2008-10-05T09:16:13Z</time>
      </trkpt>
      <trkpt lat="50.41453" lon="3.54231">
        <ele>37.148071289062</ele>
        <time>2008-10-05T09:16:17Z</time>
      </trkpt>
      <trkpt lat="50.41452" lon="3.54184">
        <ele>34.26416015625</ele>
        <time>2008-10-05T09:16:22Z</time>
      </trkpt>
      <trkpt lat="50.4144" lon="3.54138">
        <ele>31.380126953125</ele>
        <time>2008-10-05T09:16:28Z</time>
      </trkpt>
      <trkpt lat="50.41433" lon="3.54108">
        <ele>28.976928710938</ele>
        <time>2008-10-05T09:16:32Z</time>
      </trkpt>
      <trkpt lat="50.41437" lon="3.54083">
        <ele>27.534912109375</ele>
        <time>2008-10-05T09:16:35Z</time>
      </trkpt>
      <trkpt lat="50.41443" lon="3.54071">
        <ele>28.015502929688</ele>
        <time>2008-10-05T09:16:37Z</time>
      </trkpt>
      <trkpt lat="50.41465" lon="3.54041">
        <ele>32.341552734375</ele>
        <time>2008-10-05T09:16:45Z</time>
      </trkpt>
      <trkpt lat="50.41471" lon="3.54026">
        <ele>34.744873046875</ele>
        <time>2008-10-05T09:16:50Z</time>
      </trkpt>
      <trkpt lat="50.41473" lon="3.54001">
        <ele>35.225463867188</ele>
        <time>2008-10-05T09:16:55Z</time>
      </trkpt>
      <trkpt lat="50.41479" lon="3.5396">
        <ele>35.7060546875</ele>
        <time>2008-10-05T09:17:02Z</time>
      </trkpt>
      <trkpt lat="50.41487" lon="3.53906">
        <ele>35.225463867188</ele>
        <time>2008-10-05T09:17:11Z</time>
      </trkpt>
      <trkpt lat="50.41493" lon="3.5387">
        <ele>35.7060546875</ele>
        <time>2008-10-05T09:17:17Z</time>
      </trkpt>
      <trkpt lat="50.41497" lon="3.53839">
        <ele>35.7060546875</ele>
        <time>2008-10-05T09:17:22Z</time>
      </trkpt>
      <trkpt lat="50.41493" lon="3.53814">
        <ele>36.186767578125</ele>
        <time>2008-10-05T09:17:26Z</time>
      </trkpt>
      <trkpt lat="50.41487" lon="3.53809">
        <ele>36.66748046875</ele>
        <time>2008-10-05T09:17:28Z</time>
      </trkpt>
      <trkpt lat="50.41462" lon="3.53799">
        <ele>36.186767578125</ele>
        <time>2008-10-05T09:17:35Z</time>
      </trkpt>
      <trkpt lat="50.41439" lon="3.53789">
        <ele>37.148071289062</ele>
        <time>2008-10-05T09:17:41Z</time>
      </trkpt>
      <trkpt lat="50.41415" lon="3.5378">
        <ele>37.628662109375</ele>
        <time>2008-10-05T09:17:47Z</time>
      </trkpt>
      <trkpt lat="50.41386" lon="3.53769">
        <ele>37.148071289062</ele>
        <time>2008-10-05T09:17:54Z</time>
      </trkpt>
      <trkpt lat="50.41367" lon="3.53759">
        <ele>36.66748046875</ele>
        <time>2008-10-05T09:17:59Z</time>
      </trkpt>
      <trkpt lat="50.41365" lon="3.53735">
        <ele>36.66748046875</ele>
        <time>2008-10-05T09:18:03Z</time>
      </trkpt>
      <trkpt lat="50.41365" lon="3.53729">
        <ele>36.66748046875</ele>
        <time>2008-10-05T09:18:04Z</time>
      </trkpt>
      <trkpt lat="50.41372" lon="3.53674">
        <ele>37.628662109375</ele>
        <time>2008-10-05T09:18:12Z</time>
      </trkpt>
      <trkpt lat="50.41375" lon="3.53642">
        <ele>38.590087890625</ele>
        <time>2008-10-05T09:18:17Z</time>
      </trkpt>
      <trkpt lat="50.41377" lon="3.53613">
        <ele>40.032104492188</ele>
        <time>2008-10-05T09:18:22Z</time>
      </trkpt>
      <trkpt lat="50.41381" lon="3.53592">
        <ele>42.435424804688</ele>
        <time>2008-10-05T09:18:26Z</time>
      </trkpt>
      <trkpt lat="50.41388" lon="3.53537">
        <ele>44.838623046875</ele>
        <time>2008-10-05T09:18:33Z</time>
      </trkpt>
      <trkpt lat="50.41404" lon="3.53491">
        <ele>46.280639648438</ele>
        <time>2008-10-05T09:18:40Z</time>
      </trkpt>
      <trkpt lat="50.41411" lon="3.53477">
        <ele>45.319213867188</ele>
        <time>2008-10-05T09:18:44Z</time>
      </trkpt>
      <trkpt lat="50.41416" lon="3.53466">
        <ele>44.838623046875</ele>
        <time>2008-10-05T09:18:48Z</time>
      </trkpt>
      <trkpt lat="50.41415" lon="3.53465">
        <ele>44.838623046875</ele>
        <time>2008-10-05T09:18:49Z</time>
      </trkpt>
      <trkpt lat="50.41417" lon="3.53451">
        <ele>44.358032226562</ele>
        <time>2008-10-05T09:18:54Z</time>
      </trkpt>
      <trkpt lat="50.41418" lon="3.53431">
        <ele>43.396606445312</ele>
        <time>2008-10-05T09:18:58Z</time>
      </trkpt>
      <trkpt lat="50.4142" lon="3.53426">
        <ele>43.396606445312</ele>
        <time>2008-10-05T09:18:59Z</time>
      </trkpt>
      <trkpt lat="50.41424" lon="3.53397">
        <ele>42.435424804688</ele>
        <time>2008-10-05T09:19:04Z</time>
      </trkpt>
      <trkpt lat="50.4143" lon="3.5337">
        <ele>41.473999023438</ele>
        <time>2008-10-05T09:19:08Z</time>
      </trkpt>
      <trkpt lat="50.41434" lon="3.53343">
        <ele>41.473999023438</ele>
        <time>2008-10-05T09:19:12Z</time>
      </trkpt>
      <trkpt lat="50.41442" lon="3.53318">
        <ele>40.993408203125</ele>
        <time>2008-10-05T09:19:16Z</time>
      </trkpt>
      <trkpt lat="50.41448" lon="3.53292">
        <ele>40.512817382812</ele>
        <time>2008-10-05T09:19:20Z</time>
      </trkpt>
      <trkpt lat="50.4146" lon="3.53251">
        <ele>40.993408203125</ele>
        <time>2008-10-05T09:19:27Z</time>
      </trkpt>
      <trkpt lat="50.41473" lon="3.53219">
        <ele>42.916015625</ele>
        <time>2008-10-05T09:19:33Z</time>
      </trkpt>
      <trkpt lat="50.41487" lon="3.53172">
        <ele>42.916015625</ele>
        <time>2008-10-05T09:19:41Z</time>
      </trkpt>
      <trkpt lat="50.415" lon="3.53123">
        <ele>42.916015625</ele>
        <time>2008-10-05T09:19:49Z</time>
      </trkpt>
      <trkpt lat="50.41512" lon="3.53066">
        <ele>43.396606445312</ele>
        <time>2008-10-05T09:19:57Z</time>
      </trkpt>
      <trkpt lat="50.41515" lon="3.53043">
        <ele>43.396606445312</ele>
        <time>2008-10-05T09:20:00Z</time>
      </trkpt>
      <trkpt lat="50.41531" lon="3.52963">
        <ele>42.435424804688</ele>
        <time>2008-10-05T09:20:11Z</time>
      </trkpt>
      <trkpt lat="50.41537" lon="3.52932">
        <ele>42.435424804688</ele>
        <time>2008-10-05T09:20:16Z</time>
      </trkpt>
      <trkpt lat="50.41537" lon="3.52914">
        <ele>41.954711914062</ele>
        <time>2008-10-05T09:20:20Z</time>
      </trkpt>
      <trkpt lat="50.41536" lon="3.52898">
        <ele>39.070678710938</ele>
        <time>2008-10-05T09:20:23Z</time>
      </trkpt>
      <trkpt lat="50.41528" lon="3.52846">
        <ele>37.148071289062</ele>
        <time>2008-10-05T09:20:28Z</time>
      </trkpt>
      <trkpt lat="50.41529" lon="3.52791">
        <ele>35.7060546875</ele>
        <time>2008-10-05T09:20:34Z</time>
      </trkpt>
      <trkpt lat="50.4154" lon="3.52727">
        <ele>34.26416015625</ele>
        <time>2008-10-05T09:20:41Z</time>
      </trkpt>
      <trkpt lat="50.41542" lon="3.52718">
        <ele>33.783447265625</ele>
        <time>2008-10-05T09:20:42Z</time>
      </trkpt>
      <trkpt lat="50.41545" lon="3.52691">
        <ele>34.26416015625</ele>
        <time>2008-10-05T09:20:45Z</time>
      </trkpt>
      <trkpt lat="50.41546" lon="3.52647">
        <ele>34.744873046875</ele>
        <time>2008-10-05T09:20:50Z</time>
      </trkpt>
      <trkpt lat="50.4155" lon="3.52595">
        <ele>36.66748046875</ele>
        <time>2008-10-05T09:20:56Z</time>
      </trkpt>
      <trkpt lat="50.4155" lon="3.52579">
        <ele>37.148071289062</ele>
        <time>2008-10-05T09:20:58Z</time>
      </trkpt>
      <trkpt lat="50.41546" lon="3.52533">
        <ele>38.109375</ele>
        <time>2008-10-05T09:21:03Z</time>
      </trkpt>
      <trkpt lat="50.41542" lon="3.52506">
        <ele>38.590087890625</ele>
        <time>2008-10-05T09:21:06Z</time>
      </trkpt>
      <trkpt lat="50.41528" lon="3.52491">
        <ele>38.590087890625</ele>
        <time>2008-10-05T09:21:10Z</time>
      </trkpt>
      <trkpt lat="50.41525" lon="3.52493">
        <ele>38.590087890625</ele>
        <time>2008-10-05T09:21:11Z</time>
      </trkpt>
      <trkpt lat="50.41505" lon="3.52514">
        <ele>40.032104492188</ele>
        <time>2008-10-05T09:21:16Z</time>
      </trkpt>
      <trkpt lat="50.41498" lon="3.52526">
        <ele>39.55126953125</ele>
        <time>2008-10-05T09:21:18Z</time>
      </trkpt>
      <trkpt lat="50.41486" lon="3.52547">
        <ele>40.032104492188</ele>
        <time>2008-10-05T09:21:22Z</time>
      </trkpt>
      <trkpt lat="50.41468" lon="3.52582">
        <ele>37.628662109375</ele>
        <time>2008-10-05T09:21:28Z</time>
      </trkpt>
      <trkpt lat="50.4145" lon="3.52618">
        <ele>38.109375</ele>
        <time>2008-10-05T09:21:34Z</time>
      </trkpt>
      <trkpt lat="50.41444" lon="3.52628">
        <ele>39.55126953125</ele>
        <time>2008-10-05T09:21:36Z</time>
      </trkpt>
      <trkpt lat="50.41425" lon="3.52661">
        <ele>40.512817382812</ele>
        <time>2008-10-05T09:21:42Z</time>
      </trkpt>
      <trkpt lat="50.4141" lon="3.52683">
        <ele>40.993408203125</ele>
        <time>2008-10-05T09:21:47Z</time>
      </trkpt>
      <trkpt lat="50.41398" lon="3.5269">
        <ele>40.032104492188</ele>
        <time>2008-10-05T09:21:51Z</time>
      </trkpt>
      <trkpt lat="50.41394" lon="3.52689">
        <ele>39.55126953125</ele>
        <time>2008-10-05T09:21:52Z</time>
      </trkpt>
      <trkpt lat="50.41392" lon="3.52674">
        <ele>38.590087890625</ele>
        <time>2008-10-05T09:21:56Z</time>
      </trkpt>
      <trkpt lat="50.41393" lon="3.5267">
        <ele>38.109375</ele>
        <time>2008-10-05T09:21:57Z</time>
      </trkpt>
      <trkpt lat="50.41399" lon="3.52647">
        <ele>37.628662109375</ele>
        <time>2008-10-05T09:22:04Z</time>
      </trkpt>
      <trkpt lat="50.41405" lon="3.52623">
        <ele>37.628662109375</ele>
        <time>2008-10-05T09:22:10Z</time>
      </trkpt>
      <trkpt lat="50.41409" lon="3.52606">
        <ele>38.590087890625</ele>
        <time>2008-10-05T09:22:17Z</time>
      </trkpt>
      <trkpt lat="50.41409" lon="3.52601">
        <ele>39.55126953125</ele>
        <time>2008-10-05T09:22:20Z</time>
      </trkpt>
      <trkpt lat="50.41411" lon="3.52583">
        <ele>43.877319335938</ele>
        <time>2008-10-05T09:22:29Z</time>
      </trkpt>
      <trkpt lat="50.41417" lon="3.52564">
        <ele>48.683959960938</ele>
        <time>2008-10-05T09:22:37Z</time>
      </trkpt>
      <trkpt lat="50.41418" lon="3.5255">
        <ele>51.56787109375</ele>
        <time>2008-10-05T09:22:43Z</time>
      </trkpt>
      <trkpt lat="50.4142" lon="3.52538">
        <ele>53.009765625</ele>
        <time>2008-10-05T09:22:49Z</time>
      </trkpt>
      <trkpt lat="50.41422" lon="3.52531">
        <ele>55.4130859375</ele>
        <time>2008-10-05T09:22:54Z</time>
      </trkpt>
      <trkpt lat="50.41423" lon="3.52524">
        <ele>57.335815429688</ele>
        <time>2008-10-05T09:23:00Z</time>
      </trkpt>
      <trkpt lat="50.41426" lon="3.52512">
        <ele>60.700317382812</ele>
        <time>2008-10-05T09:23:06Z</time>
      </trkpt>
      <trkpt lat="50.4143" lon="3.525">
        <ele>60.700317382812</ele>
        <time>2008-10-05T09:23:12Z</time>
      </trkpt>
      <trkpt lat="50.41433" lon="3.5249">
        <ele>61.661743164062</ele>
        <time>2008-10-05T09:23:16Z</time>
      </trkpt>
      <trkpt lat="50.41441" lon="3.52473">
        <ele>63.584350585938</ele>
        <time>2008-10-05T09:23:21Z</time>
      </trkpt>
      <trkpt lat="50.41445" lon="3.5246">
        <ele>65.0263671875</ele>
        <time>2008-10-05T09:23:25Z</time>
      </trkpt>
      <trkpt lat="50.4145" lon="3.52444">
        <ele>65.507080078125</ele>
        <time>2008-10-05T09:23:31Z</time>
      </trkpt>
      <trkpt lat="50.41458" lon="3.52431">
        <ele>65.507080078125</ele>
        <time>2008-10-05T09:23:37Z</time>
      </trkpt>
      <trkpt lat="50.41464" lon="3.52415">
        <ele>63.584350585938</ele>
        <time>2008-10-05T09:23:43Z</time>
      </trkpt>
      <trkpt lat="50.41466" lon="3.5241">
        <ele>63.103637695312</ele>
        <time>2008-10-05T09:23:45Z</time>
      </trkpt>
      <trkpt lat="50.4147" lon="3.52392">
        <ele>62.622924804688</ele>
        <time>2008-10-05T09:23:53Z</time>
      </trkpt>
      <trkpt lat="50.41473" lon="3.52379">
        <ele>64.065063476562</ele>
        <time>2008-10-05T09:23:58Z</time>
      </trkpt>
      <trkpt lat="50.41473" lon="3.52361">
        <ele>62.142333984375</ele>
        <time>2008-10-05T09:24:05Z</time>
      </trkpt>
      <trkpt lat="50.41473" lon="3.52349">
        <ele>62.622924804688</ele>
        <time>2008-10-05T09:24:10Z</time>
      </trkpt>
      <trkpt lat="50.41473" lon="3.52338">
        <ele>63.103637695312</ele>
        <time>2008-10-05T09:24:15Z</time>
      </trkpt>
      <trkpt lat="50.41473" lon="3.52327">
        <ele>64.065063476562</ele>
        <time>2008-10-05T09:24:20Z</time>
      </trkpt>
      <trkpt lat="50.41473" lon="3.52317">
        <ele>63.584350585938</ele>
        <time>2008-10-05T09:24:25Z</time>
      </trkpt>
      <trkpt lat="50.4147" lon="3.52305">
        <ele>64.065063476562</ele>
        <time>2008-10-05T09:24:30Z</time>
      </trkpt>
      <trkpt lat="50.41467" lon="3.52293">
        <ele>65.507080078125</ele>
        <time>2008-10-05T09:24:35Z</time>
      </trkpt>
      <trkpt lat="50.41463" lon="3.52274">
        <ele>70.3134765625</ele>
        <time>2008-10-05T09:24:42Z</time>
      </trkpt>
      <trkpt lat="50.41461" lon="3.5226">
        <ele>72.236206054688</ele>
        <time>2008-10-05T09:24:49Z</time>
      </trkpt>
      <trkpt lat="50.41457" lon="3.52244">
        <ele>76.081420898438</ele>
        <time>2008-10-05T09:24:57Z</time>
      </trkpt>
      <trkpt lat="50.41456" lon="3.52239">
        <ele>77.5234375</ele>
        <time>2008-10-05T09:25:01Z</time>
      </trkpt>
      <trkpt lat="50.41456" lon="3.52238">
        <ele>76.562133789062</ele>
        <time>2008-10-05T09:25:04Z</time>
      </trkpt>
      <trkpt lat="50.41454" lon="3.52235">
        <ele>76.081420898438</ele>
        <time>2008-10-05T09:25:08Z</time>
      </trkpt>
      <trkpt lat="50.41453" lon="3.52234">
        <ele>75.600830078125</ele>
        <time>2008-10-05T09:25:10Z</time>
      </trkpt>
      <trkpt lat="50.41453" lon="3.52233">
        <ele>75.600830078125</ele>
        <time>2008-10-05T09:25:13Z</time>
      </trkpt>
      <trkpt lat="50.41449" lon="3.5223">
        <ele>75.600830078125</ele>
        <time>2008-10-05T09:25:16Z</time>
      </trkpt>
      <trkpt lat="50.41444" lon="3.52225">
        <ele>77.042846679688</ele>
        <time>2008-10-05T09:25:25Z</time>
      </trkpt>
      <trkpt lat="50.4144" lon="3.52219">
        <ele>78.004028320312</ele>
        <time>2008-10-05T09:25:33Z</time>
      </trkpt>
      <trkpt lat="50.41433" lon="3.52211">
        <ele>80.407470703125</ele>
        <time>2008-10-05T09:25:43Z</time>
      </trkpt>
      <trkpt lat="50.41424" lon="3.52212">
        <ele>81.849365234375</ele>
        <time>2008-10-05T09:25:53Z</time>
      </trkpt>
      <trkpt lat="50.41417" lon="3.52216">
        <ele>81.849365234375</ele>
        <time>2008-10-05T09:26:02Z</time>
      </trkpt>
      <trkpt lat="50.41411" lon="3.52218">
        <ele>83.77197265625</ele>
        <time>2008-10-05T09:26:10Z</time>
      </trkpt>
      <trkpt lat="50.41403" lon="3.52216">
        <ele>86.656005859375</ele>
        <time>2008-10-05T09:26:19Z</time>
      </trkpt>
      <trkpt lat="50.41398" lon="3.52216">
        <ele>86.17529296875</ele>
        <time>2008-10-05T09:26:23Z</time>
      </trkpt>
      <trkpt lat="50.4139" lon="3.52207">
        <ele>87.6171875</ele>
        <time>2008-10-05T09:26:33Z</time>
      </trkpt>
      <trkpt lat="50.41389" lon="3.52205">
        <ele>87.6171875</ele>
        <time>2008-10-05T09:26:35Z</time>
      </trkpt>
      <trkpt lat="50.41393" lon="3.52187">
        <ele>87.6171875</ele>
        <time>2008-10-05T09:26:43Z</time>
      </trkpt>
      <trkpt lat="50.41395" lon="3.52174">
        <ele>88.098022460938</ele>
        <time>2008-10-05T09:26:48Z</time>
      </trkpt>
      <trkpt lat="50.41392" lon="3.52153">
        <ele>88.098022460938</ele>
        <time>2008-10-05T09:26:53Z</time>
      </trkpt>
      <trkpt lat="50.41394" lon="3.52136">
        <ele>88.098022460938</ele>
        <time>2008-10-05T09:26:58Z</time>
      </trkpt>
      <trkpt lat="50.41403" lon="3.52123">
        <ele>87.6171875</ele>
        <time>2008-10-05T09:27:02Z</time>
      </trkpt>
      <trkpt lat="50.41407" lon="3.52107">
        <ele>87.6171875</ele>
        <time>2008-10-05T09:27:06Z</time>
      </trkpt>
      <trkpt lat="50.41417" lon="3.52082">
        <ele>87.6171875</ele>
        <time>2008-10-05T09:27:12Z</time>
      </trkpt>
      <trkpt lat="50.41412" lon="3.5206">
        <ele>88.098022460938</ele>
        <time>2008-10-05T09:27:18Z</time>
      </trkpt>
      <trkpt lat="50.41405" lon="3.52038">
        <ele>88.578735351562</ele>
        <time>2008-10-05T09:27:23Z</time>
      </trkpt>
      <trkpt lat="50.41401" lon="3.52024">
        <ele>88.098022460938</ele>
        <time>2008-10-05T09:27:26Z</time>
      </trkpt>
      <trkpt lat="50.41392" lon="3.52">
        <ele>89.059326171875</ele>
        <time>2008-10-05T09:27:31Z</time>
      </trkpt>
      <trkpt lat="50.41386" lon="3.51985">
        <ele>88.578735351562</ele>
        <time>2008-10-05T09:27:36Z</time>
      </trkpt>
      <trkpt lat="50.41383" lon="3.51974">
        <ele>88.098022460938</ele>
        <time>2008-10-05T09:27:39Z</time>
      </trkpt>
      <trkpt lat="50.41381" lon="3.51944">
        <ele>87.136596679688</ele>
        <time>2008-10-05T09:27:44Z</time>
      </trkpt>
      <trkpt lat="50.41388" lon="3.51936">
        <ele>86.17529296875</ele>
        <time>2008-10-05T09:27:48Z</time>
      </trkpt>
      <trkpt lat="50.41398" lon="3.51946">
        <ele>85.694580078125</ele>
        <time>2008-10-05T09:27:52Z</time>
      </trkpt>
      <trkpt lat="50.41401" lon="3.51945">
        <ele>85.694580078125</ele>
        <time>2008-10-05T09:27:55Z</time>
      </trkpt>
      <trkpt lat="50.41401" lon="3.51942">
        <ele>85.213989257812</ele>
        <time>2008-10-05T09:27:57Z</time>
      </trkpt>
      <trkpt lat="50.4141" lon="3.51938">
        <ele>82.810791015625</ele>
        <time>2008-10-05T09:28:01Z</time>
      </trkpt>
      <trkpt lat="50.41419" lon="3.51939">
        <ele>82.330078125</ele>
        <time>2008-10-05T09:28:04Z</time>
      </trkpt>
      <trkpt lat="50.4142" lon="3.51939">
        <ele>82.330078125</ele>
        <time>2008-10-05T09:28:08Z</time>
      </trkpt>
      <trkpt lat="50.41426" lon="3.51947">
        <ele>81.849365234375</ele>
        <time>2008-10-05T09:28:12Z</time>
      </trkpt>
      <trkpt lat="50.4143" lon="3.51955">
        <ele>81.849365234375</ele>
        <time>2008-10-05T09:28:14Z</time>
      </trkpt>
      <trkpt lat="50.41438" lon="3.51956">
        <ele>81.368774414062</ele>
        <time>2008-10-05T09:28:17Z</time>
      </trkpt>
      <trkpt lat="50.4144" lon="3.51946">
        <ele>81.368774414062</ele>
        <time>2008-10-05T09:28:19Z</time>
      </trkpt>
      <trkpt lat="50.41441" lon="3.51913">
        <ele>82.810791015625</ele>
        <time>2008-10-05T09:28:26Z</time>
      </trkpt>
      <trkpt lat="50.41446" lon="3.51893">
        <ele>83.77197265625</ele>
        <time>2008-10-05T09:28:31Z</time>
      </trkpt>
      <trkpt lat="50.41446" lon="3.51875">
        <ele>84.252685546875</ele>
        <time>2008-10-05T09:28:35Z</time>
      </trkpt>
      <trkpt lat="50.41443" lon="3.51843">
        <ele>84.252685546875</ele>
        <time>2008-10-05T09:28:41Z</time>
      </trkpt>
      <trkpt lat="50.41446" lon="3.51809">
        <ele>84.252685546875</ele>
        <time>2008-10-05T09:28:47Z</time>
      </trkpt>
      <trkpt lat="50.41457" lon="3.51783">
        <ele>84.7333984375</ele>
        <time>2008-10-05T09:28:53Z</time>
      </trkpt>
      <trkpt lat="50.41462" lon="3.51778">
        <ele>84.7333984375</ele>
        <time>2008-10-05T09:28:55Z</time>
      </trkpt>
      <trkpt lat="50.41476" lon="3.51773">
        <ele>83.77197265625</ele>
        <time>2008-10-05T09:28:58Z</time>
      </trkpt>
      <trkpt lat="50.41495" lon="3.51764">
        <ele>82.330078125</ele>
        <time>2008-10-05T09:29:02Z</time>
      </trkpt>
      <trkpt lat="50.41499" lon="3.5174">
        <ele>81.368774414062</ele>
        <time>2008-10-05T09:29:05Z</time>
      </trkpt>
      <trkpt lat="50.415" lon="3.5171">
        <ele>82.330078125</ele>
        <time>2008-10-05T09:29:08Z</time>
      </trkpt>
      <trkpt lat="50.41502" lon="3.5171">
        <ele>81.849365234375</ele>
        <time>2008-10-05T09:29:09Z</time>
      </trkpt>
      <trkpt lat="50.41504" lon="3.51697">
        <ele>80.407470703125</ele>
        <time>2008-10-05T09:29:13Z</time>
      </trkpt>
      <trkpt lat="50.41496" lon="3.51679">
        <ele>80.88818359375</ele>
        <time>2008-10-05T09:29:17Z</time>
      </trkpt>
      <trkpt lat="50.41491" lon="3.51648">
        <ele>80.88818359375</ele>
        <time>2008-10-05T09:29:22Z</time>
      </trkpt>
      <trkpt lat="50.41483" lon="3.51637">
        <ele>81.368774414062</ele>
        <time>2008-10-05T09:29:25Z</time>
      </trkpt>
      <trkpt lat="50.41469" lon="3.51636">
        <ele>82.810791015625</ele>
        <time>2008-10-05T09:29:30Z</time>
      </trkpt>
      <trkpt lat="50.41462" lon="3.51639">
        <ele>83.77197265625</ele>
        <time>2008-10-05T09:29:34Z</time>
      </trkpt>
      <trkpt lat="50.41449" lon="3.51651">
        <ele>84.252685546875</ele>
        <time>2008-10-05T09:29:39Z</time>
      </trkpt>
      <trkpt lat="50.41439" lon="3.51654">
        <ele>84.7333984375</ele>
        <time>2008-10-05T09:29:43Z</time>
      </trkpt>
      <trkpt lat="50.41423" lon="3.51643">
        <ele>83.77197265625</ele>
        <time>2008-10-05T09:29:48Z</time>
      </trkpt>
      <trkpt lat="50.41411" lon="3.51631">
        <ele>83.77197265625</ele>
        <time>2008-10-05T09:29:52Z</time>
      </trkpt>
      <trkpt lat="50.41408" lon="3.51631">
        <ele>83.291381835938</ele>
        <time>2008-10-05T09:29:53Z</time>
      </trkpt>
      <trkpt lat="50.414" lon="3.51637">
        <ele>84.252685546875</ele>
        <time>2008-10-05T09:29:57Z</time>
      </trkpt>
      <trkpt lat="50.41389" lon="3.51659">
        <ele>85.694580078125</ele>
        <time>2008-10-05T09:30:05Z</time>
      </trkpt>
      <trkpt lat="50.41382" lon="3.51677">
        <ele>85.694580078125</ele>
        <time>2008-10-05T09:30:10Z</time>
      </trkpt>
      <trkpt lat="50.41378" lon="3.51692">
        <ele>85.213989257812</ele>
        <time>2008-10-05T09:30:14Z</time>
      </trkpt>
      <trkpt lat="50.41366" lon="3.51695">
        <ele>86.17529296875</ele>
        <time>2008-10-05T09:30:19Z</time>
      </trkpt>
      <trkpt lat="50.41362" lon="3.51705">
        <ele>86.17529296875</ele>
        <time>2008-10-05T09:30:22Z</time>
      </trkpt>
      <trkpt lat="50.41348" lon="3.51736">
        <ele>86.17529296875</ele>
        <time>2008-10-05T09:30:29Z</time>
      </trkpt>
      <trkpt lat="50.41335" lon="3.51762">
        <ele>86.656005859375</ele>
        <time>2008-10-05T09:30:35Z</time>
      </trkpt>
      <trkpt lat="50.41327" lon="3.51782">
        <ele>86.656005859375</ele>
        <time>2008-10-05T09:30:40Z</time>
      </trkpt>
      <trkpt lat="50.41321" lon="3.51815">
        <ele>86.17529296875</ele>
        <time>2008-10-05T09:30:46Z</time>
      </trkpt>
      <trkpt lat="50.4132" lon="3.51828">
        <ele>86.17529296875</ele>
        <time>2008-10-05T09:30:48Z</time>
      </trkpt>
      <trkpt lat="50.4131" lon="3.51855">
        <ele>85.694580078125</ele>
        <time>2008-10-05T09:30:53Z</time>
      </trkpt>
      <trkpt lat="50.41297" lon="3.51855">
        <ele>85.694580078125</ele>
        <time>2008-10-05T09:30:56Z</time>
      </trkpt>
      <trkpt lat="50.41277" lon="3.51849">
        <ele>85.694580078125</ele>
        <time>2008-10-05T09:31:01Z</time>
      </trkpt>
      <trkpt lat="50.41275" lon="3.51854">
        <ele>85.694580078125</ele>
        <time>2008-10-05T09:31:03Z</time>
      </trkpt>
      <trkpt lat="50.41272" lon="3.51873">
        <ele>87.136596679688</ele>
        <time>2008-10-05T09:31:08Z</time>
      </trkpt>
      <trkpt lat="50.41271" lon="3.51895">
        <ele>87.136596679688</ele>
        <time>2008-10-05T09:31:14Z</time>
      </trkpt>
      <trkpt lat="50.41274" lon="3.51906">
        <ele>88.098022460938</ele>
        <time>2008-10-05T09:31:17Z</time>
      </trkpt>
      <trkpt lat="50.4127" lon="3.51922">
        <ele>89.059326171875</ele>
        <time>2008-10-05T09:31:21Z</time>
      </trkpt>
      <trkpt lat="50.41265" lon="3.51937">
        <ele>89.059326171875</ele>
        <time>2008-10-05T09:31:24Z</time>
      </trkpt>
      <trkpt lat="50.41262" lon="3.51943">
        <ele>89.059326171875</ele>
        <time>2008-10-05T09:31:26Z</time>
      </trkpt>
      <trkpt lat="50.41259" lon="3.51958">
        <ele>88.098022460938</ele>
        <time>2008-10-05T09:31:31Z</time>
      </trkpt>
      <trkpt lat="50.41254" lon="3.51977">
        <ele>88.578735351562</ele>
        <time>2008-10-05T09:31:35Z</time>
      </trkpt>
      <trkpt lat="50.41255" lon="3.51993">
        <ele>88.098022460938</ele>
        <time>2008-10-05T09:31:39Z</time>
      </trkpt>
      <trkpt lat="50.41256" lon="3.51996">
        <ele>88.098022460938</ele>
        <time>2008-10-05T09:31:40Z</time>
      </trkpt>
      <trkpt lat="50.41259" lon="3.52003">
        <ele>87.136596679688</ele>
        <time>2008-10-05T09:31:42Z</time>
      </trkpt>
      <trkpt lat="50.41255" lon="3.52026">
        <ele>86.656005859375</ele>
        <time>2008-10-05T09:31:47Z</time>
      </trkpt>
      <trkpt lat="50.41245" lon="3.5204">
        <ele>87.136596679688</ele>
        <time>2008-10-05T09:31:51Z</time>
      </trkpt>
      <trkpt lat="50.41231" lon="3.52055">
        <ele>87.6171875</ele>
        <time>2008-10-05T09:31:56Z</time>
      </trkpt>
      <trkpt lat="50.41225" lon="3.52074">
        <ele>87.136596679688</ele>
        <time>2008-10-05T09:32:00Z</time>
      </trkpt>
      <trkpt lat="50.41224" lon="3.52079">
        <ele>87.136596679688</ele>
        <time>2008-10-05T09:32:01Z</time>
      </trkpt>
      <trkpt lat="50.41229" lon="3.52102">
        <ele>86.656005859375</ele>
        <time>2008-10-05T09:32:06Z</time>
      </trkpt>
      <trkpt lat="50.41234" lon="3.52122">
        <ele>86.17529296875</ele>
        <time>2008-10-05T09:32:10Z</time>
      </trkpt>
      <trkpt lat="50.4125" lon="3.52137">
        <ele>84.252685546875</ele>
        <time>2008-10-05T09:32:14Z</time>
      </trkpt>
      <trkpt lat="50.4126" lon="3.52141">
        <ele>83.77197265625</ele>
        <time>2008-10-05T09:32:16Z</time>
      </trkpt>
      <trkpt lat="50.41277" lon="3.52163">
        <ele>81.849365234375</ele>
        <time>2008-10-05T09:32:20Z</time>
      </trkpt>
      <trkpt lat="50.41282" lon="3.52187">
        <ele>81.368774414062</ele>
        <time>2008-10-05T09:32:23Z</time>
      </trkpt>
      <trkpt lat="50.4128" lon="3.52219">
        <ele>80.88818359375</ele>
        <time>2008-10-05T09:32:28Z</time>
      </trkpt>
      <trkpt lat="50.4127" lon="3.52238">
        <ele>81.849365234375</ele>
        <time>2008-10-05T09:32:33Z</time>
      </trkpt>
      <trkpt lat="50.41267" lon="3.52241">
        <ele>82.330078125</ele>
        <time>2008-10-05T09:32:34Z</time>
      </trkpt>
      <trkpt lat="50.41261" lon="3.52262">
        <ele>82.330078125</ele>
        <time>2008-10-05T09:32:39Z</time>
      </trkpt>
      <trkpt lat="50.41248" lon="3.52281">
        <ele>83.291381835938</ele>
        <time>2008-10-05T09:32:44Z</time>
      </trkpt>
      <trkpt lat="50.41237" lon="3.52299">
        <ele>84.7333984375</ele>
        <time>2008-10-05T09:32:48Z</time>
      </trkpt>
      <trkpt lat="50.41224" lon="3.52318">
        <ele>85.213989257812</ele>
        <time>2008-10-05T09:32:52Z</time>
      </trkpt>
      <trkpt lat="50.41215" lon="3.52345">
        <ele>84.7333984375</ele>
        <time>2008-10-05T09:32:57Z</time>
      </trkpt>
      <trkpt lat="50.41205" lon="3.52366">
        <ele>84.7333984375</ele>
        <time>2008-10-05T09:33:01Z</time>
      </trkpt>
      <trkpt lat="50.41199" lon="3.52381">
        <ele>84.7333984375</ele>
        <time>2008-10-05T09:33:04Z</time>
      </trkpt>
      <trkpt lat="50.4119" lon="3.52409">
        <ele>80.88818359375</ele>
        <time>2008-10-05T09:33:07Z</time>
      </trkpt>
      <trkpt lat="50.41184" lon="3.52429">
        <ele>78.965454101562</ele>
        <time>2008-10-05T09:33:10Z</time>
      </trkpt>
      <trkpt lat="50.41178" lon="3.52449">
        <ele>77.042846679688</ele>
        <time>2008-10-05T09:33:13Z</time>
      </trkpt>
      <trkpt lat="50.41179" lon="3.52457">
        <ele>76.081420898438</ele>
        <time>2008-10-05T09:33:15Z</time>
      </trkpt>
      <trkpt lat="50.41192" lon="3.52451">
        <ele>77.042846679688</ele>
        <time>2008-10-05T09:33:19Z</time>
      </trkpt>
      <trkpt lat="50.41208" lon="3.52456">
        <ele>76.081420898438</ele>
        <time>2008-10-05T09:33:23Z</time>
      </trkpt>
      <trkpt lat="50.41215" lon="3.52462">
        <ele>76.081420898438</ele>
        <time>2008-10-05T09:33:25Z</time>
      </trkpt>
      <trkpt lat="50.41234" lon="3.52472">
        <ele>75.120239257812</ele>
        <time>2008-10-05T09:33:30Z</time>
      </trkpt>
      <trkpt lat="50.41248" lon="3.52482">
        <ele>74.158813476562</ele>
        <time>2008-10-05T09:33:34Z</time>
      </trkpt>
      <trkpt lat="50.41253" lon="3.52484">
        <ele>73.67822265625</ele>
        <time>2008-10-05T09:33:36Z</time>
      </trkpt>
      <trkpt lat="50.41261" lon="3.52475">
        <ele>73.67822265625</ele>
        <time>2008-10-05T09:33:40Z</time>
      </trkpt>
      <trkpt lat="50.41275" lon="3.5247">
        <ele>72.716918945312</ele>
        <time>2008-10-05T09:33:45Z</time>
      </trkpt>
      <trkpt lat="50.4128" lon="3.52471">
        <ele>72.236206054688</ele>
        <time>2008-10-05T09:33:47Z</time>
      </trkpt>
      <trkpt lat="50.4129" lon="3.52458">
        <ele>73.67822265625</ele>
        <time>2008-10-05T09:33:52Z</time>
      </trkpt>
      <trkpt lat="50.41299" lon="3.52441">
        <ele>73.67822265625</ele>
        <time>2008-10-05T09:33:57Z</time>
      </trkpt>
      <trkpt lat="50.41311" lon="3.52442">
        <ele>74.158813476562</ele>
        <time>2008-10-05T09:34:01Z</time>
      </trkpt>
      <trkpt lat="50.41325" lon="3.5245">
        <ele>74.639526367188</ele>
        <time>2008-10-05T09:34:05Z</time>
      </trkpt>
      <trkpt lat="50.41332" lon="3.52459">
        <ele>75.120239257812</ele>
        <time>2008-10-05T09:34:08Z</time>
      </trkpt>
      <trkpt lat="50.4133" lon="3.5247">
        <ele>75.120239257812</ele>
        <time>2008-10-05T09:34:11Z</time>
      </trkpt>
      <trkpt lat="50.41326" lon="3.52496">
        <ele>72.236206054688</ele>
        <time>2008-10-05T09:34:17Z</time>
      </trkpt>
      <trkpt lat="50.41321" lon="3.5251">
        <ele>69.832885742188</ele>
        <time>2008-10-05T09:34:21Z</time>
      </trkpt>
      <trkpt lat="50.41325" lon="3.5252">
        <ele>68.390869140625</ele>
        <time>2008-10-05T09:34:23Z</time>
      </trkpt>
      <trkpt lat="50.4133" lon="3.5253">
        <ele>66.46826171875</ele>
        <time>2008-10-05T09:34:25Z</time>
      </trkpt>
      <trkpt lat="50.41348" lon="3.5255">
        <ele>62.142333984375</ele>
        <time>2008-10-05T09:34:31Z</time>
      </trkpt>
      <trkpt lat="50.41361" lon="3.52561">
        <ele>58.297119140625</ele>
        <time>2008-10-05T09:34:35Z</time>
      </trkpt>
      <trkpt lat="50.41376" lon="3.52578">
        <ele>54.451782226562</ele>
        <time>2008-10-05T09:34:40Z</time>
      </trkpt>
      <trkpt lat="50.41378" lon="3.52582">
        <ele>53.490478515625</ele>
        <time>2008-10-05T09:34:41Z</time>
      </trkpt>
      <trkpt lat="50.41376" lon="3.52593">
        <ele>51.087158203125</ele>
        <time>2008-10-05T09:34:45Z</time>
      </trkpt>
      <trkpt lat="50.41362" lon="3.52601">
        <ele>50.1259765625</ele>
        <time>2008-10-05T09:34:50Z</time>
      </trkpt>
      <trkpt lat="50.41351" lon="3.52621">
        <ele>48.683959960938</ele>
        <time>2008-10-05T09:34:55Z</time>
      </trkpt>
      <trkpt lat="50.41338" lon="3.52636">
        <ele>46.280639648438</ele>
        <time>2008-10-05T09:34:59Z</time>
      </trkpt>
      <trkpt lat="50.41329" lon="3.52642">
        <ele>46.280639648438</ele>
        <time>2008-10-05T09:35:01Z</time>
      </trkpt>
      <trkpt lat="50.41305" lon="3.52647">
        <ele>42.435424804688</ele>
        <time>2008-10-05T09:35:06Z</time>
      </trkpt>
      <trkpt lat="50.41275" lon="3.52644">
        <ele>40.032104492188</ele>
        <time>2008-10-05T09:35:11Z</time>
      </trkpt>
      <trkpt lat="50.41258" lon="3.52651">
        <ele>37.628662109375</ele>
        <time>2008-10-05T09:35:15Z</time>
      </trkpt>
      <trkpt lat="50.41251" lon="3.52647">
        <ele>37.148071289062</ele>
        <time>2008-10-05T09:35:18Z</time>
      </trkpt>
      <trkpt lat="50.41245" lon="3.52638">
        <ele>38.590087890625</ele>
        <time>2008-10-05T09:35:22Z</time>
      </trkpt>
      <trkpt lat="50.41237" lon="3.52621">
        <ele>41.473999023438</ele>
        <time>2008-10-05T09:35:27Z</time>
      </trkpt>
      <trkpt lat="50.41225" lon="3.52612">
        <ele>46.280639648438</ele>
        <time>2008-10-05T09:35:32Z</time>
      </trkpt>
      <trkpt lat="50.41217" lon="3.52611">
        <ele>47.722534179688</ele>
        <time>2008-10-05T09:35:35Z</time>
      </trkpt>
      <trkpt lat="50.41199" lon="3.52601">
        <ele>52.048583984375</ele>
        <time>2008-10-05T09:35:42Z</time>
      </trkpt>
      <trkpt lat="50.41185" lon="3.52598">
        <ele>53.97119140625</ele>
        <time>2008-10-05T09:35:47Z</time>
      </trkpt>
      <trkpt lat="50.41167" lon="3.52601">
        <ele>54.451782226562</ele>
        <time>2008-10-05T09:35:52Z</time>
      </trkpt>
      <trkpt lat="50.41153" lon="3.52602">
        <ele>54.451782226562</ele>
        <time>2008-10-05T09:35:56Z</time>
      </trkpt>
      <trkpt lat="50.41134" lon="3.526">
        <ele>53.490478515625</ele>
        <time>2008-10-05T09:36:01Z</time>
      </trkpt>
      <trkpt lat="50.41108" lon="3.52604">
        <ele>53.490478515625</ele>
        <time>2008-10-05T09:36:07Z</time>
      </trkpt>
      <trkpt lat="50.41088" lon="3.52608">
        <ele>51.56787109375</ele>
        <time>2008-10-05T09:36:12Z</time>
      </trkpt>
      <trkpt lat="50.41063" lon="3.52603">
        <ele>47.241821289062</ele>
        <time>2008-10-05T09:36:18Z</time>
      </trkpt>
      <trkpt lat="50.41052" lon="3.52576">
        <ele>47.722534179688</ele>
        <time>2008-10-05T09:36:23Z</time>
      </trkpt>
      <trkpt lat="50.4105" lon="3.52554">
        <ele>48.683959960938</ele>
        <time>2008-10-05T09:36:27Z</time>
      </trkpt>
      <trkpt lat="50.41046" lon="3.52529">
        <ele>52.048583984375</ele>
        <time>2008-10-05T09:36:33Z</time>
      </trkpt>
      <trkpt lat="50.41033" lon="3.52523">
        <ele>52.048583984375</ele>
        <time>2008-10-05T09:36:37Z</time>
      </trkpt>
      <trkpt lat="50.41025" lon="3.52507">
        <ele>51.087158203125</ele>
        <time>2008-10-05T09:36:40Z</time>
      </trkpt>
      <trkpt lat="50.41013" lon="3.52486">
        <ele>46.280639648438</ele>
        <time>2008-10-05T09:36:44Z</time>
      </trkpt>
      <trkpt lat="50.41004" lon="3.52477">
        <ele>45.319213867188</ele>
        <time>2008-10-05T09:36:46Z</time>
      </trkpt>
      <trkpt lat="50.40992" lon="3.52456">
        <ele>43.877319335938</ele>
        <time>2008-10-05T09:36:50Z</time>
      </trkpt>
      <trkpt lat="50.40981" lon="3.52424">
        <ele>41.954711914062</ele>
        <time>2008-10-05T09:36:55Z</time>
      </trkpt>
      <trkpt lat="50.40974" lon="3.52405">
        <ele>40.993408203125</ele>
        <time>2008-10-05T09:36:58Z</time>
      </trkpt>
      <trkpt lat="50.40965" lon="3.52381">
        <ele>40.512817382812</ele>
        <time>2008-10-05T09:37:02Z</time>
      </trkpt>
      <trkpt lat="50.40954" lon="3.52356">
        <ele>40.512817382812</ele>
        <time>2008-10-05T09:37:06Z</time>
      </trkpt>
      <trkpt lat="50.40948" lon="3.52332">
        <ele>39.070678710938</ele>
        <time>2008-10-05T09:37:10Z</time>
      </trkpt>
      <trkpt lat="50.40955" lon="3.52311">
        <ele>37.628662109375</ele>
        <time>2008-10-05T09:37:13Z</time>
      </trkpt>
      <trkpt lat="50.40974" lon="3.52264">
        <ele>37.628662109375</ele>
        <time>2008-10-05T09:37:20Z</time>
      </trkpt>
      <trkpt lat="50.40997" lon="3.52211">
        <ele>42.435424804688</ele>
        <time>2008-10-05T09:37:28Z</time>
      </trkpt>
      <trkpt lat="50.41012" lon="3.52176">
        <ele>44.838623046875</ele>
        <time>2008-10-05T09:37:33Z</time>
      </trkpt>
      <trkpt lat="50.41025" lon="3.52138">
        <ele>42.916015625</ele>
        <time>2008-10-05T09:37:39Z</time>
      </trkpt>
      <trkpt lat="50.41037" lon="3.52105">
        <ele>42.916015625</ele>
        <time>2008-10-05T09:37:44Z</time>
      </trkpt>
      <trkpt lat="50.41056" lon="3.52058">
        <ele>42.916015625</ele>
        <time>2008-10-05T09:37:51Z</time>
      </trkpt>
      <trkpt lat="50.41078" lon="3.52009">
        <ele>47.722534179688</ele>
        <time>2008-10-05T09:37:58Z</time>
      </trkpt>
      <trkpt lat="50.4109" lon="3.51981">
        <ele>49.645263671875</ele>
        <time>2008-10-05T09:38:02Z</time>
      </trkpt>
      <trkpt lat="50.41113" lon="3.51936">
        <ele>57.816528320312</ele>
        <time>2008-10-05T09:38:08Z</time>
      </trkpt>
      <trkpt lat="50.4112" lon="3.51914">
        <ele>55.893798828125</ele>
        <time>2008-10-05T09:38:11Z</time>
      </trkpt>
      <trkpt lat="50.41125" lon="3.51881">
        <ele>51.56787109375</ele>
        <time>2008-10-05T09:38:16Z</time>
      </trkpt>
      <trkpt lat="50.41145" lon="3.51833">
        <ele>47.722534179688</ele>
        <time>2008-10-05T09:38:22Z</time>
      </trkpt>
      <trkpt lat="50.41169" lon="3.51771">
        <ele>43.877319335938</ele>
        <time>2008-10-05T09:38:29Z</time>
      </trkpt>
      <trkpt lat="50.41193" lon="3.51716">
        <ele>45.799926757812</ele>
        <time>2008-10-05T09:38:35Z</time>
      </trkpt>
      <trkpt lat="50.4121" lon="3.5167">
        <ele>42.916015625</ele>
        <time>2008-10-05T09:38:40Z</time>
      </trkpt>
      <trkpt lat="50.41238" lon="3.51602">
        <ele>42.916015625</ele>
        <time>2008-10-05T09:38:47Z</time>
      </trkpt>
      <trkpt lat="50.4125" lon="3.51571">
        <ele>41.473999023438</ele>
        <time>2008-10-05T09:38:50Z</time>
      </trkpt>
      <trkpt lat="50.41257" lon="3.5155">
        <ele>41.473999023438</ele>
        <time>2008-10-05T09:38:52Z</time>
      </trkpt>
      <trkpt lat="50.4128" lon="3.51487">
        <ele>40.032104492188</ele>
        <time>2008-10-05T09:38:58Z</time>
      </trkpt>
      <trkpt lat="50.41287" lon="3.5147">
        <ele>38.590087890625</ele>
        <time>2008-10-05T09:39:00Z</time>
      </trkpt>
      <trkpt lat="50.41303" lon="3.51421">
        <ele>36.66748046875</ele>
        <time>2008-10-05T09:39:06Z</time>
      </trkpt>
      <trkpt lat="50.41321" lon="3.51365">
        <ele>37.148071289062</ele>
        <time>2008-10-05T09:39:12Z</time>
      </trkpt>
      <trkpt lat="50.41339" lon="3.51317">
        <ele>37.628662109375</ele>
        <time>2008-10-05T09:39:17Z</time>
      </trkpt>
      <trkpt lat="50.41356" lon="3.51268">
        <ele>37.148071289062</ele>
        <time>2008-10-05T09:39:22Z</time>
      </trkpt>
      <trkpt lat="50.41378" lon="3.5121">
        <ele>38.109375</ele>
        <time>2008-10-05T09:39:28Z</time>
      </trkpt>
      <trkpt lat="50.41402" lon="3.51152">
        <ele>35.225463867188</ele>
        <time>2008-10-05T09:39:34Z</time>
      </trkpt>
      <trkpt lat="50.41406" lon="3.51143">
        <ele>35.7060546875</ele>
        <time>2008-10-05T09:39:35Z</time>
      </trkpt>
      <trkpt lat="50.4143" lon="3.51083">
        <ele>34.26416015625</ele>
        <time>2008-10-05T09:39:41Z</time>
      </trkpt>
      <trkpt lat="50.4145" lon="3.51033">
        <ele>33.302856445312</ele>
        <time>2008-10-05T09:39:46Z</time>
      </trkpt>
      <trkpt lat="50.41476" lon="3.5097">
        <ele>30.899536132812</ele>
        <time>2008-10-05T09:39:52Z</time>
      </trkpt>
      <trkpt lat="50.41495" lon="3.50923">
        <ele>30.899536132812</ele>
        <time>2008-10-05T09:39:57Z</time>
      </trkpt>
      <trkpt lat="50.41515" lon="3.50872">
        <ele>28.976928710938</ele>
        <time>2008-10-05T09:40:02Z</time>
      </trkpt>
      <trkpt lat="50.41522" lon="3.50853">
        <ele>29.938110351562</ele>
        <time>2008-10-05T09:40:04Z</time>
      </trkpt>
      <trkpt lat="50.41548" lon="3.50788">
        <ele>32.822265625</ele>
        <time>2008-10-05T09:40:11Z</time>
      </trkpt>
      <trkpt lat="50.41572" lon="3.50731">
        <ele>31.860717773438</ele>
        <time>2008-10-05T09:40:18Z</time>
      </trkpt>
      <trkpt lat="50.41585" lon="3.50699">
        <ele>31.380126953125</ele>
        <time>2008-10-05T09:40:22Z</time>
      </trkpt>
      <trkpt lat="50.41599" lon="3.50661">
        <ele>30.899536132812</ele>
        <time>2008-10-05T09:40:27Z</time>
      </trkpt>
      <trkpt lat="50.41625" lon="3.50596">
        <ele>30.418823242188</ele>
        <time>2008-10-05T09:40:35Z</time>
      </trkpt>
      <trkpt lat="50.41633" lon="3.50579">
        <ele>30.899536132812</ele>
        <time>2008-10-05T09:40:37Z</time>
      </trkpt>
      <trkpt lat="50.41653" lon="3.5052">
        <ele>29.45751953125</ele>
        <time>2008-10-05T09:40:44Z</time>
      </trkpt>
      <trkpt lat="50.41656" lon="3.50506">
        <ele>29.938110351562</ele>
        <time>2008-10-05T09:40:46Z</time>
      </trkpt>
      <trkpt lat="50.41666" lon="3.50482">
        <ele>29.45751953125</ele>
        <time>2008-10-05T09:40:49Z</time>
      </trkpt>
      <trkpt lat="50.41684" lon="3.50434">
        <ele>29.938110351562</ele>
        <time>2008-10-05T09:40:55Z</time>
      </trkpt>
      <trkpt lat="50.41706" lon="3.50383">
        <ele>28.976928710938</ele>
        <time>2008-10-05T09:41:01Z</time>
      </trkpt>
      <trkpt lat="50.41734" lon="3.5031">
        <ele>28.976928710938</ele>
        <time>2008-10-05T09:41:10Z</time>
      </trkpt>
      <trkpt lat="50.41748" lon="3.50271">
        <ele>29.938110351562</ele>
        <time>2008-10-05T09:41:15Z</time>
      </trkpt>
      <trkpt lat="50.41753" lon="3.50254">
        <ele>29.45751953125</ele>
        <time>2008-10-05T09:41:17Z</time>
      </trkpt>
      <trkpt lat="50.41786" lon="3.50177">
        <ele>28.496215820312</ele>
        <time>2008-10-05T09:41:26Z</time>
      </trkpt>
      <trkpt lat="50.41812" lon="3.50115">
        <ele>28.496215820312</ele>
        <time>2008-10-05T09:41:33Z</time>
      </trkpt>
      <trkpt lat="50.41835" lon="3.50065">
        <ele>30.418823242188</ele>
        <time>2008-10-05T09:41:39Z</time>
      </trkpt>
      <trkpt lat="50.41852" lon="3.50041">
        <ele>29.45751953125</ele>
        <time>2008-10-05T09:41:42Z</time>
      </trkpt>
      <trkpt lat="50.41876" lon="3.50021">
        <ele>27.534912109375</ele>
        <time>2008-10-05T09:41:46Z</time>
      </trkpt>
      <trkpt lat="50.41923" lon="3.5">
        <ele>26.573608398438</ele>
        <time>2008-10-05T09:41:53Z</time>
      </trkpt>
      <trkpt lat="50.41971" lon="3.4998">
        <ele>26.092895507812</ele>
        <time>2008-10-05T09:42:00Z</time>
      </trkpt>
      <trkpt lat="50.4201" lon="3.49964">
        <ele>26.573608398438</ele>
        <time>2008-10-05T09:42:06Z</time>
      </trkpt>
      <trkpt lat="50.42043" lon="3.49949">
        <ele>27.054321289062</ele>
        <time>2008-10-05T09:42:12Z</time>
      </trkpt>
      <trkpt lat="50.42072" lon="3.49939">
        <ele>27.534912109375</ele>
        <time>2008-10-05T09:42:17Z</time>
      </trkpt>
      <trkpt lat="50.42085" lon="3.49932">
        <ele>28.496215820312</ele>
        <time>2008-10-05T09:42:19Z</time>
      </trkpt>
      <trkpt lat="50.42117" lon="3.49917">
        <ele>28.496215820312</ele>
        <time>2008-10-05T09:42:24Z</time>
      </trkpt>
      <trkpt lat="50.42161" lon="3.49897">
        <ele>27.054321289062</ele>
        <time>2008-10-05T09:42:31Z</time>
      </trkpt>
      <trkpt lat="50.42204" lon="3.49878">
        <ele>28.015502929688</ele>
        <time>2008-10-05T09:42:38Z</time>
      </trkpt>
      <trkpt lat="50.42238" lon="3.49862">
        <ele>29.938110351562</ele>
        <time>2008-10-05T09:42:44Z</time>
      </trkpt>
      <trkpt lat="50.42264" lon="3.4985">
        <ele>31.860717773438</ele>
        <time>2008-10-05T09:42:49Z</time>
      </trkpt>
      <trkpt lat="50.42278" lon="3.49823">
        <ele>32.341552734375</ele>
        <time>2008-10-05T09:42:54Z</time>
      </trkpt>
      <trkpt lat="50.42278" lon="3.49782">
        <ele>35.225463867188</ele>
        <time>2008-10-05T09:42:59Z</time>
      </trkpt>
      <trkpt lat="50.42277" lon="3.49773">
        <ele>34.744873046875</ele>
        <time>2008-10-05T09:43:00Z</time>
      </trkpt>
      <trkpt lat="50.42275" lon="3.49738">
        <ele>35.7060546875</ele>
        <time>2008-10-05T09:43:04Z</time>
      </trkpt>
      <trkpt lat="50.42273" lon="3.49712">
        <ele>37.148071289062</ele>
        <time>2008-10-05T09:43:07Z</time>
      </trkpt>
      <trkpt lat="50.42266" lon="3.49669">
        <ele>35.7060546875</ele>
        <time>2008-10-05T09:43:12Z</time>
      </trkpt>
      <trkpt lat="50.42264" lon="3.49652">
        <ele>33.302856445312</ele>
        <time>2008-10-05T09:43:14Z</time>
      </trkpt>
      <trkpt lat="50.42272" lon="3.49608">
        <ele>29.45751953125</ele>
        <time>2008-10-05T09:43:19Z</time>
      </trkpt>
      <trkpt lat="50.42286" lon="3.49563">
        <ele>27.054321289062</ele>
        <time>2008-10-05T09:43:24Z</time>
      </trkpt>
      <trkpt lat="50.4229" lon="3.49543">
        <ele>26.092895507812</ele>
        <time>2008-10-05T09:43:26Z</time>
      </trkpt>
      <trkpt lat="50.42299" lon="3.49483">
        <ele>25.6123046875</ele>
        <time>2008-10-05T09:43:32Z</time>
      </trkpt>
      <trkpt lat="50.42301" lon="3.49456">
        <ele>24.170288085938</ele>
        <time>2008-10-05T09:43:35Z</time>
      </trkpt>
      <trkpt lat="50.42313" lon="3.49381">
        <ele>22.728271484375</ele>
        <time>2008-10-05T09:43:43Z</time>
      </trkpt>
      <trkpt lat="50.42317" lon="3.49347">
        <ele>23.689575195312</ele>
        <time>2008-10-05T09:43:47Z</time>
      </trkpt>
      <trkpt lat="50.42309" lon="3.49319">
        <ele>26.092895507812</ele>
        <time>2008-10-05T09:43:51Z</time>
      </trkpt>
      <trkpt lat="50.42297" lon="3.4931">
        <ele>25.6123046875</ele>
        <time>2008-10-05T09:43:53Z</time>
      </trkpt>
      <trkpt lat="50.42279" lon="3.49286">
        <ele>28.015502929688</ele>
        <time>2008-10-05T09:43:57Z</time>
      </trkpt>
      <trkpt lat="50.42255" lon="3.4925">
        <ele>35.7060546875</ele>
        <time>2008-10-05T09:44:03Z</time>
      </trkpt>
      <trkpt lat="50.42245" lon="3.49217">
        <ele>37.628662109375</ele>
        <time>2008-10-05T09:44:08Z</time>
      </trkpt>
      <trkpt lat="50.42255" lon="3.49188">
        <ele>36.186767578125</ele>
        <time>2008-10-05T09:44:12Z</time>
      </trkpt>
      <trkpt lat="50.42264" lon="3.49173">
        <ele>34.26416015625</ele>
        <time>2008-10-05T09:44:14Z</time>
      </trkpt>
      <trkpt lat="50.42273" lon="3.49152">
        <ele>33.783447265625</ele>
        <time>2008-10-05T09:44:17Z</time>
      </trkpt>
      <trkpt lat="50.42285" lon="3.49122">
        <ele>34.26416015625</ele>
        <time>2008-10-05T09:44:21Z</time>
      </trkpt>
      <trkpt lat="50.42299" lon="3.49099">
        <ele>33.783447265625</ele>
        <time>2008-10-05T09:44:24Z</time>
      </trkpt>
      <trkpt lat="50.42335" lon="3.4905">
        <ele>32.822265625</ele>
        <time>2008-10-05T09:44:31Z</time>
      </trkpt>
      <trkpt lat="50.42344" lon="3.4904">
        <ele>32.822265625</ele>
        <time>2008-10-05T09:44:33Z</time>
      </trkpt>
      <trkpt lat="50.42368" lon="3.49013">
        <ele>34.26416015625</ele>
        <time>2008-10-05T09:44:38Z</time>
      </trkpt>
      <trkpt lat="50.42377" lon="3.4899">
        <ele>32.822265625</ele>
        <time>2008-10-05T09:44:42Z</time>
      </trkpt>
      <trkpt lat="50.42385" lon="3.48973">
        <ele>32.822265625</ele>
        <time>2008-10-05T09:44:44Z</time>
      </trkpt>
      <trkpt lat="50.42393" lon="3.48957">
        <ele>31.860717773438</ele>
        <time>2008-10-05T09:44:46Z</time>
      </trkpt>
      <trkpt lat="50.42416" lon="3.48934">
        <ele>30.418823242188</ele>
        <time>2008-10-05T09:44:50Z</time>
      </trkpt>
      <trkpt lat="50.42429" lon="3.48903">
        <ele>30.899536132812</ele>
        <time>2008-10-05T09:44:54Z</time>
      </trkpt>
      <trkpt lat="50.42433" lon="3.48894">
        <ele>31.860717773438</ele>
        <time>2008-10-05T09:44:55Z</time>
      </trkpt>
      <trkpt lat="50.42455" lon="3.48849">
        <ele>31.860717773438</ele>
        <time>2008-10-05T09:45:01Z</time>
      </trkpt>
      <trkpt lat="50.42467" lon="3.48811">
        <ele>32.341552734375</ele>
        <time>2008-10-05T09:45:06Z</time>
      </trkpt>
      <trkpt lat="50.42487" lon="3.48776">
        <ele>32.822265625</ele>
        <time>2008-10-05T09:45:11Z</time>
      </trkpt>
      <trkpt lat="50.42488" lon="3.48749">
        <ele>33.302856445312</ele>
        <time>2008-10-05T09:45:15Z</time>
      </trkpt>
      <trkpt lat="50.42481" lon="3.48725">
        <ele>33.302856445312</ele>
        <time>2008-10-05T09:45:18Z</time>
      </trkpt>
      <trkpt lat="50.42459" lon="3.48665">
        <ele>40.993408203125</ele>
        <time>2008-10-05T09:45:26Z</time>
      </trkpt>
      <trkpt lat="50.42457" lon="3.48658">
        <ele>40.993408203125</ele>
        <time>2008-10-05T09:45:27Z</time>
      </trkpt>
      <trkpt lat="50.4246" lon="3.48627">
        <ele>36.186767578125</ele>
        <time>2008-10-05T09:45:32Z</time>
      </trkpt>
      <trkpt lat="50.42467" lon="3.48598">
        <ele>33.302856445312</ele>
        <time>2008-10-05T09:45:37Z</time>
      </trkpt>
      <trkpt lat="50.42482" lon="3.48562">
        <ele>32.341552734375</ele>
        <time>2008-10-05T09:45:41Z</time>
      </trkpt>
      <trkpt lat="50.42495" lon="3.48528">
        <ele>32.341552734375</ele>
        <time>2008-10-05T09:45:45Z</time>
      </trkpt>
      <trkpt lat="50.42503" lon="3.48495">
        <ele>29.938110351562</ele>
        <time>2008-10-05T09:45:49Z</time>
      </trkpt>
      <trkpt lat="50.42508" lon="3.48456">
        <ele>25.6123046875</ele>
        <time>2008-10-05T09:45:53Z</time>
      </trkpt>
      <trkpt lat="50.42509" lon="3.48446">
        <ele>25.6123046875</ele>
        <time>2008-10-05T09:45:54Z</time>
      </trkpt>
      <trkpt lat="50.4251" lon="3.48409">
        <ele>23.689575195312</ele>
        <time>2008-10-05T09:45:58Z</time>
      </trkpt>
      <trkpt lat="50.4251" lon="3.48391">
        <ele>23.689575195312</ele>
        <time>2008-10-05T09:46:00Z</time>
      </trkpt>
      <trkpt lat="50.42515" lon="3.48371">
        <ele>24.170288085938</ele>
        <time>2008-10-05T09:46:02Z</time>
      </trkpt>
      <trkpt lat="50.42528" lon="3.48338">
        <ele>26.573608398438</ele>
        <time>2008-10-05T09:46:06Z</time>
      </trkpt>
      <trkpt lat="50.42535" lon="3.48311">
        <ele>25.6123046875</ele>
        <time>2008-10-05T09:46:09Z</time>
      </trkpt>
      <trkpt lat="50.42545" lon="3.48245">
        <ele>25.131713867188</ele>
        <time>2008-10-05T09:46:16Z</time>
      </trkpt>
      <trkpt lat="50.42547" lon="3.48237">
        <ele>26.573608398438</ele>
        <time>2008-10-05T09:46:17Z</time>
      </trkpt>
      <trkpt lat="50.4255" lon="3.48216">
        <ele>28.496215820312</ele>
        <time>2008-10-05T09:46:20Z</time>
      </trkpt>
      <trkpt lat="50.42562" lon="3.48189">
        <ele>28.496215820312</ele>
        <time>2008-10-05T09:46:25Z</time>
      </trkpt>
      <trkpt lat="50.42567" lon="3.4819">
        <ele>28.976928710938</ele>
        <time>2008-10-05T09:46:26Z</time>
      </trkpt>
      <trkpt lat="50.42577" lon="3.48193">
        <ele>28.015502929688</ele>
        <time>2008-10-05T09:46:28Z</time>
      </trkpt>
      <trkpt lat="50.42602" lon="3.48197">
        <ele>24.170288085938</ele>
        <time>2008-10-05T09:46:32Z</time>
      </trkpt>
      <trkpt lat="50.42609" lon="3.48197">
        <ele>23.689575195312</ele>
        <time>2008-10-05T09:46:33Z</time>
      </trkpt>
      <trkpt lat="50.42624" lon="3.48193">
        <ele>22.728271484375</ele>
        <time>2008-10-05T09:46:35Z</time>
      </trkpt>
      <trkpt lat="50.4267" lon="3.48184">
        <ele>22.24755859375</ele>
        <time>2008-10-05T09:46:42Z</time>
      </trkpt>
      <trkpt lat="50.42708" lon="3.48175">
        <ele>23.208984375</ele>
        <time>2008-10-05T09:46:48Z</time>
      </trkpt>
      <trkpt lat="50.42725" lon="3.48154">
        <ele>23.208984375</ele>
        <time>2008-10-05T09:46:52Z</time>
      </trkpt>
      <trkpt lat="50.42729" lon="3.48146">
        <ele>23.689575195312</ele>
        <time>2008-10-05T09:46:53Z</time>
      </trkpt>
      <trkpt lat="50.42755" lon="3.48085">
        <ele>25.6123046875</ele>
        <time>2008-10-05T09:47:00Z</time>
      </trkpt>
      <trkpt lat="50.42773" lon="3.4804">
        <ele>27.534912109375</ele>
        <time>2008-10-05T09:47:05Z</time>
      </trkpt>
      <trkpt lat="50.42805" lon="3.47969">
        <ele>31.380126953125</ele>
        <time>2008-10-05T09:47:13Z</time>
      </trkpt>
      <trkpt lat="50.42835" lon="3.47898">
        <ele>31.380126953125</ele>
        <time>2008-10-05T09:47:21Z</time>
      </trkpt>
      <trkpt lat="50.42852" lon="3.47856">
        <ele>28.976928710938</ele>
        <time>2008-10-05T09:47:26Z</time>
      </trkpt>
      <trkpt lat="50.42869" lon="3.47812">
        <ele>28.496215820312</ele>
        <time>2008-10-05T09:47:31Z</time>
      </trkpt>
      <trkpt lat="50.42897" lon="3.47748">
        <ele>28.015502929688</ele>
        <time>2008-10-05T09:47:39Z</time>
      </trkpt>
      <trkpt lat="50.42927" lon="3.47681">
        <ele>33.783447265625</ele>
        <time>2008-10-05T09:47:47Z</time>
      </trkpt>
      <trkpt lat="50.42937" lon="3.47658">
        <ele>34.744873046875</ele>
        <time>2008-10-05T09:47:50Z</time>
      </trkpt>
      <trkpt lat="50.42958" lon="3.47612">
        <ele>35.225463867188</ele>
        <time>2008-10-05T09:47:56Z</time>
      </trkpt>
      <trkpt lat="50.4296" lon="3.47605">
        <ele>34.744873046875</ele>
        <time>2008-10-05T09:47:57Z</time>
      </trkpt>
      <trkpt lat="50.4298" lon="3.47551">
        <ele>35.7060546875</ele>
        <time>2008-10-05T09:48:04Z</time>
      </trkpt>
      <trkpt lat="50.42993" lon="3.47521">
        <ele>35.225463867188</ele>
        <time>2008-10-05T09:48:08Z</time>
      </trkpt>
      <trkpt lat="50.43001" lon="3.47488">
        <ele>36.66748046875</ele>
        <time>2008-10-05T09:48:12Z</time>
      </trkpt>
      <trkpt lat="50.43002" lon="3.47467">
        <ele>37.148071289062</ele>
        <time>2008-10-05T09:48:15Z</time>
      </trkpt>
      <trkpt lat="50.43012" lon="3.47433">
        <ele>35.7060546875</ele>
        <time>2008-10-05T09:48:20Z</time>
      </trkpt>
      <trkpt lat="50.43027" lon="3.47402">
        <ele>31.860717773438</ele>
        <time>2008-10-05T09:48:24Z</time>
      </trkpt>
      <trkpt lat="50.43047" lon="3.47361">
        <ele>30.899536132812</ele>
        <time>2008-10-05T09:48:29Z</time>
      </trkpt>
      <trkpt lat="50.4306" lon="3.47336">
        <ele>30.899536132812</ele>
        <time>2008-10-05T09:48:32Z</time>
      </trkpt>
      <trkpt lat="50.43077" lon="3.47303">
        <ele>31.380126953125</ele>
        <time>2008-10-05T09:48:36Z</time>
      </trkpt>
      <trkpt lat="50.43088" lon="3.47274">
        <ele>30.899536132812</ele>
        <time>2008-10-05T09:48:40Z</time>
      </trkpt>
      <trkpt lat="50.43108" lon="3.47231">
        <ele>30.899536132812</ele>
        <time>2008-10-05T09:48:46Z</time>
      </trkpt>
      <trkpt lat="50.43113" lon="3.4722">
        <ele>31.380126953125</ele>
        <time>2008-10-05T09:48:48Z</time>
      </trkpt>
      <trkpt lat="50.43121" lon="3.47198">
        <ele>30.418823242188</ele>
        <time>2008-10-05T09:48:51Z</time>
      </trkpt>
      <trkpt lat="50.43128" lon="3.47172">
        <ele>29.45751953125</ele>
        <time>2008-10-05T09:48:55Z</time>
      </trkpt>
      <trkpt lat="50.43134" lon="3.47157">
        <ele>27.534912109375</ele>
        <time>2008-10-05T09:48:57Z</time>
      </trkpt>
      <trkpt lat="50.4316" lon="3.47107">
        <ele>26.092895507812</ele>
        <time>2008-10-05T09:49:03Z</time>
      </trkpt>
      <trkpt lat="50.43179" lon="3.47064">
        <ele>28.976928710938</ele>
        <time>2008-10-05T09:49:08Z</time>
      </trkpt>
      <trkpt lat="50.43198" lon="3.47018">
        <ele>28.496215820312</ele>
        <time>2008-10-05T09:49:13Z</time>
      </trkpt>
      <trkpt lat="50.43222" lon="3.46963">
        <ele>30.418823242188</ele>
        <time>2008-10-05T09:49:19Z</time>
      </trkpt>
      <trkpt lat="50.43249" lon="3.46907">
        <ele>34.744873046875</ele>
        <time>2008-10-05T09:49:25Z</time>
      </trkpt>
      <trkpt lat="50.43256" lon="3.46888">
        <ele>35.225463867188</ele>
        <time>2008-10-05T09:49:27Z</time>
      </trkpt>
      <trkpt lat="50.43272" lon="3.46834">
        <ele>35.225463867188</ele>
        <time>2008-10-05T09:49:33Z</time>
      </trkpt>
      <trkpt lat="50.43284" lon="3.46807">
        <ele>37.628662109375</ele>
        <time>2008-10-05T09:49:36Z</time>
      </trkpt>
      <trkpt lat="50.43297" lon="3.46767">
        <ele>38.590087890625</ele>
        <time>2008-10-05T09:49:41Z</time>
      </trkpt>
      <trkpt lat="50.43314" lon="3.46737">
        <ele>37.148071289062</ele>
        <time>2008-10-05T09:49:45Z</time>
      </trkpt>
      <trkpt lat="50.43325" lon="3.46708">
        <ele>36.186767578125</ele>
        <time>2008-10-05T09:49:49Z</time>
      </trkpt>
      <trkpt lat="50.43324" lon="3.46675">
        <ele>35.225463867188</ele>
        <time>2008-10-05T09:49:54Z</time>
      </trkpt>
      <trkpt lat="50.43314" lon="3.4664">
        <ele>35.7060546875</ele>
        <time>2008-10-05T09:49:59Z</time>
      </trkpt>
      <trkpt lat="50.43307" lon="3.46612">
        <ele>36.66748046875</ele>
        <time>2008-10-05T09:50:03Z</time>
      </trkpt>
      <trkpt lat="50.43299" lon="3.46583">
        <ele>38.109375</ele>
        <time>2008-10-05T09:50:07Z</time>
      </trkpt>
      <trkpt lat="50.43296" lon="3.46544">
        <ele>38.109375</ele>
        <time>2008-10-05T09:50:12Z</time>
      </trkpt>
      <trkpt lat="50.43291" lon="3.46517">
        <ele>39.55126953125</ele>
        <time>2008-10-05T09:50:16Z</time>
      </trkpt>
      <trkpt lat="50.43286" lon="3.46487">
        <ele>37.148071289062</ele>
        <time>2008-10-05T09:50:20Z</time>
      </trkpt>
      <trkpt lat="50.43283" lon="3.46462">
        <ele>36.186767578125</ele>
        <time>2008-10-05T09:50:24Z</time>
      </trkpt>
      <trkpt lat="50.43279" lon="3.46432">
        <ele>36.66748046875</ele>
        <time>2008-10-05T09:50:28Z</time>
      </trkpt>
      <trkpt lat="50.43267" lon="3.46393">
        <ele>37.148071289062</ele>
        <time>2008-10-05T09:50:33Z</time>
      </trkpt>
      <trkpt lat="50.43262" lon="3.46367">
        <ele>36.66748046875</ele>
        <time>2008-10-05T09:50:37Z</time>
      </trkpt>
      <trkpt lat="50.43261" lon="3.46324">
        <ele>39.070678710938</ele>
        <time>2008-10-05T09:50:44Z</time>
      </trkpt>
      <trkpt lat="50.43256" lon="3.46286">
        <ele>42.916015625</ele>
        <time>2008-10-05T09:50:50Z</time>
      </trkpt>
      <trkpt lat="50.43257" lon="3.46251">
        <ele>41.473999023438</ele>
        <time>2008-10-05T09:50:56Z</time>
      </trkpt>
      <trkpt lat="50.43258" lon="3.46234">
        <ele>44.838623046875</ele>
        <time>2008-10-05T09:50:59Z</time>
      </trkpt>
      <trkpt lat="50.43253" lon="3.46202">
        <ele>46.280639648438</ele>
        <time>2008-10-05T09:51:03Z</time>
      </trkpt>
      <trkpt lat="50.43248" lon="3.46169">
        <ele>44.358032226562</ele>
        <time>2008-10-05T09:51:08Z</time>
      </trkpt>
      <trkpt lat="50.43247" lon="3.46151">
        <ele>44.838623046875</ele>
        <time>2008-10-05T09:51:11Z</time>
      </trkpt>
      <trkpt lat="50.43236" lon="3.46097">
        <ele>38.590087890625</ele>
        <time>2008-10-05T09:51:18Z</time>
      </trkpt>
      <trkpt lat="50.43236" lon="3.4609">
        <ele>39.070678710938</ele>
        <time>2008-10-05T09:51:19Z</time>
      </trkpt>
      <trkpt lat="50.43225" lon="3.46037">
        <ele>36.186767578125</ele>
        <time>2008-10-05T09:51:26Z</time>
      </trkpt>
      <trkpt lat="50.43222" lon="3.45995">
        <ele>35.7060546875</ele>
        <time>2008-10-05T09:51:32Z</time>
      </trkpt>
      <trkpt lat="50.43217" lon="3.45956">
        <ele>38.109375</ele>
        <time>2008-10-05T09:51:38Z</time>
      </trkpt>
      <trkpt lat="50.43207" lon="3.45914">
        <ele>34.744873046875</ele>
        <time>2008-10-05T09:51:44Z</time>
      </trkpt>
      <trkpt lat="50.43205" lon="3.45901">
        <ele>35.225463867188</ele>
        <time>2008-10-05T09:51:46Z</time>
      </trkpt>
      <trkpt lat="50.43198" lon="3.45873">
        <ele>37.148071289062</ele>
        <time>2008-10-05T09:51:50Z</time>
      </trkpt>
      <trkpt lat="50.43189" lon="3.45845">
        <ele>39.55126953125</ele>
        <time>2008-10-05T09:51:54Z</time>
      </trkpt>
      <trkpt lat="50.43188" lon="3.45808">
        <ele>37.628662109375</ele>
        <time>2008-10-05T09:51:59Z</time>
      </trkpt>
      <trkpt lat="50.43187" lon="3.458">
        <ele>37.628662109375</ele>
        <time>2008-10-05T09:52:00Z</time>
      </trkpt>
      <trkpt lat="50.43185" lon="3.45763">
        <ele>33.302856445312</ele>
        <time>2008-10-05T09:52:06Z</time>
      </trkpt>
      <trkpt lat="50.43181" lon="3.4574">
        <ele>30.418823242188</ele>
        <time>2008-10-05T09:52:10Z</time>
      </trkpt>
      <trkpt lat="50.43177" lon="3.45715">
        <ele>31.860717773438</ele>
        <time>2008-10-05T09:52:14Z</time>
      </trkpt>
      <trkpt lat="50.43174" lon="3.45692">
        <ele>33.783447265625</ele>
        <time>2008-10-05T09:52:18Z</time>
      </trkpt>
      <trkpt lat="50.43173" lon="3.45659">
        <ele>36.186767578125</ele>
        <time>2008-10-05T09:52:24Z</time>
      </trkpt>
      <trkpt lat="50.43168" lon="3.45628">
        <ele>37.628662109375</ele>
        <time>2008-10-05T09:52:30Z</time>
      </trkpt>
      <trkpt lat="50.43164" lon="3.45611">
        <ele>40.032104492188</ele>
        <time>2008-10-05T09:52:33Z</time>
      </trkpt>
      <trkpt lat="50.43159" lon="3.45575">
        <ele>41.473999023438</ele>
        <time>2008-10-05T09:52:39Z</time>
      </trkpt>
      <trkpt lat="50.43155" lon="3.45562">
        <ele>40.993408203125</ele>
        <time>2008-10-05T09:52:41Z</time>
      </trkpt>
      <trkpt lat="50.43147" lon="3.4552">
        <ele>38.590087890625</ele>
        <time>2008-10-05T09:52:48Z</time>
      </trkpt>
      <trkpt lat="50.43141" lon="3.4549">
        <ele>38.109375</ele>
        <time>2008-10-05T09:52:53Z</time>
      </trkpt>
      <trkpt lat="50.43132" lon="3.45463">
        <ele>38.590087890625</ele>
        <time>2008-10-05T09:52:58Z</time>
      </trkpt>
      <trkpt lat="50.4313" lon="3.45434">
        <ele>36.186767578125</ele>
        <time>2008-10-05T09:53:03Z</time>
      </trkpt>
      <trkpt lat="50.43127" lon="3.45403">
        <ele>34.744873046875</ele>
        <time>2008-10-05T09:53:08Z</time>
      </trkpt>
      <trkpt lat="50.43115" lon="3.45378">
        <ele>34.26416015625</ele>
        <time>2008-10-05T09:53:12Z</time>
      </trkpt>
      <trkpt lat="50.43103" lon="3.45337">
        <ele>33.302856445312</ele>
        <time>2008-10-05T09:53:18Z</time>
      </trkpt>
      <trkpt lat="50.43099" lon="3.45325">
        <ele>33.302856445312</ele>
        <time>2008-10-05T09:53:20Z</time>
      </trkpt>
      <trkpt lat="50.43081" lon="3.45276">
        <ele>36.186767578125</ele>
        <time>2008-10-05T09:53:28Z</time>
      </trkpt>
      <trkpt lat="50.43071" lon="3.45243">
        <ele>35.7060546875</ele>
        <time>2008-10-05T09:53:34Z</time>
      </trkpt>
      <trkpt lat="50.43063" lon="3.45214">
        <ele>35.225463867188</ele>
        <time>2008-10-05T09:53:39Z</time>
      </trkpt>
      <trkpt lat="50.4306" lon="3.45202">
        <ele>35.7060546875</ele>
        <time>2008-10-05T09:53:41Z</time>
      </trkpt>
      <trkpt lat="50.43041" lon="3.45163">
        <ele>39.55126953125</ele>
        <time>2008-10-05T09:53:48Z</time>
      </trkpt>
      <trkpt lat="50.43033" lon="3.45141">
        <ele>40.993408203125</ele>
        <time>2008-10-05T09:53:52Z</time>
      </trkpt>
      <trkpt lat="50.43027" lon="3.45128">
        <ele>42.916015625</ele>
        <time>2008-10-05T09:53:54Z</time>
      </trkpt>
      <trkpt lat="50.43015" lon="3.45103">
        <ele>43.396606445312</ele>
        <time>2008-10-05T09:53:58Z</time>
      </trkpt>
      <trkpt lat="50.43008" lon="3.45086">
        <ele>43.877319335938</ele>
        <time>2008-10-05T09:54:01Z</time>
      </trkpt>
      <trkpt lat="50.42993" lon="3.45048">
        <ele>45.799926757812</ele>
        <time>2008-10-05T09:54:08Z</time>
      </trkpt>
      <trkpt lat="50.42991" lon="3.45041">
        <ele>45.799926757812</ele>
        <time>2008-10-05T09:54:09Z</time>
      </trkpt>
      <trkpt lat="50.42981" lon="3.45015">
        <ele>46.76123046875</ele>
        <time>2008-10-05T09:54:14Z</time>
      </trkpt>
      <trkpt lat="50.42971" lon="3.44986">
        <ele>49.16455078125</ele>
        <time>2008-10-05T09:54:19Z</time>
      </trkpt>
      <trkpt lat="50.42955" lon="3.44951">
        <ele>52.048583984375</ele>
        <time>2008-10-05T09:54:25Z</time>
      </trkpt>
      <trkpt lat="50.42946" lon="3.44927">
        <ele>54.451782226562</ele>
        <time>2008-10-05T09:54:30Z</time>
      </trkpt>
      <trkpt lat="50.42933" lon="3.44896">
        <ele>56.37451171875</ele>
        <time>2008-10-05T09:54:36Z</time>
      </trkpt>
      <trkpt lat="50.42931" lon="3.44891">
        <ele>57.335815429688</ele>
        <time>2008-10-05T09:54:37Z</time>
      </trkpt>
      <trkpt lat="50.42916" lon="3.44862">
        <ele>54.932373046875</ele>
        <time>2008-10-05T09:54:42Z</time>
      </trkpt>
      <trkpt lat="50.42899" lon="3.44826">
        <ele>53.009765625</ele>
        <time>2008-10-05T09:54:49Z</time>
      </trkpt>
      <trkpt lat="50.42887" lon="3.44802">
        <ele>51.087158203125</ele>
        <time>2008-10-05T09:54:54Z</time>
      </trkpt>
      <trkpt lat="50.42875" lon="3.44769">
        <ele>54.451782226562</ele>
        <time>2008-10-05T09:55:00Z</time>
      </trkpt>
      <trkpt lat="50.42862" lon="3.44739">
        <ele>58.297119140625</ele>
        <time>2008-10-05T09:55:06Z</time>
      </trkpt>
      <trkpt lat="50.42851" lon="3.4471">
        <ele>57.816528320312</ele>
        <time>2008-10-05T09:55:12Z</time>
      </trkpt>
      <trkpt lat="50.42835" lon="3.44673">
        <ele>58.777709960938</ele>
        <time>2008-10-05T09:55:19Z</time>
      </trkpt>
      <trkpt lat="50.42827" lon="3.44652">
        <ele>56.37451171875</ele>
        <time>2008-10-05T09:55:23Z</time>
      </trkpt>
      <trkpt lat="50.42825" lon="3.44626">
        <ele>49.645263671875</ele>
        <time>2008-10-05T09:55:27Z</time>
      </trkpt>
      <trkpt lat="50.42823" lon="3.44612">
        <ele>47.241821289062</ele>
        <time>2008-10-05T09:55:29Z</time>
      </trkpt>
      <trkpt lat="50.42822" lon="3.44598">
        <ele>44.358032226562</ele>
        <time>2008-10-05T09:55:31Z</time>
      </trkpt>
      <trkpt lat="50.42823" lon="3.44555">
        <ele>39.55126953125</ele>
        <time>2008-10-05T09:55:37Z</time>
      </trkpt>
      <trkpt lat="50.42823" lon="3.44519">
        <ele>39.070678710938</ele>
        <time>2008-10-05T09:55:42Z</time>
      </trkpt>
      <trkpt lat="50.42824" lon="3.44488">
        <ele>31.380126953125</ele>
        <time>2008-10-05T09:55:47Z</time>
      </trkpt>
      <trkpt lat="50.42834" lon="3.44463">
        <ele>23.689575195312</ele>
        <time>2008-10-05T09:55:52Z</time>
      </trkpt>
      <trkpt lat="50.42861" lon="3.44439">
        <ele>15.037719726562</ele>
        <time>2008-10-05T09:55:57Z</time>
      </trkpt>
      <trkpt lat="50.42881" lon="3.44415">
        <ele>8.7891845703125</ele>
        <time>2008-10-05T09:56:01Z</time>
      </trkpt>
      <trkpt lat="50.42904" lon="3.44413">
        <ele>7.34716796875</ele>
        <time>2008-10-05T09:56:04Z</time>
      </trkpt>
      <trkpt lat="50.4291" lon="3.44419">
        <ele>7.34716796875</ele>
        <time>2008-10-05T09:56:05Z</time>
      </trkpt>
      <trkpt lat="50.42952" lon="3.44456">
        <ele>10.231201171875</ele>
        <time>2008-10-05T09:56:12Z</time>
      </trkpt>
      <trkpt lat="50.42989" lon="3.44489">
        <ele>11.192504882812</ele>
        <time>2008-10-05T09:56:18Z</time>
      </trkpt>
      <trkpt lat="50.43047" lon="3.44544">
        <ele>11.673217773438</ele>
        <time>2008-10-05T09:56:28Z</time>
      </trkpt>
      <trkpt lat="50.43084" lon="3.44579">
        <ele>12.15380859375</ele>
        <time>2008-10-05T09:56:35Z</time>
      </trkpt>
      <trkpt lat="50.43089" lon="3.44583">
        <ele>12.15380859375</ele>
        <time>2008-10-05T09:56:36Z</time>
      </trkpt>
      <trkpt lat="50.43105" lon="3.44578">
        <ele>11.673217773438</ele>
        <time>2008-10-05T09:56:40Z</time>
      </trkpt>
      <trkpt lat="50.43107" lon="3.44573">
        <ele>12.15380859375</ele>
        <time>2008-10-05T09:56:41Z</time>
      </trkpt>
      <trkpt lat="50.43125" lon="3.44534">
        <ele>13.115112304688</ele>
        <time>2008-10-05T09:56:47Z</time>
      </trkpt>
      <trkpt lat="50.43145" lon="3.44483">
        <ele>15.037719726562</ele>
        <time>2008-10-05T09:56:54Z</time>
      </trkpt>
      <trkpt lat="50.43152" lon="3.44461">
        <ele>15.518432617188</ele>
        <time>2008-10-05T09:56:57Z</time>
      </trkpt>
      <trkpt lat="50.43149" lon="3.44421">
        <ele>15.518432617188</ele>
        <time>2008-10-05T09:57:02Z</time>
      </trkpt>
      <trkpt lat="50.43144" lon="3.44387">
        <ele>15.037719726562</ele>
        <time>2008-10-05T09:57:07Z</time>
      </trkpt>
      <trkpt lat="50.43139" lon="3.44358">
        <ele>14.557006835938</ele>
        <time>2008-10-05T09:57:12Z</time>
      </trkpt>
      <trkpt lat="50.4313" lon="3.44354">
        <ele>14.557006835938</ele>
        <time>2008-10-05T09:57:16Z</time>
      </trkpt>
      <trkpt lat="50.4311" lon="3.44363">
        <ele>14.557006835938</ele>
        <time>2008-10-05T09:57:21Z</time>
      </trkpt>
      <trkpt lat="50.43076" lon="3.44376">
        <ele>15.037719726562</ele>
        <time>2008-10-05T09:57:29Z</time>
      </trkpt>
      <trkpt lat="50.43066" lon="3.4438">
        <ele>15.518432617188</ele>
        <time>2008-10-05T09:57:32Z</time>
      </trkpt>
      <trkpt lat="50.43056" lon="3.44371">
        <ele>15.518432617188</ele>
        <time>2008-10-05T09:57:36Z</time>
      </trkpt>
      <trkpt lat="50.43053" lon="3.44355">
        <ele>15.037719726562</ele>
        <time>2008-10-05T09:57:42Z</time>
      </trkpt>
      <trkpt lat="50.43053" lon="3.44355">
        <ele>15.037719726562</ele>
        <time>2008-10-05T09:57:43Z</time>
      </trkpt>
    </trkseg>
  </trk>
</gpx>